     2.11           OBSERVATION DATA    G (GPS)             RINEX VERSION / TYPE
teqc 2010Oct21 OPUS Account 20111025 18:41:22UTC            PGM / RUN BY / DATE
Q 1522                                                      MARKER NAME
1170                                                        MARKER NUMBER
DPROUTY NGS                                                 OBSERVER / AGENCY
0220390614 TRIMBLE R7 2.32                                  REC # / TYPE / VERS
12668881 TRM41249.00 NONE                                   ANT # / TYPE
  -738054.4721 -5496299.9645  3140268.5117                  APPROX POSITION XYZ
        2.0000        0.0000        0.0000                  ANTENNA: DELTA H/E/N
     1     1                                                WAVELENGTH FACT L1/2
     5    L1    L2    C1    P1    P2                        # / TYPES OF OBSERV
    15                                                      LEAP SECONDS
  2011     7    26     0     0   30.0000000     GPS         TIME OF FIRST OBS
                                                            END OF HEADER
 11  7 26  0  0 30.0000000  0  8G17G02G20G10G09G04G27G28
 -87322291.17258 -67990365.52056  21278643.3834                   21278641.8204
 -22982931.60257 -17859581.23455  22533041.5864                   22533039.1724
 -18384497.16856 -14287491.12953  24104032.7114                   24104033.2504
  -6050543.15656  -4673496.88754  23785916.0314                   23785920.4884
 -22864950.81257 -17768159.23855  22274649.9694                   22274648.8984
 -58861110.91458 -45811110.25856  19939947.0944                   19939945.6214
 -38672204.46157 -30086459.49255  22446461.1724                   22446460.5784
 -93585449.53958 -72891874.72355  21627528.4064                   21627526.6094
 11  7 26  0  1  0.0000000  0  8G17G02G20G10G09G04G27G28
 -87412855.91848 -68060935.45346  21261409.7734                   21261407.9884
 -23186635.27747 -18018311.23445  22494277.3594                   22494276.6914
 -18477374.59846 -14359863.14543  24086360.2034                   24086359.4414
  -6264353.96546  -4840102.38343  23745229.7894                   23745233.1484
 -23023626.89147 -17891802.90244  22244454.1954                   22244453.1254
 -59004276.09048 -45922667.50446  19912703.6254                   19912702.4344
 -38811592.78948 -30195073.80145  22419936.7344                   22419935.4774
 -93661732.71548 -72951316.20745  21613012.4144                   21613010.3094
 11  7 26  0  1 30.0000000  0  8G17G02G20G10G09G04G27G28
 -87503263.68748 -68131383.09046  21244205.4224                   21244203.9264
 -23390008.36347 -18176783.66045  22455577.0944                   22455575.0744
 -18569691.90246 -14431798.74243  24068792.4614                   24068792.1954
  -6478108.10946  -5006663.78143  23704552.8834                   23704556.7504
 -23181625.49247 -18014918.65645  22214388.0784                   22214386.9534
 -59146806.84448 -46033730.39146  19885580.8594                   19885579.7504
 -38950432.37947 -30303260.50445  22393515.9694                   22393515.6414
 -93737585.14548 -73010422.03945  21598578.1024                   21598576.4344
 11  7 26  0  2  0.0000000  0  8G17G02G20G10G09G04G27G28
 -87593525.20348 -68201716.75046  21227029.4224                   21227028.3874
 -23593060.04747 -18335005.62145  22416937.0704                   22416936.3164
 -18661460.03146 -14503306.39843  24051329.5314                   24051328.5944
  -6691812.73046  -5173186.61743  23663886.3134                   23663890.8244
 -23338956.16447 -18137513.97345  22184449.2034                   22184448.2734
 -59288713.71548 -46144307.14846  19858576.8594                   19858575.7194
 -39088733.50847 -30411027.63745  22367198.3594                   22367198.1054
 -93813016.22348 -73069199.54745  21584223.9534                   21584222.6484
 11  7 26  0  2 30.0000000  0  8G17G02G20G10G09G04G27G28
 -87683641.85548 -68271937.53946  21209880.6884                   21209878.6604
 -23795789.47747 -18492976.50445  22378359.0634                   22378357.2704
 -18752680.34446 -14574387.17243  24033969.8284                   24033970.8524
  -6905466.17246  -5339669.50043  23623228.8524                   23623234.1134
 -23495618.68747 -18259588.64144  22154637.4384                   22154636.5314
 -59429997.48848 -46254398.37146  19831691.3674                   19831690.3244
 -39226496.62547 -30518375.55145  22340983.0394                   22340982.5164
 -93888027.87548 -73127650.22745  21569949.5554                   21569948.4224
 11  7 26  0  3  0.0000000  0  8G17G02G20G10G09G04G27G28
 -87773616.47748 -68342047.64546  21192759.4924                   21192757.7034
 -23998197.90247 -18650697.22745  22339842.6024                   22339840.6134
 -18843355.35246 -14645043.02743  24016716.3284                   24016715.7734
  -7119067.56646  -5506111.84843  23582582.3284                   23582586.4614
 -23651614.37947 -18381143.69545  22124952.5554                   22124951.6954
 -59570660.44548 -46364005.85246  19804924.1724                   19804923.1214
 -39363724.03147 -30625306.01245  22314869.3914                   22314869.4414
 -93962622.00048 -73185775.57445  21555754.7194                   21555753.0164
 11  7 26  0  3 30.0000000  0  8G17G02G20G10G09G04G27G28
 -86288018.32848 -67184438.70346  21475459.0634                   21475457.3324
 -22624848.64847 -17580554.84045  22601182.0944                   22601179.8134
 -17358053.97346 -13487665.29343  24299359.3914                   24299359.2424
  -5757178.27746  -4444899.19143  23841740.9384                   23841744.4494
 -22231508.84847 -17274567.93444  22395189.2894                   22395188.1804
 -58135269.88748 -45245519.69546  20078069.6954                   20078068.6174
 -37924982.60947 -29504208.80545  22588652.5634                   22588652.5594
 -92461367.30548 -72015966.76645  21841434.1484                   21841432.4844
 11  7 26  0  4  0.0000000  0  8G17G02G20G10G09G04G27G28
 -86377698.31648 -67254319.23046  21458393.7034                   21458391.6644
 -22826598.21547 -17737762.17645  22562789.8444                   22562788.1454
 -17447627.34046 -13557462.69143  24282314.8284                   24282313.8834
  -5970654.34446  -4611243.93743  23801117.1334                   23801120.8954
 -22386155.96547 -17395072.15645  22365761.0314                   22365760.0204
 -58274679.64848 -45354150.66846  20051541.3134                   20051539.8834
 -38061125.79747 -29610294.42245  22562745.7974                   22562745.8594
 -92535112.96948 -72073430.96945  21827401.0554                   21827399.4414
 11  7 26  0  4 30.0000000  0  8G17G02G20G10G09G04G27G28
 -86467236.33648 -67324089.14146  21441355.2274                   21441353.8244
 -23028020.96947 -17894714.84845  22524459.9064                   22524458.6994
 -17536655.62946 -13626835.42643  24265372.2814                   24265372.0944
  -6184067.98846  -4777539.98443  23760506.5704                   23760509.2854
 -22540132.03947 -17515053.49244  22336460.0394                   22336459.5004
 -58413467.46948 -45462297.01246  20025130.5554                   20025129.1524
 -38196731.41047 -29715961.14845  22536940.4774                   22536940.3874
 -92608438.98448 -72130568.18045  21813447.1644                   21813445.8204
 11  7 26  0  5  0.0000000  0  8G17G02G20G10G09G04G27G28
 -86556624.12548 -67393741.99246  21424345.1564                   21424343.9924
 -23229106.78947 -18051404.97745  22486194.7504                   22486193.2114
 -17625130.21546 -13695776.67243  24248536.3444                   24248536.3594
  -6397407.22746  -4943778.13343  23719909.0314                   23719911.4144
 -22693427.08247 -17634504.15245  22307289.1094                   22307288.8364
 -58551624.62148 -45569951.91046  19998840.3364                   19998838.7734
 -38331790.20347 -29821201.76645  22511239.8134                   22511239.6644
 -92681335.76648 -72187370.91045  21799575.5864                   21799574.1804
 11  7 26  0  5 30.0000000  0  8G17G02G20G10G09G04G27G28
 -86645858.47748 -67463275.28946  21407364.4384                   21407362.7074
 -23429850.85548 -18207828.81645  22447994.1174                   22447992.6294
 -17713048.26646 -13764284.27343  24231805.8674                   24231805.1374
  -6610665.79347  -5109953.39543  23679327.7974                   23679330.2194
 -22846037.02347 -17753420.96545  22278248.0784                   22278248.6294
 -58689147.93448 -45677112.91846  19972670.3524                   19972669.2384
 -38466298.75847 -29926013.63345  22485643.9924                   22485643.3674
 -92753800.23448 -72243836.77745  21785786.1484                   21785784.4774
 11  7 26  0  6  0.0000000  0  8G17G02G20G10G09G04G27G28
 -86734944.94548 -67532693.34446  21390411.8984                   21390410.3754
 -23630256.28947 -18363988.77345  22409858.4924                   22409856.8284
 -17800414.84846 -13832362.14843  24215180.7894                   24215180.4774
  -6823845.22346  -5276067.00843  23638760.4304                   23638762.8954
 -22997965.64147 -17871806.88745  22249337.4534                   22249336.7384
 -58826042.15648 -45783783.73446  19946620.2584                   19946619.2114
 -38600261.75447 -30030400.40645  22460151.6094                   22460151.6174
 -92825836.82848 -72299969.24645  21772078.2194                   21772076.9024
 11  7 26  0  6 30.0000000  0  8G17G02G20G10G09G04G27G28
 -86823881.18448 -67601994.33246  21373487.9844                   21373485.8954
 -23830319.26247 -18519881.89145  22371787.6024                   22371785.4614
 -17887227.63346 -13900008.41443  24198660.4064                   24198660.8874
  -7036939.60546  -5442114.41043  23598209.0704                   23598211.8984
 -23149209.36347 -17989659.14545  22220556.5864                   22220556.2814
 -58962305.03548 -45889962.58246  19920690.1804                   19920689.1134
 -38733676.18447 -30134359.71545  22434763.8914                   22434763.6454
 -92897442.69148 -72355766.06645  21758452.0084                   21758450.5124
 11  7 26  0  7  0.0000000  0  8G17G02G20G10G09G04G27G28
 -86912663.96148 -67671175.74646  21356593.5314                   21356591.3444
 -24030034.85547 -18675504.30945  22333782.7734                   22333781.3874
 -17973484.10246 -13967221.25443  24182247.3054                   24182246.4064
  -7249942.73847  -5608090.64143  23557676.0784                   23557678.7304
 -23299763.87947 -18106974.32445  22191906.8134                   22191906.9884
 -59097933.04348 -45995646.73046  19894881.2034                   19894879.8204
 -38866538.62948 -30237888.89145  22409481.2734                   22409481.0044
 -92968614.14848 -72411224.39145  21744908.5784                   21744907.0594
 11  7 26  0  7 30.0000000  0  8G17G02G20G10G09G04G27G28
 -87001302.48848 -67740244.76646  21339725.9384                   21339724.1994
 -24229410.37948 -18830861.76645  22295843.2734                   22295841.0554
 -18059193.57846 -14034007.84843  24165936.8914                   24165936.4614
  -7462859.97346  -5773999.95343  23517158.5554                   23517162.0514
 -23449637.25847 -18223758.75045  22163387.0554                   22163387.2624
 -59232935.21948 -46100843.21546  19869190.9614                   19869189.8874
 -38998857.86748 -30340994.79345  22384301.2894                   22384300.9264
 -93039360.07048 -72466351.12545  21731446.3984                   21731445.0784
 11  7 26  0  8  0.0000000  0  8G17G02G20G10G09G04G27G28
 -87089787.45348 -67809194.12546  21322887.8594                   21322886.4224
 -24428434.83648 -18985945.66445  22257970.0474                   22257967.8484
 -18144346.47746 -14100360.77043  24149733.7424                   24149731.8954
  -7675678.84447  -5939832.63743  23476661.2894                   23476663.3484
 -23598818.82047 -18340004.13745  22134998.2814                   22134998.5274
 -59367301.99648 -46205544.59046  19843622.4454                   19843620.7774
 -39130624.00447 -30443669.70345  22359226.9924                   22359227.1684
 -93109670.48448 -72521138.52045  21718066.6884                   21718065.3484
 11  7 26  0  8 30.0000000  0  8G17G02G20G10G09G04G27G28
 -87178114.87148 -67878020.72746  21306079.7664                   21306078.2384
 -24627102.47348 -19140751.51645  22220164.4224                   22220162.4224
 -18228939.37546 -14166277.32843  24133635.8914                   24133635.0274
  -7888391.71946  -6105582.73043  23436183.0634                   23436185.5204
 -23747303.64147 -18455706.57845  22106742.9924                   22106742.4884
 -59501029.44148 -46309747.77346  19818174.2974                   19818173.3754
 -39261832.75447 -30545910.26645  22334258.7974                   22334258.9414
 -93179541.12148 -72575583.21545  21704770.6414                   21704769.6644
 11  7 26  0  9  0.0000000  0  8G17G02G20G10G09G04G27G28
 -87266290.29748 -67946728.87146  21289300.5474                   21289298.9614
 -24825417.04348 -19295282.25845  22182426.2584                   22182424.4614
 -18312977.71546 -14231761.78143  24117643.2344                   24117642.4694
  -8101000.43746  -6271251.65643  23395724.5004                   23395726.7544
 -23895096.06647 -18570869.51645  22078618.7274                   22078618.4414
 -59634122.82848 -46413456.89546  19792847.5234                   19792846.5554
 -39392489.00448 -30647720.33245  22309395.8524                   22309395.5204
 -93248976.78148 -72629688.96545  21691557.4694                   21691556.3054
 11  7 26  0  9 30.0000000  0  8G17G02G20G10G09G04G27G28
 -87354319.00448 -68015322.69946  21272549.0554                   21272547.7544
 -25023382.14848 -19449540.69545  22144754.7584                   22144752.7624
 -18396467.33646 -14296818.63743  24101755.7344                   24101755.5084
  -8313507.12146  -6436841.06243  23355285.3364                   23355288.3554
 -24042200.27347 -18685496.18045  22050626.2734                   22050624.9734
 -59766587.40648 -46516676.03146  19767640.6024                   19767639.2234
 -39522597.82047 -30749103.82845  22284637.0784                   22284636.3054
 -93317982.31248 -72683459.55545  21678426.4384                   21678424.9804
 11  7 26  0 10  0.0000000  0  8G17G02G20G10G09G04G27G28
 -85866766.74648 -66856191.10246  21555621.2424                   21555619.6564
 -23645558.16847 -18375911.53145  22406946.1254                   22406943.7274
 -16903974.07046 -13133836.89543  24385767.9614                   24385767.2154
  -6950469.43447  -5374733.56243  23614663.0554                   23614665.1174
 -22613178.98047 -17571973.11345  22322559.7894                   22322559.0044
 -58322987.40648 -45391792.91047  20042348.3524                   20042347.1054
 -38076723.22748 -29622448.30545  22559778.0164                   22559777.2974
 -91811123.69548 -71509284.04345  21965171.9774                   21965170.3984
 11  7 26  0 10 30.0000000  0  8G17G02G20G10G09G04G27G28
 -85954477.18748 -66924536.91846  21538930.5314                   21538928.6054
 -23842794.52048 -18529602.12545  22369413.4064                   22369411.0944
 -16986342.25446 -13198019.88742  24370092.6724                   24370093.0594
  -7162736.37547  -5540136.20743  23574270.0554                   23574272.2344
 -22758879.04347 -17685505.65645  22294834.3914                   22294832.9844
 -58454169.72748 -45494012.87946  20017385.4384                   20017384.2114
 -38205711.53547 -29722958.66845  22535232.2504                   22535231.6094
 -91879243.06247 -71562364.12545  21952209.4924                   21952208.0944
 11  7 26  0 11  0.0000000  0  8G17G02G20G10G09G04G27G28
 -86042031.53948 -66992761.09446  21522269.1884                   21522267.5594
 -24039666.82848 -18683009.05145  22331949.6884                   22331947.6604
 -17068153.11346 -13261768.59443  24354525.4694                   24354525.1684
  -7374881.16046  -5705443.60544  23533899.3524                   23533902.0704
 -22903878.58247 -17798492.32045  22267241.5554                   22267241.0784
 -58584713.72348 -45595735.45347  19992543.1174                   19992542.2074
 -38334141.72348 -29823034.12945  22510792.5394                   22510792.1024
 -91946921.73448 -71615100.80545  21939330.3834                   21939329.0204
 11  7 26  0 11 30.0000000  0  8G17G02G20G10G09G04G27G28
 -86129424.29748 -67060859.36746  21505638.7974                   21505637.7854
 -24236168.30948 -18836127.01245  22294556.4844                   22294554.7734
 -17149401.75046 -13325079.21943  24339064.8914                   24339064.0314
  -7586894.86746  -5870648.91444  23493555.2424                   23493557.0634
 -23048171.24647 -17910928.19545  22239783.4694                   22239783.0634
 -58714614.32448 -45696956.69546  19967824.2664                   19967822.6374
 -38462008.42248 -29922670.50045  22486460.3444                   22486459.5234
 -92014153.97347 -71667489.60245  21926536.6484                   21926535.2424
 11  7 26  0 12  0.0000000  0  8G17G02G20G10G09G04G27G28
 -86216662.66048 -67128837.32046  21489038.0474                   21489036.4694
 -24432304.07048 -18988960.00445  22257233.0084                   22257231.2114
 -17230095.36346 -13387957.40643  24323708.5944                   24323708.6254
  -7798780.97347  -6035754.72744  23453234.7274                   23453236.6804
 -23191763.04747 -18022817.91445  22212458.8754                   22212458.5234
 -58843878.27048 -45797681.85247  19943226.1954                   19943225.0044
 -38589318.41047 -30021873.08645  22462234.2344                   22462233.3284
 -92080946.50047 -71719535.77045  21913826.9534                   21913824.7774
 11  7 26  0 12 30.0000000  0  8G17G02G20G10G09G04G27G28
 -86303738.73847 -67196688.82446  21472467.8204                   21472466.5944
 -24628065.06647 -19141500.97745  22219981.1254                   22219979.0824
 -17310226.65646 -13450397.38743  24308460.2664                   24308459.8444
  -8010528.54347  -6200752.66844  23412939.6484                   23412942.7424
 -23334645.71547 -18134155.08245  22185269.0634                   22185269.7194
 -58972498.35248 -45897905.28946  19918750.4224                   19918749.0594
 -38716064.03147 -30120635.90245  22438115.1884                   22438115.2074
 -92147291.32447 -71771233.07845  21901201.4924                   21901200.1724
 11  7 26  0 13  0.0000000  0  8G17G02G20G10G09G04G27G28
 -86390648.39148 -67264410.63346  21455929.8284                   21455928.1564
 -24823445.39847 -19293745.30545  22182801.0554                   22182799.3324
 -17389792.16846 -13512396.51243  24293319.5004                   24293319.8404
  -8222129.38347  -6365636.27044  23372673.4144                   23372675.3794
 -23476814.00447 -18244935.54745  22158215.3524                   22158216.3164
 -59100470.28148 -45997623.66046  19894398.5944                   19894397.3834
 -38842240.78147 -30218955.44545  22414104.3914                   22414104.1804
 -92213183.87948 -71822577.96545  21888663.1414                   21888661.7974
 11  7 26  0 13 30.0000000  0  8G17G02G20G10G09G04G27G28
 -86477398.05548 -67332007.78546  21439421.6254                   21439420.4454
 -25018450.12547 -19445696.99245  22145692.9454                   22145691.2584
 -17468798.92646 -13573960.27043  24278286.5164                   24278285.3204
  -8433587.09846  -6530408.32844  23332434.2114                   23332435.2344
 -23618273.54747 -18355163.76645  22131296.6804                   22131297.6914
 -59227800.72748 -46096842.18446  19870168.1334                   19870167.0394
 -38967855.11748 -30316836.73845  22390201.1484                   22390200.2344
 -92278630.30547 -71873575.21145  21876208.3914                   21876207.0274
 11  7 26  0 14  0.0000000  0  8G17G02G20G10G09G04G27G28
 -86563983.72748 -67399477.14146  21422945.2894                   21422943.8364
 -25213073.75448 -19597351.70745  22108657.1094                   22108655.0984
 -17547243.06646 -13635085.56243  24263358.2734                   24263357.6174
  -8644894.01647  -6695062.88744  23292223.6024                   23292225.5784
 -23759020.01247 -18464836.34045  22104513.8754                   22104514.5704
 -59354486.10548 -46195558.05547  19846060.7424                   19846059.3984
 -39092902.94547 -30414276.60545  22366405.3054                   22366404.5314
 -92343626.53947 -71924221.68045  21863839.5784                   21863838.9104
 11  7 26  0 14 30.0000000  0  8G17G02G20G10G09G04G27G28
 -86650401.54348 -67466815.71546  21406500.3834                   21406499.4574
 -25407310.55148 -19748704.98445  22071695.0004                   22071692.9884
 -17625121.59846 -13695770.15243  24248538.1804                   24248537.9454
  -8856042.64147  -6859594.09844  23252043.4144                   23252045.2464
 -23899048.31247 -18573949.28145  22077866.9224                   22077867.6454
 -59480522.66448 -46293768.34846  19822076.6644                   19822075.1994
 -39217380.18747 -30511271.86345  22342717.4534                   22342717.4024
 -92408168.41847 -71974514.10245  21851558.1954                   21851557.1684
 11  7 26  0 15  0.0000000  0  8G17G02G20G10G09G04G27G28
 -86736653.95748 -67534025.39546  21390087.1884                   21390085.7584
 -25601161.56647 -19899757.66445  22034806.5784                   22034804.7344
 -17702437.50046 -13756016.32443  24233825.5474                   24233825.7274
  -9067032.19546  -7024001.33244  23211893.2894                   23211894.8834
 -24038360.77347 -18682504.43045  22051356.7504                   22051357.0554
 -59605913.38748 -46391475.41447  19798215.6024                   19798214.3244
 -39341289.31247 -30607824.44945  22319138.5004                   22319138.1024
 -92472258.18747 -72024454.22745  21839362.3984                   21839360.9844
 11  7 26  0 15 30.0000000  0  8G17G02G20G10G09G04G27G28
 -86822736.20748 -67601102.48046  21373705.8444                   21373704.8874
 -25794620.51247 -20050504.82445  21997992.6254                   21997990.1844
 -17779186.43446 -13815820.66843  24219220.3984                   24219220.2274
  -9277854.41846  -7188278.23043  23171774.4454                   23171776.0434
 -24176951.87947 -18790497.46545  22024983.7734                   22024983.9144
 -59730653.50048 -46488675.48847  19774478.4534                   19774476.9804
 -39464625.47347 -30703930.55945  22295668.6024                   22295668.1054
 -92535891.28547 -72074038.50845  21827253.7344                   21827252.6884
 11  7 26  0 16  0.0000000  0  8G17G02G20G10G09G04G27G28
 -86908656.82048 -67668053.61746  21357356.1804                   21357354.3284
 -25987694.45748 -20200951.98446  21961251.8754                   21961249.6564
 -17855377.79746 -13875190.57843  24204721.9064                   24204721.6454
  -9488514.29346  -7352428.60543  23131687.3594                   23131689.4924
 -24314829.27347 -18897934.37945  21998746.5234                   21998746.9574
 -59854751.78148 -46585375.44946  19750863.4614                   19750861.7854
 -39587397.23048 -30799596.86745  22272306.2034                   22272305.3324
 -92599075.57447 -72123273.08645  21815229.9384                   21815228.7424
 11  7 26  0 16 30.0000000  0  8G17G02G20G10G09G04G27G28
 -85418986.02748 -66507271.20346  21640831.1484                   21640829.2584
 -24604948.89847 -19123487.84846  22224379.4844                   22224377.3524
 -16355582.82046 -12706519.15643  24490122.8364                   24490123.6804
  -8123574.51246  -6288838.99644  23391427.0634                   23391428.0904
 -22876561.12147 -17777205.90645  22272439.7344                   22272439.7774
 -58402777.94948 -45453967.26246  20027164.7734                   20027163.5124
 -38134174.07047 -29667215.18745  22548844.6724                   22548845.0744
 -91086382.12947 -70944550.96945  22103085.7194                   22103084.5004
 11  7 26  0 17  0.0000000  0  8G17G02G20G10G09G04G27G28
 -85504574.27748 -66573963.36346  21624544.0784                   21624542.4694
 -24797239.56248 -19273324.64846  22187787.6254                   22187785.6764
 -16430651.72746 -12765014.43043  24475838.5314                   24475838.4534
  -8333890.00846  -6452721.02043  23351405.0704                   23351406.7664
 -23013000.55547 -17883522.33245  22246475.9304                   22246475.7274
 -58525584.89848 -45549660.98446  20003794.9614                   20003793.9734
 -38255808.35947 -29761995.16445  22525698.8984                   22525698.5234
 -91148659.47348 -70993078.81645  22091235.0394                   22091233.4614
 11  7 26  0 17 30.0000000  0  8G17G02G20G10G09G04G27G28
 -85589993.77748 -66640524.03546  21608288.9694                   21608288.0084
 -24989133.98048 -19422852.69546  22151271.6174                   22151269.0944
 -16505157.82446 -12823071.12943  24461660.4144                   24461659.9924
  -8544025.70746  -6616463.00844  23311417.4454                   23311418.4104
 -23148717.83247 -17989276.01645  22220650.2584                   22220649.1454
 -58647744.35948 -45644850.17646  19980549.1644                   19980548.2464
 -38376871.25447 -29856329.89145  22502661.0474                   22502660.7894
 -91210481.02748 -71041251.50845  22079470.8674                   22079469.4964
 11  7 26  0 18  0.0000000  0  8G17G02G20G10G09G04G27G28
 -85675244.89148 -66706953.49246  21592066.6644                   21592064.7234
 -25180631.03148 -19572071.09846  22114830.5704                   22114828.5664
 -16579102.30946 -12880690.24643  24447588.8984                   24447589.0314
  -8753978.57046  -6780062.49644  23271464.6644                   23271465.6914
 -23283713.32047 -18094467.27345  22194960.7424                   22194959.8754
 -58769257.15648 -45739535.47347  19957426.1414                   19957424.7074
 -38497363.34447 -29950219.84845  22479732.5704                   22479732.1484
 -91271846.97347 -71089069.18745  22067793.7274                   22067792.0084
 11  7 26  0 18 30.0000000  0  8G17G02G20G10G09G04G27G28
 -85760328.59448 -66773252.48446  21575875.9384                   21575874.0744
 -25371730.53148 -19720979.73045  22078465.7194                   22078463.4734
 -16652486.95746 -12937873.08643  24433624.1094                   24433624.0554
  -8963745.89846  -6943517.41444  23231546.5314                   23231548.8874
 -23417987.47347 -18199096.46944  22169409.1414                   22169408.0084
 -58890124.86348 -45833718.10247  19934425.7584                   19934424.5004
 -38617285.78547 -30043665.91845  22456912.1564                   22456911.4804
 -91332758.22747 -71136532.55545  22056202.4064                   22056201.2934
 11  7 26  0 19  0.0000000  0  8G17G02G20G10G09G04G27G28
 -85845241.93448 -66839418.73446  21559717.1484                   21559715.5274
 -25562428.00847 -19869575.08245  22042177.0234                   22042174.6994
 -16725309.90646 -12994618.24243  24419766.9614                   24419766.6484
  -9173321.55547  -7106822.98844  23191665.8834                   23191667.6174
 -23551536.92647 -18303160.93045  22143995.5864                   22143994.9454
 -59010345.27048 -45927396.34047  19911548.6564                   19911547.1764
 -38736635.94147 -30136666.05545  22434200.8834                   22434200.2194
 -91393211.71547 -71183639.24245  22044698.7274                   22044697.7344
 11  7 26  0 19 30.0000000  0  8G17G02G20G10G09G04G27G28
 -85929986.50448 -66905453.47346  21543591.2974                   21543589.3984
 -25752723.50048 -20017857.21145  22005964.7344                   22005962.3094
 -16797573.43746 -13050927.51243  24406015.1094                   24406015.4534
  -9382703.33647  -7269977.49644  23151822.3284                   23151823.3834
 -23684362.64147 -18406661.45345  22118719.9614                   22118718.4964
 -59129919.91848 -46020571.37946  19888794.4224                   19888793.0124
 -38855415.39547 -30229221.48445  22411597.7034                   22411596.8834
 -91453208.93747 -71230390.37545  22033281.8204                   22033280.9654
 11  7 26  0 20  0.0000000  0  8G17G02G20G10G09G04G27G28
 -86014563.28548 -66971357.47346  21527496.6884                   21527495.2664
 -25942616.82848 -20165825.96145  21969829.1334                   21969826.9144
 -16869278.79746 -13106801.91443  24392370.0394                   24392370.2464
  -9591888.92647  -7432979.12144  23112015.4614                   23112016.5234
 -23816465.43747 -18509598.66845  22093581.7114                   22093580.3524
 -59248850.63348 -46113244.66046  19866162.5394                   19866161.3054
 -38973625.32847 -30321333.14845  22389102.8524                   22389102.6884
 -91512751.08247 -71276786.91445  22021951.4224                   22021949.9574
 11  7 26  0 20 30.0000000  0  8G17G02G20G10G09G04G27G28
 -86098970.63748 -67037129.44946  21511434.7974                   21511432.8834
 -26132104.87948 -20313478.90246  21933770.8134                   21933768.6054
 -16940425.59046 -13162240.95743  24378831.5234                   24378831.1054
  -9800873.13747  -7595823.83644  23072247.2504                   23072248.2384
 -23947843.44147 -18611971.10945  22068581.1334                   22068580.5124
 -59367136.25448 -46205415.27046  19843653.7274                   19843652.3554
 -39091264.37547 -30412999.95345  22366717.0004                   22366716.9144
 -91571836.39547 -71322827.47345  22010707.7194                   22010706.6094
 11  7 26  0 21  0.0000000  0  8G17G02G20G10G09G04G27G28
 -86183213.02748 -67102772.89146  21495403.8204                   21495402.4304
 -26321191.37948 -20460818.95346  21897789.1024                   21897786.3674
 -17011019.67646 -13217249.30943  24365397.5864                   24365397.5514
 -10009657.34047  -7758512.70344  23032516.5164                   23032517.8204
 -24078501.40247 -18713782.46945  22043718.0784                   22043717.2584
 -59484782.46548 -46297087.62547  19821266.2194                   19821265.1684
 -39208337.77347 -30504226.00445  22344439.0004                   22344437.7974
 -91630469.91847 -71368515.97745  21999550.1564                   21999548.8364
 11  7 26  0 21 30.0000000  0  8G17G02G20G10G09G04G27G28
 -86267287.25447 -67168285.28546  21479404.4614                   21479403.4614
 -26509871.20748 -20607842.11346  21861884.4064                   21861881.9654
 -17081058.46546 -13271824.99243  24352069.6644                   24352069.6564
 -10218234.55147  -7921040.27044  22992825.1884                   22992826.0274
 -24208435.52347 -18815029.82845  22018992.1644                   22018991.5944
 -59601786.28948 -46388259.42247  19799001.0314                   19798999.4144
 -39324842.29747 -30595008.77045  22322268.7034                   22322268.5354
 -91688647.96547 -71413849.59445  21988479.3984                   21988478.2424
 11  7 26  0 22  0.0000000  0  9G17G02G20G10G09G12G04G27G28
 -86351188.24247 -67233662.68046  21463438.8754                   21463437.5594
 -26698138.51248 -20754543.82846  21826058.2974                   21826055.5164
 -17150537.62946 -13325964.66042  24338848.4064                   24338848.4144
 -10426596.50047  -8083400.09044  22953174.9694                   22953176.6604
 -24337640.77047 -18915709.21945  21994405.2504                   21994404.9844
   4415412.21156   3491476.13753  24543437.3594                   24543435.9574
 -59718143.30148 -46478927.20346  19776859.0004                   19776857.7114
 -39440773.23047 -30685344.57845  22300207.5234                   22300207.0824
 -91746365.95747 -71458824.73045  21977496.0004                   21977494.7704
 11  7 26  0 22 30.0000000  0  9G17G02G20G10G09G12G04G27G28
 -86434921.20347 -67298909.15246  21447505.3054                   21447503.6254
 -26885997.07448 -20900927.05145  21790309.3204                   21790307.4884
 -17219463.32046 -13379673.00443  24325732.3204                   24325732.5704
 -10634744.83647  -8245593.45344  22913565.7194                   22913567.2664
 -24466121.94947 -19015824.39845  21969956.3754                   21969956.4384
   4201565.37546   3324842.34443  24502743.6024                   24502743.0004
 -59833859.68748 -46569095.80146  19754838.6954                   19754837.6804
 -39556136.19547 -30775237.80545  22278254.8054                   22278254.4104
 -91803629.31247 -71503445.57845  21966599.1954                   21966597.4734
 11  7 26  0 23  0.0000000  0  9G17G02G20G10G09G12G04G27G28
 -86518492.80947 -67364029.87546  21431601.8054                   21431600.0944
 -27073452.46548 -21046996.10946  21754638.1804                   21754635.6294
 -17287843.85546 -13432956.55543  24312719.4064                   24312720.3054
 -10842682.80547  -8407622.90644  22873996.8594                   22873997.6294
 -24593886.12147 -19115380.87145  21945642.7734                   21945643.3364
   3987774.25446   3158251.97743  24462060.1094                   24462060.7894
 -59948942.87948 -46658770.99646  19732938.9304                   19732938.0204
 -39670938.55147 -30864694.18445  22256408.4924                   22256408.3484
 -91860444.57447 -71547717.27745  21955787.5634                   21955786.5394
 11  7 26  0 23 30.0000000  0  9G17G02G20G10G09G12G04G27G28
 -85026483.77347 -66201425.41846  21715522.0314                   21715520.3524
 -25685080.69948 -19965147.90246  22018836.1414                   22018834.2234
 -15780261.17246 -12258216.82843  24599603.8204                   24599603.6374
  -9474983.78947  -7341883.25444  23134260.8914                   23134262.7814
 -23145512.22747 -17986777.83645  22221260.1644                   22221260.0234
   5349463.81346   4219308.84443  24721181.6024                   24721180.3284
 -58487973.09848 -45520352.96947  20010952.2894                   20010951.1604
 -38209760.20347 -29726113.68445  22534461.3364                   22534461.8914
 -90341393.77047 -70364041.37145  22244853.7664                   22244852.5784
 11  7 26  0 24  0.0000000  0  9G17G02G20G10G09G12G04G27G28
 -85109735.69548 -66266297.05146  21699679.8984                   21699677.6804
 -25871729.34048 -20110588.32846  21983318.3834                   21983316.0634
 -15847556.54746 -12310654.80143  24586797.2114                   24586797.7464
  -9682494.28147  -7503579.61744  23094772.2274                   23094773.7854
 -23271845.17647 -18085219.08645  22197219.0634                   22197219.4454
   5135785.32846   4052806.16843  24680520.4614                   24680517.9534
 -58601795.17648 -45609045.48046  19989293.1724                   19989291.7704
 -38323445.37547 -29814699.52745  22512828.2274                   22512828.3714
 -90397317.05147 -70407618.02745  22234211.3594                   22234210.5864
 11  7 26  0 24 30.0000000  0  9G17G02G20G10G09G12G04G27G28
 -85192817.92247 -66331036.45746  21683869.7344                   21683868.4304
 -26057962.83248 -20255705.27346  21947879.2974                   21947876.6804
 -15914301.34046 -12362663.75043  24574096.1174                   24574096.3204
  -9889775.82447  -7665097.57844  23055327.8284                   23055329.4884
 -23397453.03547 -18183095.30945  22173316.8364                   22173317.5234
   4922175.81646   3886357.21943  24639872.3524                   24639870.4184
 -58714978.18048 -45697240.00446  19967754.0704                   19967753.0164
 -38436563.01647 -29902843.15245  22491303.0234                   22491302.3984
 -90452784.75447 -70450839.67245  22223656.5634                   22223655.3914
 11  7 26  0 25  0.0000000  0  9G17G02G20G10G09G12G04G27G28
 -85275735.65248 -66395647.68746  21668090.8204                   21668089.7664
 -26243785.06648 -20400501.73846  21912518.3984                   21912515.9104
 -15980501.52346 -12414248.37543  24561499.5864                   24561498.9384
 -10096829.76647  -7826438.18744  23015927.3134                   23015929.0474
 -23522340.69547 -18280410.38745  22149551.5474                   22149552.9804
   4708632.31646   3719959.76243  24599235.7034                   24599234.2624
 -58827528.16448 -45784941.27046  19946336.7664                   19946335.9494
 -38549118.41447 -29990548.64845  22469884.4384                   22469884.0354
 -90507802.15247 -70493710.44545  22213187.0474                   22213186.0044
 11  7 26  0 25 30.0000000  0  9G17G02G20G10G09G12G04G27G28
 -85358481.84447 -66460125.26646  21652344.8204                   21652343.6684
 -26429188.41848 -20544971.81246  21877236.9304                   21877234.4924
 -16046151.77046 -12465404.41443  24549007.0314                   24549006.7384
 -10303646.20347  -7987593.75444  22976570.4534                   22976572.6374
 -23646501.60947 -18377159.14845  22125924.5784                   22125924.9574
   4495163.40246   3553620.40243  24558614.2664                   24558612.9384
 -58939438.88748 -45872144.41046  19925041.4924                   19925039.8874
 -38661105.58647 -30077811.38745  22448573.7894                   22448573.7384
 -90562363.01247 -70536225.46545  22202804.7034                   22202803.3754
 11  7 26  0 26  0.0000000  0  9G17G02G20G10G09G12G04G27G28
 -85441055.48847 -66524468.39146  21636631.5234                   21636630.3094
 -26614170.39848 -20689113.55546  21842036.2504                   21842033.9024
 -16111251.88746 -12516131.80543  24536619.0864                   24536618.8674
 -10510220.71147  -8148560.80544  22937260.9224                   22937262.1054
 -23769934.55147 -18473340.64845  22102436.0784                   22102436.3324
   4281771.46146   3387341.04744  24518007.1094                   24518006.8954
 -59050710.56648 -45958849.58246  19903866.7344                   19903865.6094
 -38772523.76247 -30164630.73445  22427371.6334                   22427371.3754
 -90616466.13747 -70578383.79745  22192509.3594                   22192507.7274
 11  7 26  0 26 30.0000000  0  9G17G02G20G10G09G12G04G27G28
 -85523453.00047 -66588674.27346  21620951.3204                   21620950.8284
 -26798726.75047 -20832923.64546  21806915.6954                   21806913.5784
 -16175799.35246 -12566428.59043  24524335.7504                   24524335.4694
 -10716546.43447  -8309333.98444  22897998.3284                   22898000.1954
 -23892636.45347 -18568952.52345  22079086.8444                   22079086.1884
   4068461.90647   3221125.88744  24477415.1564                   24477415.7854
 -59161340.32848 -46045054.57446  19882814.7344                   19882813.7194
 -38883370.21547 -30251004.59045  22406277.9454                   22406278.1174
 -90670108.50847 -70620183.11345  22182300.7734                   22182300.1644
 11  7 26  0 27  0.0000000  0  9G17G02G20G10G09G12G04G27G28
 -85605682.02748 -66652748.87146  21605303.9144                   21605302.9924
 -26982863.90647 -20976407.07046  21771875.5784                   21771874.3054
 -16239803.37946 -12616301.86743  24512155.8134                   24512156.3484
 -10922627.25847  -8469916.36344  22858783.0084                   22858783.3164
 -24014615.39547 -18664001.03945  22055874.5394                   22055874.8094
   3855229.07046   3054970.48843  24436838.6954                   24436838.4454
 -59271337.03948 -46130766.28546  19861883.2114                   19861881.8674
 -38993653.35548 -30336939.50845  22385291.5704                   22385291.7664
 -90723298.17247 -70661629.68045  22172179.6484                   22172178.9064
 11  7 26  0 27 30.0000000  0  9G17G02G20G10G09G12G04G27G28
 -85687734.01247 -66716685.52746  21589690.2344                   21589689.2544
 -27166571.85948 -21119556.07046  21736917.5474                   21736915.1684
 -16303256.50046 -12665745.83242  24500080.7814                   24500081.5004
 -11128451.41447  -8630298.70744  22819615.9924                   22819616.5554
 -24135862.98447 -18758479.69545  22032801.9224                   22032801.9064
   3642083.50046   2888883.09443  24396277.5084                   24396278.1994
 -59380692.98048 -46215978.68446  19841073.4454                   19841072.1484
 -39103365.04747 -30422429.12945  22364414.4694                   22364414.4694
 -90776026.73447 -70702716.94945  22162145.9454                   22162145.0824
 11  7 26  0 28  0.0000000  0  9G17G02G20G10G09G12G04G27G28
 -85769613.66047 -66780487.88746  21574108.9844                   21574107.9384
 -27349854.53948 -21262373.67646  21702039.7814                   21702037.5904
 -16366164.74245 -12714765.21542  24488110.1174                   24488110.0824
 -11334020.05547  -8790481.97344  22780496.6094                   22780497.8284
 -24256384.40647 -18852392.51645  22009867.3984                   22009867.8834
   3429022.29346   2722861.41443  24355733.1804                   24355734.7154
 -59489413.85948 -46300696.23046  19820384.3984                   19820383.0164
 -39212510.54347 -30507477.56645  22343645.2424                   22343644.6214
 -90828299.43747 -70743448.98445  22152198.5554                   22152197.8914
 11  7 26  0 28 30.0000000  0  9G17G02G20G10G09G12G04G27G28
 -85851316.87947 -66844152.77746  21558561.9304                   21558560.3794
 -27532707.24647 -21404856.24246  21667244.3594                   21667241.8594
 -16428525.35546 -12763357.89843  24476243.3984                   24476243.1094
 -11539326.21947  -8950460.70744  22741428.7034                   22741429.2194
 -24376175.85947 -18945736.53545  21987072.2974                   21987071.7384
   3216051.22746   2556909.99643  24315205.8984                   24315206.8984
 -59597496.85248 -46384916.71946  19799816.8754                   19799815.7704
 -39321086.90247 -30592082.50045  22322983.2114                   22322983.2384
 -90880112.71547 -70783823.03545  22142338.6644                   22142337.9804
 11  7 26  0 29  0.0000000  0  9G17G02G20G10G09G12G04G27G28
 -85932839.36348 -66907676.83646  21543048.1564                   21543047.0864
 -27715124.47748 -21546999.48846  21632531.5314                   21632529.0434
 -16490335.37946 -12811521.58242  24464481.0004                   24464481.1724
 -11744361.87547  -9110228.64844  22702412.2114                   22702412.4184
 -24495233.35947 -19038508.62945  21964416.2814                   21964415.8874
   3003176.28546   2391033.45343  24274697.5704                   24274698.2774
 -59704938.91848 -46468637.78147  19779371.5004                   19779370.0354
 -39429090.46547 -30676241.12545  22302430.6884                   22302430.9924
 -90931462.67647 -70823836.07045  22132567.5394                   22132566.6564
 11  7 26  0 29 30.0000000  0  8G17G02G10G09G12G04G27G28
 -86014184.35948 -66971062.59846  21527568.9774                   21527567.4304
 -27897108.35247 -21688805.05546  21597901.0784                   21597898.0554
 -11949126.78947  -9269785.64544  22663445.8914                   22663446.8134
 -24613560.62147 -19130711.70745  21941899.3674                   21941899.2774
   2790396.16046   2225230.78543  24234206.5634                   24234207.5044
 -59811744.20348 -46551862.65246  19759046.6954                   19759045.8984
 -39536525.18747 -30759956.50045  22281986.7504                   22281986.3404
 -90982353.05947 -70863491.00845  22122883.3054                   22122882.7774
 11  7 26  0 30  0.0000000  0  8G17G02G10G09G12G04G27G28
 -84519928.11348 -65806707.10546  21811916.1804                   21811915.5474
 -26503231.01648 -20602666.80946  21863147.2734                   21863144.1884
 -10578189.89847  -8201523.04744  22924326.7584                   22924327.2664
 -23155733.17247 -17994742.28145  22219314.9064                   22219314.3674
   4153140.81346   3287109.77343  24493528.5394                   24493528.7934
 -58342489.38348 -45406988.74247  20038636.8364                   20038635.4384
 -38067967.33647 -29615625.71945  22561444.0314                   22561443.9224
 -89457361.73047 -69675186.13745  22413080.1174                   22413079.1604
 11  7 26  0 30 30.0000000  0  8G17G02G10G09G12G04G27G28
 -84600907.78148 -65869808.18446  21796506.3054                   21796504.9384
 -26684335.46148 -20743787.10246  21828683.8524                   21828681.4344
 -10782393.10247  -8360642.33644  22885467.8284                   22885469.1724
 -23272591.01647 -18085800.35245  22197077.4534                   22197076.7274
   3940566.07846   3121467.07443  24453076.2034                   24453076.3284
 -58448014.31648 -45489215.94946  20018556.2584                   20018554.9844
 -38174256.65647 -29698448.58245  22541218.1334                   22541217.8594
 -89507323.94947 -69714117.82845  22403572.2034                   22403572.0004
 11  7 26  0 31  0.0000000  0  8G17G02G10G09G12G04G27G28
 -84681696.60248 -65932760.52746  21781132.8754                   21781131.5004
 -26864990.64147 -20884557.32446  21794306.2894                   21794303.6844
 -10986302.69547  -8519532.80544  22846664.9844                   22846665.8634
 -23388707.26647 -18176280.55945  22174980.8834                   22174980.8754
   3728104.58247   2955912.62943  24412647.2424                   24412645.8984
 -58552892.95748 -45570939.55146  19998598.4144                   19998597.0004
 -38279966.64147 -29780820.00445  22521101.9384                   22521101.6414
 -89556814.94147 -69752682.30945  22394153.9304                   22394153.5234
 11  7 26  0 31 30.0000000  0  8G17G02G10G09G12G04G27G28
 -84762287.87948 -65995558.94146  21765796.7114                   21765795.2774
 -27045188.96948 -21024971.54346  21760015.7504                   21760012.9264
 -11189908.12147  -8678186.27344  22807920.1644                   22807920.7894
 -23504075.50047 -18266177.88345  22153027.4224                   22153026.7074
   3515765.30546   2790453.48843  24372239.8054                   24372240.5004
 -58657119.79748 -45652155.25847  19978764.6094                   19978763.4144
 -38385091.23047 -29862735.27745  22501097.4384                   22501097.0084
 -89605828.51247 -69790874.78545  22384828.1174                   22384827.0274
 11  7 26  0 32  0.0000000  0  8G17G02G10G09G12G04G27G28
 -84842684.66048 -66058205.78946  21750498.2274                   21750496.2344
 -27224932.80148 -21165031.61346  21725811.5554                   21725809.3634
 -11393209.28547  -8836602.65644  22769232.6724                   22769234.5314
 -23618699.53147 -18355495.29745  22131214.9064                   22131214.7814
   3303546.89146   2625088.53144  24331855.5704                   24331856.4024
 -58760699.06648 -45732866.37146  19959054.4144                   19959053.0554
 -38489634.44947 -29944197.54745  22481203.4224                   22481202.9964
 -89654368.09447 -69828697.90645  22375591.1094                   22375590.1724
 11  7 26  0 32 30.0000000  0  8G17G02G10G09G12G04G27G28
 -84922888.60247 -66120702.37146  21735235.9304                   21735233.8914
 -27404222.66448 -21304737.94546  21691693.9774                   21691690.8834
 -11596204.33247  -8994780.49644  22730604.4844                   22730605.2774
 -23732581.61347 -18444234.58645  22109544.2814                   22109543.6254
   3091449.67247   2459817.97344  24291495.5164                   24291496.6994
 -58863633.69548 -45813075.17246  19939466.4224                   19939465.3054
 -38593598.69547 -30025208.66845  22461419.7424                   22461419.3134
 -89702435.94547 -69866153.44945  22366443.8364                   22366442.9304
 11  7 26  0 33  0.0000000  0  8G17G02G10G09G12G04G27G28
 -85002901.27747 -66183049.91046  21720009.9224                   21720008.4964
 -27583059.53548 -21444091.29746  21657662.0784                   21657659.5784
 -11798892.07047  -9152718.87944  22692034.3914                   22692035.0164
 -23845724.13747 -18532397.59045  22088013.7504                   22088012.9654
   2879473.64847   2294641.91844  24251157.7504                   24251158.9264
 -58965926.86348 -45892784.14546  19920001.0474                   19919999.5704
 -38696986.89848 -30105770.92245  22441746.1254                   22441745.5824
 -89750034.43447 -69903243.25445  22357385.7034                   22357385.6994
 11  7 26  0 33 30.0000000  0  8G17G02G10G09G12G04G27G28
 -85082725.71147 -66245250.76646  21704819.6564                   21704818.3014
 -27761445.44148 -21583093.24246  21623716.6174                   21623713.7704
 -12001271.74247  -9310417.20344  22653522.6954                   22653523.1954
 -23958130.70347 -18619987.09845  22066623.4774                   22066622.8874
   2667618.17646   2129559.84444  24210843.0784                   24210844.2584
 -59067582.52748 -45971996.34446  19900656.2274                   19900655.1484
 -38799802.75848 -30185887.20745  22422181.0394                   22422179.9694
 -89797167.08647 -69939970.06245  22348417.4144                   22348416.6134
 11  7 26  0 34  0.0000000  0  8G17G02G10G09G12G04G27G28
 -85162362.41847 -66307305.32046  21689665.5084                   21689663.9384
 -27939380.20748 -21721743.63346  21589856.2584                   21589853.6174
 -12203340.31647  -9467873.12544  22615069.7974                   22615070.8364
 -24069802.77347 -18707004.28145  22045372.9774                   22045372.1294
   2455884.08247   1964572.32444  24170551.2034                   24170552.2814
 -59168602.66048 -46050713.34447  19881432.5314                   19881431.3444
 -38902047.98047 -30265558.83245  22402723.9774                   22402723.8444
 -89843835.12147 -69976334.84045  22339537.0234                   22339536.3794
 11  7 26  0 34 30.0000000  0  8G17G02G10G09G12G04G27G28
 -85241812.89848 -66369214.75846  21674546.3054                   21674544.9654
 -28116864.78947 -21860043.24646  21556082.0864                   21556079.3954
 -12405096.72347  -9625085.80544  22576676.9924                   22576677.9344
 -24180743.02747 -18793451.21545  22024261.8594                   22024260.9574
   2244271.36347   1799679.37544  24130283.3204                   24130283.3164
 -59268990.60248 -46128937.72747  19862329.4064                   19862328.2234
 -39003725.44147 -30344788.05945  22383375.1724                   22383374.7934
 -89890041.34447 -70012339.73445  22330743.8134                   22330743.4614
 11  7 26  0 35  0.0000000  0  8G17G02G10G09G12G04G27G28
 -85321083.17248 -66430983.77346  21659461.7814                   21659459.9924
 -28293904.27048 -21997996.03946  21522392.5164                   21522389.5944
 -12606542.86347  -9782056.74644  22538343.1024                   22538343.4884
 -24290957.96947 -18879332.97345  22003288.5164                   22003288.3324
   2032776.41046   1634878.28544  24090036.2344                   24090037.4454
 -59368753.45348 -46206675.02347  19843345.3524                   19843344.1214
 -39104841.75447 -30423580.00845  22364133.4694                   22364133.4304
 -89935791.77347 -70047989.47744  22322037.7504                   22322037.4734
 11  7 26  0 35 30.0000000  0  8G17G02G10G09G12G04G27G28
 -85400168.92648 -66492608.99646  21644412.2584                   21644410.7854
 -28470493.43748 -22135597.91446  21488788.5864                   21488786.0864
 -12807671.23447  -9938780.05944  22500069.3834                   22500070.3204
 -24400444.26647 -18964646.96145  21982454.3594                   21982453.5824
   1821405.36346   1470173.70744  24049814.7424                   24049814.5314
 -59467888.41448 -46283923.05546  19824480.9224                   19824479.2274
 -39205393.69547 -30501932.19145  22344999.3204                   22344998.4304
 -89981082.72747 -70083281.18044  22313419.1724                   22313418.6684
 11  7 26  0 36  0.0000000  0  8G17G02G10G09G12G04G27G28
 -85479063.88348 -66554085.57045  21629398.7344                   21629397.2304
 -28646625.82848 -22272843.87946  21455271.9694                   21455269.3554
 -13008472.60247 -10095248.57444  22461857.7584                   22461859.3444
 -24509196.57447 -19049388.99645  21961759.1884                   21961759.3094
   1610165.95346   1305571.72344  24009616.2344                   24009616.7934
 -59566390.68048 -46360678.07046  19805735.9384                   19805734.8014
 -39305376.45747 -30579840.86745  22325972.9534                   22325972.5474
 -90025908.82047 -70118210.64144  22304889.3914                   22304889.1484
 11  7 26  0 36 30.0000000  0  8G17G02G10G09G12G04G27G28
 -85557773.43748 -66615417.66046  21614420.9454                   21614419.6804
 -28822305.81247 -22409737.32046  21421841.3204                   21421838.6334
 -13208949.24247 -10251464.06644  22423708.9304                   22423708.8714
 -24617221.09847 -19133563.95745  21941203.2814                   21941202.4104
   1399054.79346   1141069.67244  23969443.3204                   23969443.1294
 -59664267.22748 -46436945.52347  19787110.8914                   19787109.2384
 -39404796.62148 -30657311.13745  22307054.3674                   22307053.3834
 -90070276.50847 -70152782.90245  22296447.0084                   22296446.7034
 11  7 26  0 37  0.0000000  0  8G17G02G10G09G12G04G27G28
 -84060880.71548 -65449007.71946  21899269.9844                   21899268.4574
 -27422112.47348 -21318677.52346  21688289.2114                   21688286.0474
 -11833676.62547  -9179822.98445  22685414.8284                   22685414.4264
 -23149101.16847 -17989574.37545  22220576.7584                   22220576.2344
   2763495.26247   2204270.18044  24229087.2194                   24229087.1414
 -58186101.96548 -45285128.44146  20068396.6484                   20068395.0204
 -37928237.88347 -29506745.91045  22588034.1954                   22588033.0864
 -88538771.16447 -68959402.16045  22587882.1954                   22587882.0164
 11  7 26  0 37 30.0000000  0  8G17G02G10G09G12G04G27G28
 -84139224.00448 -65510054.42646  21884362.2584                   21884360.2854
 -27596890.31248 -21454867.99246  21655029.6884                   21655027.4024
 -12033498.01647  -9335527.87944  22647389.5084                   22647389.4144
 -23255678.41447 -18072621.59445  22200295.6254                   22200295.2154
   2552641.71947   2039968.81343  24188963.2034                   24188962.3324
 -58282736.36348 -45360427.97347  20050007.3054                   20050006.3714
 -38026541.18447 -29583345.91845  22569327.2894                   22569326.7114
 -88582229.19547 -68993265.61745  22579612.3594                   22579611.7504
 11  7 26  0 38  0.0000000  0  8G17G02G10G09G12G04G27G28
 -84217386.41047 -65570960.18446  21869488.3134                   21869486.6214
 -27771217.99648 -21590707.69146  21621856.4144                   21621853.9064
 -12232988.62947  -9490975.02745  22609427.8524                   22609428.3164
 -23361535.66847 -18155107.75045  22180152.3444                   22180151.0124
   2341917.60947   1875768.30544  24148863.7664                   24148863.0824
 -58378754.05548 -45435246.96946  20031735.6884                   20031734.5634
 -38124289.80547 -29659513.70345  22550727.0084                   22550725.9104
 -88625235.61347 -69026777.15244  22571428.5084                   22571427.9614
 11  7 26  0 38 30.0000000  0  8G17G02G10G09G12G04G27G28
 -84295367.28948 -65631724.50046  21854648.2734                   21854646.9264
 -27945095.13748 -21726196.32846  21588768.4614                   21588765.7894
 -12432145.52747  -9646162.14544  22571529.2194                   22571529.5004
 -23466673.51247 -18237033.33245  22160145.1954                   22160144.3554
   2131325.34447   1711670.44143  24108789.5704                   24108787.0434
 -58474156.18448 -45509586.28546  20013581.6174                   20013580.0044
 -38221484.68047 -29735250.01645  22532230.9694                   22532230.3714
 -88667790.80147 -69059937.07845  22563330.8054                   22563329.8404
 11  7 26  0 39  0.0000000  0  8G17G02G10G09G12G04G27G28
 -84373167.93048 -65692348.38345  21839843.8674                   21839842.2234
 -28118522.12148 -21861334.18046  21555766.0474                   21555764.1134
 -12630966.24247  -9801087.30144  22533694.8284                   22533694.6134
 -23571094.35547 -18318400.23845  22140274.0084                   22140273.3674
   1920865.33247   1547675.60944  24068740.5164                   24068738.7774
 -58568945.81648 -45583448.34046  19995543.7194                   19995542.1914
 -38318128.32048 -29810556.76245  22513840.1644                   22513839.7624
 -88709896.64147 -69092746.86744  22555318.1564                   22555317.4804
 11  7 26  0 39 30.0000000  0  8G17G02G10G09G12G04G27G28
 -84450784.32448 -65752828.68746  21825073.7504                   21825072.0204
 -28291493.96148 -21996117.38746  21522850.6334                   21522848.0044
 -12829443.61347  -9955744.91845  22495925.9304                   22495926.3444
 -23674795.53947 -18399206.35245  22120540.8204                   22120540.0784
   1710543.79347   1383788.71543  24028716.9384                   24028715.8914
 -58663120.25848 -45656831.01646  19977622.9064                   19977621.8874
 -38414218.07048 -29885431.91845  22495555.0004                   22495555.4774
 -88751550.51647 -69125204.48444  22547391.9774                   22547391.3984
 11  7 26  0 40  0.0000000  0  8G17G02G10G09G12G04G27G28
 -84528221.11748 -65813169.06646  21810337.8914                   21810336.7034
 -28464015.28148 -22130549.53946  21490021.1484                   21490018.3794
 -13027579.30547 -10110136.28545  22458221.7584                   22458221.9384
 -23777782.92648 -18479456.27745  22100942.5394                   22100942.1684
   1500357.93047   1220007.53543  23988719.7424                   23988717.7544
 -58756686.00448 -45729739.37946  19959818.0474                   19959816.7854
 -38509759.96948 -29959880.17645  22477374.1484                   22477374.0594
 -88792757.91047 -69157314.19544  22539550.3914                   22539550.0314
 11  7 26  0 40 30.0000000  0  8G17G02G10G09G12G04G27G28
 -84605474.84048 -65873366.78146  21795637.4454                   21795635.8874
 -28636081.73448 -22264627.25446  21457278.2894                   21457275.1644
 -13225366.25047 -10264255.90245  22420584.2664                   22420584.5354
 -23880054.37947 -18559148.33245  22081480.5554                   22081480.6134
   1290312.79347   1056335.97344  23948749.5944                   23948748.2934
 -58849641.31248 -45802172.08246  19942128.9774                   19942127.9384
 -38604751.89847 -30033899.87545  22459297.5474                   22459297.6414
 -88833516.23447 -69189073.97344  22531794.5554                   22531793.8594
 11  7 26  0 41  0.0000000  0  8G17G02G10G09G12G04G27G28
 -84682550.00448 -65933425.37546  21780969.9694                   21780968.6844
 -28807697.23848 -22398353.57446  21424620.7734                   21424617.7034
 -13422805.81647 -10418104.82845  22383011.9064                   22383013.4494
 -23981615.41047 -18638286.81645  22062154.7504                   22062154.0044
   1080405.83647    892772.15644  23908805.3834                   23908804.3284
 -58941992.37548 -45874133.93047  19924555.0864                   19924554.1764
 -38699199.49647 -30107495.43045  22441324.6884                   22441324.8914
 -88873830.84447 -69220488.03944  22524122.9844                   22524122.7464
 11  7 26  0 41 30.0000000  0  8G17G02G10G09G12G04G27G28
 -84759444.09448 -65993342.87146  21766337.6254                   21766336.4344
 -28978859.23448 -22531726.52046  21392049.3134                   21392046.5824
 -13619892.45747 -10571678.75445  22345508.7274                   22345508.8954
 -24082465.17247 -18716871.05145  22042963.2274                   22042962.8484
    870641.57446    729319.52744  23868888.3284                   23868887.4414
 -59033738.48048 -45945624.39846  19907096.3674                   19907095.3284
 -38793102.11348 -30180666.32445  22423456.0164                   22423455.6644
 -88913700.46147 -69251555.33244  22516535.9304                   22516535.4654
 11  7 26  0 42  0.0000000  0  8G17G02G10G09G12G04G27G28
 -84836153.27047 -66053116.28146  21751740.9844                   21751739.3914
 -29149563.59448 -22664742.85246  21359565.2894                   21359562.9264
 -13816619.12947 -10724972.18445  22308072.0704                   22308073.0984
 -24182601.09448 -18794899.03945  22023908.5784                   22023907.4024
    661025.46946    565982.35944  23828999.1884                   23828999.5704
 -59124877.63748 -46016641.90246  19889752.9924                   19889752.1214
 -38886457.44547 -30253410.74245  22405690.7974                   22405690.8524
 -88953122.15647 -69282273.63744  22509033.9694                   22509033.8914
 11  7 26  0 42 30.0000000  0  8G17G02G10G09G12G04G27G28
 -84912679.69547 -66112747.28946  21737177.8914                   21737177.2934
 -29319811.46548 -22797403.48046  21327168.4454                   21327165.5664
 -14012984.80147 -10877984.30545  22270704.9774                   22270705.6524
 -24282026.97748 -18872373.76645  22004988.0944                   22004987.9804
    451557.24246    402760.44944  23789138.0704                   23789139.0984
 -59215413.94548 -46087189.66446  19872524.8054                   19872523.5944
 -38979269.38747 -30325731.75445  22388029.4924                   22388028.9654
 -88992099.60547 -69312645.75444  22501616.9694                   22501616.9494
 11  7 26  0 43  0.0000000  0  8G17G02G10G09G12G04G27G28
 -84989022.60547 -66172235.32046  21722650.6414                   21722648.6414
 -29489601.73848 -22929707.54346  21294858.7424                   21294855.8244
 -14208985.34447 -11030711.91845  22233407.1884                   22233407.5904
 -24380743.21547 -18949295.53545  21986203.1254                   21986203.1134
    242239.93046    239656.17244  23749307.3914                   23749307.6054
 -59305348.16048 -46157268.25446  19855411.0164                   19855409.7234
 -39071538.02048 -30397629.42645  22370471.7504                   22370471.1524
 -89030632.33647 -69342671.34444  22494284.7894                   22494284.0594
 11  7 26  0 43 30.0000000  0  8G17G02G10G09G12G04G27G28
 -85065179.37147 -66231578.28946  21708158.7274                   21708157.0164
 -29658931.72348 -23061652.94546  21262636.0944                   21262633.2734
 -14404614.97347 -11183150.51245  22196180.3754                   22196180.6374
 -24478748.80548 -19025663.54345  21967553.6024                   21967552.7734
     33077.83246     76672.79744  23709505.0234                   23709505.9654
 -59394679.64548 -46226877.18046  19838411.6094                   19838410.3014
 -39163262.55947 -30469103.10245  22353016.8524                   22353016.1454
 -89068719.25447 -69372349.55544  22487036.6024                   22487036.5664
 11  7 26  0 44  0.0000000  0  8G17G02G10G09G12G04G27G28
 -83565726.31647 -65063173.34046  21993495.0704                   21993493.8054
 -28252373.91448 -21965633.84446  21530294.9774                   21530292.2854
 -13024442.70747 -10107691.51645  22458817.8674                   22458818.6994
 -23000620.75848 -17873875.45345  22248831.9694                   22248831.3874
   1399501.05947   1141418.26644  23969527.0474                   23969527.6644
 -57907986.12548 -45068414.67246  20121320.2194                   20121318.6524
 -37679020.30147 -29312550.71945  22635458.9924                   22635458.8714
 -87530938.79347 -68174079.17644  22779667.1334                   22779666.8874
 11  7 26  0 44 30.0000000  0  8G17G02G10G09G12G04G27G28
 -83641510.38747 -65122225.91046  21979074.2194                   21979072.3634
 -28420781.41447 -22096860.43046  21498248.0864                   21498245.7424
 -13219320.69547 -10259544.41845  22421733.8284                   22421734.4884
 -23097209.08247 -17949139.10245  22230451.7504                   22230451.1764
   1190655.58247    978681.56644  23929784.5634                   23929786.4144
 -57996117.30948 -45137088.29746  20104548.9774                   20104548.0234
 -37769660.96147 -29383179.83245  22618210.5474                   22618210.7304
 -87568136.52047 -68203064.53144  22772588.0314                   22772588.7734
 11  7 26  0 45  0.0000000  0  8G17G02G10G09G12G04G27G28
 -83717108.30147 -65181133.41846  21964688.1724                   21964686.9024
 -28588727.26248 -22227727.27346  21466289.0634                   21466286.4804
 -13413818.66847 -10411101.18745  22384722.4144                   22384722.3874
 -23193091.63347 -18023852.77345  22212205.7664                   22212205.7344
    981970.76647    816070.08244  23890072.9924                   23890074.4654
 -58083651.40648 -45205296.66446  20087891.9844                   20087890.6024
 -37859762.25447 -29453388.64145  22601064.5944                   22601064.2384
 -87604891.83247 -68231705.12944  22765594.4304                   22765594.2194
 11  7 26  0 45 30.0000000  0  8G17G02G10G09G12G04G27G28
 -83792516.67247 -65239893.22746  21950338.6564                   21950337.3834
 -28756207.86748 -22358231.61346  21434418.5164                   21434415.6684
 -13607930.02747 -10562356.69545  22347784.2194                   22347784.4844
 -23288266.62148 -18098015.11345  22194094.6094                   22194094.4844
    773451.99247    653587.97344  23850393.9844                   23850393.8244
 -58170587.19548 -45273038.80146  20071348.5314                   20071347.4264
 -37949322.53547 -29523175.90645  22584021.9924                   22584022.2114
 -87641202.65247 -68259999.36744  22758684.8204                   22758684.6094
 11  7 26  0 46  0.0000000  0  8G17G02G10G09G12G04G27G28
 -83867735.01247 -65298504.95346  21936024.9844                   21936023.7464
 -28923222.50448 -22488372.84846  21402636.6644                   21402633.9024
 -13801651.24247 -10713308.21545  22310919.7274                   22310920.0704
 -23382735.23847 -18171627.01245  22176117.6334                   22176117.6724
    565101.67247    491237.09444  23810745.6644                   23810746.4264
 -58256925.84448 -45340315.64846  20054919.1884                   20054917.6334
 -38038343.01247 -29592542.52345  22567081.5864                   22567081.5514
 -87677069.50047 -68287947.66044  22751860.2814                   22751859.0394
 11  7 26  0 46 30.0000000  0  8G17G02G10G09G12G04G27G28
 -83942766.24647 -65356970.87146  21921746.8674                   21921745.4884
 -29089773.60948 -22618152.89546  21370943.1644                   21370940.2854
 -13994981.94947 -10863955.42245  22274130.5164                   22274130.7814
 -23476501.75847 -18244691.84445  22158274.9694                   22158274.3054
    356918.85247    329016.72344  23771129.9774                   23771129.6564
 -58342672.39848 -45407131.12546  20038601.4534                   20038600.3014
 -38126828.14547 -29661492.01645  22550243.8284                   22550243.5474
 -87712496.31647 -68315553.04744  22745118.0864                   22745117.6914
 11  7 26  0 47  0.0000000  0  8G17G02G10G09G12G04G27G28
 -84017603.53547 -65415285.65246  21907505.7664                   21907504.3404
 -29255854.14548 -22747566.26646  21339339.0944                   21339336.1094
 -14187912.01647 -11014290.45345  22237417.4534                   22237417.1994
 -23569561.07447 -18317205.59445  22140566.0164                   22140565.9454
    148912.48847    166933.88744  23731547.4064                   23731547.5434
 -58427821.80948 -45473481.29746  20022398.0314                   20022397.1334
 -38214772.79747 -29730020.36345  22533509.5554                   22533508.2154
 -87747477.23447 -68342811.02044  22738461.9614                   22738462.1254
 11  7 26  0 47 30.0000000  0  8G17G02G10G09G12G04G27G28
 -84092247.41047 -65473449.72745  21893301.6254                   21893300.1454
 -29421464.39548 -22876613.17246  21307824.4924                   21307821.1024
 -14380438.90247 -11164311.31645  22200780.3444                   22200781.1804
 -23661915.83647 -18389170.34845  22122992.1954                   22122991.3794
    -58916.25447      4989.40243  23691997.9384                   23691997.8674
 -58512376.92248 -45539368.39546  20006307.9304                   20006306.8754
 -38302179.33647 -29798129.37945  22516875.9844                   22516875.5124
 -87782014.37547 -68369723.14844  22731889.6174                   22731889.7544
 11  7 26  0 48  0.0000000  0  8G17G02G10G09G12G04G27G28
 -84166695.32447 -65531461.10245  21879134.5784                   21879133.4304
 -29586601.58648 -23005291.46546  21276399.8204                   21276396.7304
 -14572556.91447 -11314013.59045  22164221.5784                   22164221.4344
 -23753565.19947 -18460585.41445  22105550.6094                   22105550.8284
   -266562.98446   -156813.20344  23652484.6644                   23652485.0864
 -58596337.06248 -45604791.86347  19990330.8204                   19990330.2304
 -38389046.71547 -29865818.28945  22500345.4614                   22500345.1374
 -87816106.88747 -68396288.84044  22725402.1564                   22725402.4964
 11  7 26  0 48 30.0000000  0  8G17G02G10G09G12G04G27G28
 -84240952.34447 -65589323.71946  21865003.5474                   21865002.2734
 -29751270.70748 -23133605.02346  21245064.0634                   21245061.0784
 -14764268.29347 -11463398.99245  22127739.6724                   22127739.3554
 -23844515.79747 -18531456.00445  22088243.4844                   22088243.5594
   -474030.86347   -318476.41444  23613005.6484                   23613005.6414
 -58679709.29748 -45669757.23846  19974465.7504                   19974464.7154
 -38475382.26247 -29933092.75845  22483916.4454                   22483915.3554
 -87849760.81247 -68422512.74644  22718997.3984                   22718997.7194
 11  7 26  0 49  0.0000000  0  8G17G02G10G09G12G04G27G28
 -84315011.68447 -65647032.27745  21850911.1724                   21850909.2154
 -29915464.75448 -23261548.39846  21213818.9144                   21213816.0904
 -14955563.03947 -11612459.75045  22091338.0944                   22091337.6764
 -23934762.84847 -18601778.37145  22071070.2584                   22071070.0204
   -681311.03547   -479993.34844  23573560.8754                   23573560.8634
 -58762489.03148 -45734260.91846  19958713.3914                   19958712.0704
 -38561180.77347 -29999948.77744  22467589.4304                   22467589.1334
 -87882970.49247 -68448390.50044  22712678.9534                   22712678.7734
 11  7 26  0 49 30.0000000  0  8G17G02G10G09G12G04G27G28
 -84388868.04748 -65704582.67245  21836856.3674                   21836855.2734
 -30079178.28148 -23389117.34046  21182665.2424                   21182662.1684
 -15146433.23847 -11761189.70345  22055016.2194                   22055016.0904
 -24024303.18447 -18671550.06645  22054031.6174                   22054031.2304
   -888396.44547   -641358.52044  23534154.3054                   23534153.7114
 -58844673.09048 -45798300.43746  19943074.2114                   19943073.1644
 -38646438.95747 -30066383.72745  22451365.3754                   22451364.8714
 -87915732.23847 -68473919.21544  22706443.6484                   22706443.9844
 11  7 26  0 50  0.0000000  0  8G17G02G10G09G12G04G27G28
 -84462523.89547 -65761976.82445  21822840.3754                   21822838.7974
 -30242413.49648 -23516313.57046  21151602.5634                   21151599.6954
 -15336878.13747 -11909588.23445  22018775.5314                   22018775.4774
 -24113141.31247 -18740774.57845  22037126.2504                   22037125.4104
  -1095287.71547   -802572.41445  23494783.6564                   23494784.4224
 -58926266.20748 -45861879.48046  19927547.3524                   19927546.5554
 -38731161.28547 -30132401.14545  22435242.4694                   22435242.6054
 -87948049.73447 -68499101.75844  22700294.4304                   22700294.4064
 11  7 26  0 50 30.0000000  0  8G17G02G10G09G12G04G27G28
 -84535978.43747 -65819214.10545  21808862.3754                   21808860.9064
 -30405169.03548 -23643136.02346  21120631.0554                   21120628.0984
 -15526893.47347 -12057652.05545  21982617.0944                   21982616.9804
 -24201277.58647 -18809452.19945  22020354.4774                   22020353.9694
  -1301981.49647   -963632.42244  23455451.6484                   23455451.2974
 -59007269.00448 -45924998.54746  19912133.5944                   19912132.1684
 -38815348.20347 -30198001.36745  22419222.4384                   22419221.9844
 -87979923.30547 -68523938.37144  22694228.9144                   22694229.4694
 11  7 26  0 51  0.0000000  0  8G17G02G10G09G12G04G27G28
 -83033811.49647 -64648694.39546  22094715.5234                   22094714.1454
 -28992022.44948 -22541982.78546  21389543.9614                   21389541.6914
 -14141052.83647 -10977776.16445  22246333.5634                   22246333.5234
 -22713294.07047 -17649984.54345  22303508.1174                   22303507.6884
     66947.85247    103065.86344  23715949.9534                   23715949.6994
 -57512264.05148 -44760059.62546  20196623.2194                   20196622.1604
 -37323581.61747 -29035585.85244  22703096.5234                   22703096.0274
 -86435935.97347 -67320831.44144  22988041.0234                   22988040.8674
 11  7 26  0 51 30.0000000  0  8G17G02G10G09G12G04G27G28
 -83106864.94147 -64705619.15246  22080813.5554                   22080812.1254
 -29153821.19148 -22668059.66446  21358755.2344                   21358751.8284
 -14330202.24247 -11125165.24645  22210339.5004                   22210339.4384
 -22800035.47347 -17717575.25045  22287001.9454                   22287001.2624
   -139348.09447    -57684.15244  23676692.7114                   23676692.9264
 -57592095.71948 -44822266.12946  20181431.6804                   20181430.4304
 -37406705.80547 -29100357.95745  22687278.3054                   22687278.2194
 -86466927.91847 -67344981.10544  22982143.2274                   22982143.0164
 11  7 26  0 52  0.0000000  0  8G17G02G10G09G12G04G27G28
 -83179711.91447 -64762383.02045  22066951.2424                   22066949.6524
 -29315135.25448 -22793758.89146  21328057.8594                   21328054.8674
 -14518908.28947 -11272208.85245  22174430.3594                   22174429.7384
 -22886076.48447 -17784620.22345  22270628.7274                   22270628.2814
   -345436.06246   -218272.09844  23637475.3524                   23637475.1054
 -57671338.71148 -44884013.91447  20166352.2974                   20166351.0984
 -37489295.39547 -29164713.49644  22671562.7664                   22671561.5554
 -86497475.40647 -67368784.40644  22976329.7664                   22976329.6134
 11  7 26  0 52 30.0000000  0  8G17G02G10G09G12G04G27G28
 -83252352.60947 -64818986.14545  22053128.3444                   22053126.8204
 -29475964.37948 -22919080.23046  21297453.0634                   21297449.9494
 -14707168.06247 -11418904.71945  22138605.5474                   22138605.0394
 -22971419.32847 -17851121.16045  22254388.8914                   22254387.8524
   -551314.15247   -378696.49244  23598297.8134                   23598298.6484
 -57749995.42648 -44945304.87546  20151384.5084                   20151383.4024
 -37571352.74247 -29228654.28545  22655947.3444                   22655947.2894
 -86527579.69547 -67392242.38344  22970601.0634                   22970601.3984
 11  7 26  0 53  0.0000000  0  8G17G02G10G09G12G04G27G28
 -83324787.10547 -64875428.60245  22039344.3054                   22039343.0474
 -29636309.35548 -23044024.31646  21266940.1954                   21266937.6294
 -14894978.77747 -11565250.66845  22102865.8054                   22102866.0234
 -23056066.14147 -17917079.73845  22238280.6484                   22238280.6844
   -756980.65247   -538956.04344  23559160.8284                   23559161.7114
 -57828068.51648 -45006141.04346  20136527.5234                   20136526.7544
 -37652879.90247 -29292181.95345  22640433.3524                   22640433.4414
 -86557242.64547 -67415356.46144  22964957.0164                   22964956.6524
 11  7 26  0 53 30.0000000  0  8G17G02G10G09G12G04G27G28
 -83397018.99247 -64931713.19945  22025598.6954                   22025598.1054
 -29796173.33648 -23168593.60246  21236519.2664                   21236515.8324
 -15082340.76647 -11711246.96545  22067212.2504                   22067211.7344
 -23140022.72747 -17982500.50445  22222304.3284                   22222304.2664
   -962437.37147   -699052.14544  23520064.4844                   23520063.5354
 -57905563.83248 -45066527.00846  20121780.9534                   20121780.0944
 -37733882.43447 -29355300.79345  22625019.3054                   22625018.8914
 -86586469.23847 -67438130.52744  22959395.0784                   22959395.4224
 11  7 26  0 54  0.0000000  0  8G17G02G10G09G12G04G27G28
 -83469039.03547 -64987832.71145  22011894.3204                   22011892.9774
 -29955547.19948 -23292780.98846  21206191.4534                   21206188.3754
 -15269242.51647 -11856884.62145  22031645.6024                   22031645.8444
 -23223282.23847 -18047378.08245  22206461.1414                   22206460.1414
  -1167673.05947   -858975.99645  23481009.3754                   23481009.0274
 -57982474.30148 -45126457.24646  20107145.1644                   20107143.9344
 -37814353.29347 -29418005.36345  22609706.0234                   22609705.3164
 -86615251.83647 -67460558.62144  22953917.9534                   22953917.8484
 11  7 26  0 54 30.0000000  0  8G17G02G10G09G12G04G27G28
 -83540851.25047 -65043790.29745  21998228.9064                   21998227.3164
 -30114434.84848 -23416589.49646  21175955.9304                   21175952.9774
 -15455684.53947 -12002164.05145  21996166.7584                   21996166.2154
 -23305850.68047 -18111717.16445  22190748.4614                   22190748.6764
  -1372689.79347  -1018729.23845  23441995.6094                   23441995.6294
 -58058806.12548 -45185936.59446  20092619.7664                   20092618.7034
 -37894298.37947 -29480300.24645  22594492.9454                   22594492.4654
 -86643596.03147 -67482645.09844  22948524.4064                   22948524.0394
 11  7 26  0 55  0.0000000  0  8G17G02G10G09G12G04G27G28
 -83612457.25447 -65099587.18445  21984602.7504                   21984600.8204
 -30272838.16848 -23540020.59846  21145812.8754                   21145809.9614
 -15641665.71547 -12147084.36745  21960775.8204                   21960775.6024
 -23387732.11747 -18175520.92645  22175166.7034                   22175166.4064
  -1577487.44947  -1178311.72745  23403024.1254                   23403024.3674
 -58134563.16048 -45244968.05946  20078203.6644                   20078202.5704
 -37973721.55147 -29542188.44945  22579379.1414                   22579379.0704
 -86671504.63347 -67504392.14544  22943213.1954                   22943214.1374
 11  7 26  0 55 30.0000000  0  9G17G02G05G10G09G12G04G27G28
 -83683852.66847 -65155219.98045  21971016.6484                   21971014.9844
 -30430753.12148 -23663071.16446  21115762.6564                   21115759.6414
  12295439.67256   9631943.52053  24618745.0944                   24618748.6844
 -15827178.57847 -12291639.77045  21925474.0784                   21925473.7424
 -23468924.13347 -18238787.46945  22159716.8364                   22159716.2384
  -1782059.27047  -1337718.25845  23364095.4694                   23364095.4804
 -58209743.57848 -45303550.20746  20063897.3834                   20063896.0164
 -38052620.46947 -29603668.13744  22564365.0634                   22564365.5984
 -86698975.17247 -67525797.85944  22937986.6414                   22937986.4264
 11  7 26  0 56  0.0000000  0  9G17G02G05G10G09G12G04G27G28
 -83755044.95347 -65210694.50445  21957469.0084                   21957467.5514
 -30588186.36348 -23785746.37546  21085803.9304                   21085800.5204
  12080707.25846   9464619.94544  24577882.3364                   24577887.1484
 -16012227.82047 -12435833.89545  21890260.1334                   21890260.4184
 -23549436.50447 -18301524.43045  22144395.8674                   22144395.9414
  -1986410.73847  -1496953.05144  23325207.8594                   23325208.6254
 -58284356.77748 -45361690.37146  20049699.0554                   20049697.9184
 -38131004.51647 -29664746.64545  22549449.2974                   22549449.3794
 -86726016.59047 -67546869.17644  22932840.2114                   22932840.5554
 11  7 26  0 56 30.0000000  0  9G17G02G05G10G09G12G04G27G28
 -83826038.37148 -65266014.06645  21943959.6024                   21943958.1174
 -30745142.52348 -23908049.82446  21055936.1174                   21055933.3484
  11865995.78546   9297312.64543  24537023.0704                   24537028.1454
 -16196814.83647 -12579667.85545  21855134.5234                   21855134.4184
 -23629275.98447 -18363737.06245  22129203.0944                   22129202.6644
  -2190544.50047  -1656018.19944  23286362.3754                   23286362.7114
 -58358409.79348 -45419394.03146  20035607.1884                   20035605.6524
 -38208880.32447 -29725429.10545  22534630.0164                   22534629.6214
 -86752634.53147 -67567610.53144  22927775.2344                   22927776.1094
 11  7 26  0 57  0.0000000  0  9G17G02G05G10G09G12G04G27G28
 -83896836.02347 -65321181.09445  21930487.2274                   21930485.7114
 -30901625.23848 -24029984.36346  21026158.6024                   21026154.9144
  11651304.41446   9130020.96943  24496169.3444                   24496173.7274
 -16380939.76647 -12723141.72745  21820096.3914                   21820096.4654
 -23708448.20347 -18425429.73045  22114137.1334                   22114136.8524
  -2394461.61347  -1814914.52744  23247558.2034                   23247558.3244
 -58431908.03548 -45476665.38346  20021620.7344                   20021619.8954
 -38286253.11747 -29785719.64145  22519906.3834                   22519906.8524
 -86778834.09447 -67588025.87144  22922789.9304                   22922790.4384
 11  7 26  0 57 30.0000000  0  9G17G02G05G10G09G12G04G27G28
 -83967435.66047 -65376193.80145  21917052.5004                   21917050.5864
 -31057631.98048 -24151548.02346  20996471.1414                   20996468.5904
  11436637.62546   8962748.52044  24455318.4924                   24455323.9734
 -16564597.49247 -12866251.56645  21785147.5394                   21785147.2584
 -23786953.09047 -18486602.39145  22099198.8834                   22099198.2894
  -2598158.05147  -1973638.90244  23208796.5394                   23208795.9924
 -58504851.47348 -45533504.43746  20007740.2034                   20007739.1414
 -38363122.83247 -29845618.15645  22505279.0234                   22505278.7154
 -86804614.44947 -67608114.55544  22917884.0944                   22917883.9534
 11  7 26  0 58  0.0000000  0  9G17G02G05G10G09G12G04G27G28
 -82462414.20748 -64203449.80945  22203448.8984                   22203446.6214
 -29637737.14848 -23045136.42646  21266668.2344                   21266665.2114
  12797425.46146  10023102.98044  24714268.1724                   24714272.8324
 -15172358.53147 -11781389.94545  22050081.6484                   22050081.9344
 -22289369.76247 -17319654.38345  22384178.4304                   22384178.6764
  -1226204.00047   -904583.68444  23469870.4844                   23469870.4144
 -57001819.39848 -44362310.62146  20293757.6174                   20293756.8634
 -36864068.33647 -28677523.78545  22790539.4144                   22790539.7894
 -85254555.64547 -66400276.59843  23212850.2814                   23212850.6564
 11  7 26  0 58 30.0000000  0  9G17G02G05G10G09G12G04G27G28
 -82532612.05548 -64258149.44945  22190090.4844                   22190088.9414
 -29792787.24248 -23165954.63346  21237163.1724                   21237159.7624
  12582820.21547   9855878.41044  24673430.5474                   24673434.1254
 -15355067.92247 -11923760.80945  22015313.1174                   22015312.9224
 -22366542.00047 -17379788.60945  22369493.4774                   22369493.4494
  -1429446.99647  -1062954.76244  23431194.6644                   23431194.0434
 -57073654.96948 -44418286.39846  20280087.9224                   20280086.6134
 -36939932.91847 -28736639.07845  22776102.6024                   22776103.3634
 -85279496.94147 -66419711.45744  23208104.1954                   23208104.4884
 11  7 26  0 59  0.0000000  0  9G17G02G05G10G09G12G04G27G28
 -82602612.30148 -64312695.10945  22176769.7114                   22176768.5044
 -29947362.48448 -23286402.83246  21207748.3594                   21207745.4454
  12368245.78547   9688677.81344  24632598.4454                   24632601.6604
 -15537302.47347 -12065761.68445  21980634.7194                   21980634.9734
 -22443054.50847 -17439408.77345  22354933.1334                   22354933.8094
  -1632463.95747  -1221149.68445  23392561.6804                   23392560.6564
 -57144943.34448 -44473835.79346  20266522.2344                   20266521.0234
 -37015301.74247 -28795368.07045  22761760.4534                   22761760.5784
 -85304024.60547 -66438824.00443  23203437.0784                   23203437.2734
 11  7 26  0 59 30.0000000  0  9G17G02G05G10G09G12G04G27G28
 -82672409.63748 -64367082.68445  22163487.9144                   22163486.3054
 -30101457.64848 -23406476.94146  21178425.2114                   21178421.8244
  12153710.03947   9521507.37543  24591773.4774                   24591776.5744
 -15719053.40247 -12207385.69945  21946048.7814                   21946049.1254
 -22518904.71947 -17498512.87145  22340499.5944                   22340500.3324
  -1835247.13347  -1379162.44945  23353973.0004                   23353972.4774
 -57215681.58248 -44528956.50846  20253061.0704                   20253059.7194
 -37090171.58247 -28853708.27045  22747513.9774                   22747514.0554
 -85328134.77347 -66457611.24644  23198849.3674                   23198849.0514
 11  7 26  1  0  0.0000000  0  9G17G02G05G10G09G12G04G27G28
 -82742004.78948 -64421312.72345  22150244.6414                   22150243.1054
 -30255073.74648 -23526177.75046  21149192.4614                   21149189.4774
  11939214.37946   9354368.19943  24550955.9144                   24550959.7424
 -15900318.98047 -12348631.53545  21911555.3134                   21911555.5394
 -22594095.90647 -17557103.43745  22326190.6954                   22326191.5434
  -2037795.48047  -1536992.21545  23315429.5634                   23315429.1484
 -57285873.17248 -44583651.25046  20239703.9534                   20239702.8204
 -37164545.39547 -28911661.94545  22733361.0004                   22733360.8134
 -85351829.72347 -66476074.93044  23194339.7274                   23194340.2814
 11  7 26  1  0 30.0000000  0  9G17G02G05G10G09G12G04G27G28
 -82811395.67248 -64475383.56645  22137039.8524                   22137038.8244
 -30408209.00448 -23645503.88346  21120051.8914                   21120048.9414
  11724763.25846   9187263.70743  24510146.6254                   24510150.4304
 -16081094.19947 -12489495.27045  21877154.9924                   21877154.9184
 -22668628.59847 -17615180.90245  22312008.4224                   22312008.8014
  -2240105.12147  -1694635.98044  23276930.8834                   23276929.9654
 -57355518.32848 -44637920.20746  20226451.1884                   20226449.7424
 -37238423.62147 -28969229.43044  22719301.8364                   22719302.1294
 -85375109.60947 -66494215.20344  23189911.2274                   23189910.7464
 11  7 26  1  1  0.0000000  0  9G17G02G05G10G09G12G04G27G28
 -82880581.49247 -64529294.60945  22123874.0554                   22123872.6484
 -30560862.65648 -23764454.73846  21091002.9694                   21090999.7814
  11510359.27746   9020195.94943  24469346.3054                   24469350.1684
 -16261375.38347 -12629974.05145  21842848.0944                   21842848.3914
 -22742504.32047 -17672746.41445  22297950.0474                   22297950.2194
  -2442172.62147  -1852091.11345  23238479.0704                   23238477.6524
 -57424618.52348 -44691764.50446  20213301.6564                   20213300.6414
 -37311807.60947 -29026411.82445  22705337.0314                   22705337.6914
 -85397975.35547 -66512032.77044  23185558.6884                   23185559.0274
 11  7 26  1  1 30.0000000  0  9G17G02G05G10G09G12G04G27G28
 -82949563.38747 -64583046.76245  22110747.4384                   22110746.0514
 -30713036.63748 -23883031.82446  21062045.2114                   21062041.8284
  11296003.40646   8853165.67243  24428554.8134                   24428559.1724
 -16441161.41847 -12770067.00445  21808636.3284                   21808635.9184
 -22815727.05947 -17729803.14145  22284016.1334                   22284015.9884
  -2643998.14547  -2009357.64845  23200072.3834                   23200071.3594
 -57493178.07448 -44745187.52746  20200255.1564                   20200253.7114
 -37384701.16447 -29083212.04344  22691466.4534                   22691466.3134
 -85420429.83647 -66529529.87544  23181286.5004                   23181286.7274
 11  7 26  1  2  0.0000000  0  9G17G02G05G10G09G12G04G27G28
 -83018341.75447 -64636640.32445  22097659.6804                   22097658.3634
 -30864731.32048 -24001235.43446  21033178.7424                   21033175.4024
  11081697.82446   8686174.49643  24387773.7894                   24387777.4734
 -16620449.82447 -12909772.19545  21774518.7274                   21774518.6294
 -22888300.08247 -17786353.57445  22270206.1804                   22270206.6024
  -2845579.73847  -2166434.17645  23161713.6804                   23161711.5124
 -57561199.51648 -44798191.23446  20187311.2814                   20187310.3094
 -37457106.87147 -29139632.12544  22677687.8134                   22677687.9494
 -85442475.17247 -66546708.12944  23177091.1954                   23177091.4574
 11  7 26  1  2 30.0000000  0  9G17G02G05G10G09G12G04G27G28
 -83086919.27747 -64690077.37945  22084609.6484                   22084608.0314
 -31015949.65648 -24119067.86346  21004402.4774                   21004399.1524
  10867442.33646   8519222.47343  24347003.5864                   24347006.2154
 -16799240.39547 -13049089.46945  21740495.5784                   21740495.5984
 -22960228.35947 -17842401.60945  22256518.7114                   22256518.9574
  -3046917.96547  -2323321.09045  23123399.8594                   23123397.6374
 -57628687.85248 -44850779.53146  20174468.3984                   20174467.4654
 -37529029.43047 -29195675.75444  22664001.9224                   22664002.0314
 -85464115.78147 -66563571.03544  23172972.7034                   23172973.4454
 11  7 26  1  3  0.0000000  0  9G17G02G05G10G09G12G04G27G28
 -83155293.12547 -64743355.73845  22071598.4224                   22071596.8914
 -31166688.90648 -24236526.98846  20975718.0394                   20975714.4494
  10653242.22346   8352313.47743  24306241.2424                   24306244.5434
 -16977527.26247 -13188014.25445  21706569.0164                   21706569.0474
 -23031511.85947 -17897947.23045  22242953.5944                   22242954.2544
  -3248007.56647  -2480014.25045  23085134.0314                   23085131.5314
 -57695642.66848 -44902952.10946  20161727.8204                   20161726.5004
 -37600468.70347 -29251342.75844  22650407.5394                   22650407.2274
 -85485350.33647 -66580117.52044  23168931.7814                   23168932.9884
 11  7 26  1  3 30.0000000  0  9G17G02G05G10G09G12G04G27G28
 -83223460.58247 -64796473.24645  22058626.6484                   22058625.1454
 -31316946.98448 -24353611.16846  20947124.6094                   20947121.5824
  10439101.89146   8185451.18843  24265491.9694                   24265495.5434
 -17155305.38747 -13326542.60945  21672738.9384                   21672738.6564
 -23102150.73847 -17952990.53545  22229511.5164                   22229511.9264
  -3448844.43747  -2636510.52344  23046915.3834                   23046913.0864
 -57762064.19948 -44954709.12146  20149087.6724                   20149086.2504
 -37671424.31647 -29306632.90244  22636904.9384                   22636905.3554
 -85506178.47747 -66596347.34444  23164969.5784                   23164969.8134
 11  7 26  1  4  0.0000000  0  9G17G02G05G10G09G12G04G27G28
 -83291424.28947 -64849431.99645  22045693.3984                   22045692.3674
 -31466726.90248 -24470322.75046  20918622.6804                   20918619.9414
  10225021.19146   8018635.34443  24224753.1724                   24224756.5664
 -17332574.83647 -13464674.59445  21639005.4924                   21639005.8134
 -23172150.39147 -18007535.76645  22216191.6334                   22216191.3094
  -3649429.34447  -2792810.42644  23008745.4694                   23008743.1134
 -57827957.57448 -45006054.59846  20136548.7034                   20136547.2704
 -37741901.64547 -29361550.37944  22623493.2734                   22623494.2544
 -85526604.71147 -66612263.97344  23161081.8754                   23161082.8984
 11  7 26  1  4 30.0000000  0  9G17G02G05G10G09G12G04G27G28
 -83359186.83247 -64902233.98445  22032798.3984                   22032797.6684
 -31616032.06248 -24586664.40246  20890210.5864                   20890207.5274
  10010999.23846   7851865.25444  24184026.2344                   24184029.5474
 -17509336.02347 -13602410.52745  21605368.9844                   21605368.8594
 -23241516.57447 -18061587.35245  22202991.7344                   22202991.2934
  -3849763.26647  -2948914.78144  22970623.1564                   22970621.1414
 -57893328.37148 -45056992.86346  20124108.8444                   20124108.0004
 -37811906.37947 -29416099.57044  22610172.2974                   22610172.5204
 -85546633.82046 -66627871.15643  23157270.3834                   23157270.5594
 11  7 26  1  5  0.0000000  0  9G17G02G05G10G09G12G04G27G28
 -83426747.36348 -64954878.54345  22019942.1174                   22019940.8094
 -31764861.39548 -24702635.26646  20861889.5474                   20861885.9224
   9797040.28546   7685144.26643  24143310.7734                   24143313.6604
 -17685584.48847 -13739746.93045  21571830.0314                   21571829.4694
 -23310250.46947 -18115146.25845  22189911.7504                   22189911.6844
  -4049842.29347  -3104820.46944  22932549.2974                   22932547.6094
 -57958177.57448 -45107524.69546  20111768.7424                   20111767.8714
 -37881438.91847 -29470280.81644  22596940.7424                   22596941.0984
 -85566266.05546 -66643169.12544  23153535.5944                   23153536.5274
 11  7 26  1  5 30.0000000  0  9G17G02G05G10G09G12G04G27G28
 -81918683.21548 -63779763.60245  22306917.6724                   22306916.6334
 -30337789.68048 -23590631.30546  21133451.9924                   21133448.7464
  11158573.82846   8746079.76244  24402402.5634                   24402405.3364
 -16285891.32047 -12649076.86745  21838182.5004                   21838182.6884
 -21802932.21547 -16940612.57045  22476745.0004                   22476744.9574
  -2674237.55947  -2032920.66444  23194317.8284                   23194316.0164
 -56447085.21948 -43930050.13346  20399319.8984                   20399318.9184
 -36375079.24247 -28296494.09844  22883591.7424                   22883591.5394
 -84010082.07446 -65430558.31643  23449666.6334                   23449667.3874
 11  7 26  1  6  0.0000000  0  9G17G02G05G10G09G12G04G27G28
 -81985841.21947 -63832094.50445  22294137.7664                   22294136.2814
 -30485669.85548 -23705862.57446  21105311.6804                   21105308.0904
  10944745.49646   8579460.53544  24361712.0944                   24361715.2504
 -16461108.39847 -12785609.58245  21804840.2194                   21804839.7544
 -21870411.82447 -16993194.10945  22463903.6724                   22463904.4104
  -2873803.09847  -2188426.25045  23156341.9774                   23156340.5554
 -56510900.71548 -43979776.47746  20387176.4224                   20387174.8954
 -36443677.07447 -28349947.00044  22870537.8204                   22870538.4774
 -84028927.95346 -65445243.52343  23446080.6484                   23446081.1564
 11  7 26  1  6 30.0000000  0  9G17G02G05G10G09G12G04G27G28
 -82052799.76248 -63884269.96545  22281396.1174                   22281394.8954
 -30633078.68448 -23820726.55946  21077260.3364                   21077256.7854
  10730983.53946   8412893.04744  24321034.1484                   24321037.4924
 -16635808.06247 -12921739.11345  21771595.7194                   21771595.2154
 -21937270.79747 -17045292.00045  22451181.2344                   22451181.3794
  -3073110.95347  -2343731.04345  23118414.6334                   23118412.6914
 -56574205.78548 -44029105.09846  20375130.0164                   20375128.2854
 -36511813.55547 -28403040.40644  22857571.9774                   22857571.9454
 -84047386.27746 -65459626.70343  23442567.2114                   23442569.0394
 11  7 26  1  7  0.0000000  0  9G17G02G05G10G09G12G04G27G28
 -82119559.84447 -63936290.78545  22268691.8204                   22268690.6684
 -30780017.02048 -23935223.93746  21049299.1644                   21049295.8714
  10517289.53146   8246378.47743  24280368.1024                   24280372.1024
 -16809988.78947 -13057464.27345  21738450.0164                   21738449.8404
 -22003512.59447 -17096908.99645  22438575.6954                   22438576.0984
  -3272159.89847  -2498834.07045  23080537.1334                   23080535.6604
 -56637003.42248 -44078038.32846  20363179.7194                   20363178.6094
 -36579491.82047 -28455776.71944  22844692.9924                   22844692.6024
 -84065459.29747 -65473709.67643  23439129.5314                   23439129.8874
 11  7 26  1  7 30.0000000  0  9G17G02G05G10G09G12G04G27G28
 -82186120.25447 -63988156.02045  22256026.0474                   22256024.6484
 -30926484.23448 -24049354.19546  21021427.1884                   21021423.5164
  10303667.03246   8079919.66344  24239717.9694                   24239721.1054
 -16983646.44947 -13192781.84845  21705403.9844                   21705403.8134
 -22069139.29747 -17148046.70345  22426087.4534                   22426087.3834
  -3470946.58247  -2653732.72344  23042709.0004                   23042706.9344
 -56699295.35248 -44126577.50046  20351325.9774                   20351324.8754
 -36646713.52347 -28508157.30144  22831901.1724                   22831901.1414
 -84083147.81646 -65487493.05943  23435763.5164                   23435764.0204
 11  7 26  1  8  0.0000000  0  9G17G02G05G10G09G12G04G27G28
 -82252485.28547 -64039869.01245  22243396.5004                   22243395.3324
 -31072485.50448 -24163121.37946  20993644.2894                   20993640.7234
  10090113.71146   7913514.73043  24199079.7894                   24199082.7974
 -17156783.23447 -13327693.55145  21672457.4774                   21672456.7664
 -22134158.40647 -17198710.94945  22413714.2034                   22413714.3524
  -3669474.03147  -2808429.36745  23004930.7504                   23004928.6454
 -56761088.72348 -44174728.18046  20339566.7974                   20339565.7734
 -36713485.78547 -28560187.65244  22819195.1484                   22819195.0784
 -84100458.56246 -65500982.03543  23432468.9534                   23432470.0864
 11  7 26  1  8 30.0000000  0  9G17G02G05G10G09G12G04G27G28
 -82318652.34447 -64091427.74245  22230805.9304                   22230804.3834
 -31218018.14848 -24276523.40246  20965950.0234                   20965946.4534
   9876635.21946   7747168.13343  24158455.3364                   24158458.8754
 -17329393.14847 -13462194.71145  21639610.7504                   21639610.0944
 -22198569.27047 -17248901.25045  22401458.0474                   22401458.2934
  -3867736.76647  -2962919.72745  22967202.1724                   22967200.4884
 -56822383.00048 -44222489.96946  20327903.2344                   20327902.1524
 -36779807.74247 -28611867.09445  22806574.0634                   22806574.7854
 -84117390.07047 -65514175.53143  23429247.5554                   23429247.7734
 11  7 26  1  9  0.0000000  0  9G17G02G05G10G09G12G04G27G28
 -82384620.88348 -64142831.79345  22218252.0234                   22218251.0824
 -31363082.16048 -24389560.25846  20938345.3754                   20938341.9064
   9663234.11746   7580881.83643  24117846.8594                   24117849.8714
 -17501473.55147 -13596283.25445  21606864.7814                   21606863.9734
 -22262374.98047 -17298619.99645  22389316.0554                   22389316.0704
  -4065732.43047  -3117201.95745  22929524.6644                   22929523.4774
 -56883180.38748 -44269864.55946  20316333.9454                   20316332.4414
 -36845681.74247 -28663197.50044  22794039.2274                   22794039.0044
 -84133944.00046 -65527074.84043  23426097.2974                   23426097.8674
 11  7 26  1  9 30.0000000  0  9G17G02G05G10G09G12G04G27G28
 -82450392.56247 -64194082.42645  22205736.5864                   22205735.0274
 -31507680.01248 -24502233.86346  20910829.4384                   20910825.9344
   9449910.80546   7414656.17644  24077253.2814                   24077255.3014
 -17673023.62147 -13729958.55145  21574219.5084                   21574219.1094
 -22325580.25047 -17347870.83245  22377287.8914                   22377288.7544
  -4263460.76247  -3271275.85245  22891898.3204                   22891898.0744
 -56943485.50448 -44316855.55946  20304858.2504                   20304856.8714
 -36911112.23847 -28714182.32444  22781588.1024                   22781588.3324
 -84150124.44547 -65539683.08643  23423018.6334                   23423019.8444
 11  7 26  1 10  0.0000000  0  9G17G02G05G10G09G12G04G27G28
 -82515968.43447 -64245180.48045  22193257.5234                   22193256.1414
 -31651813.12148 -24614545.34046  20883401.6644                   20883398.4104
   9236666.93047   7248492.29744  24036674.4144                   24036676.2034
 -17844042.07847 -13863219.60945  21541675.9064                   21541675.1604
 -22388189.16447 -17396657.03145  22365374.3674                   22365374.2384
  -4460920.86347  -3425140.75445  22854323.1644                   22854322.1564
 -57003301.89848 -44363465.73446  20293475.4844                   20293474.0314
 -36976103.04347 -28764824.54744  22769221.1884                   22769221.3324
 -84165934.07846 -65552002.37143  23420010.1334                   23420010.8834
 11  7 26  1 10 30.0000000  0  9G17G02G05G10G09G12G04G27G28
 -82581349.18747 -64296126.53145  22180815.4384                   22180814.8014
 -31795482.87948 -24726495.76246  20856061.9694                   20856058.8634
   9023504.05146   7082391.64544  23996109.5704                   23996113.2344
 -18014527.11347 -13996065.01245  21509233.9224                   21509233.6094
 -22450205.71547 -17444981.60545  22353573.3364                   22353572.6684
  -4658111.34847  -3578795.55145  22816799.3594                   22816797.9964
 -57062633.14548 -44409697.87946  20282184.9064                   20282183.8874
 -37040657.56247 -28815126.78944  22756936.4774                   22756936.7584
 -84181376.01646 -65564035.20343  23417071.8054                   23417072.6054
 11  7 26  1 11  0.0000000  0  9G17G02G05G10G09G12G04G27G28
 -82646534.37147 -64346920.17245  22168411.4224                   22168410.3754
 -31938689.75448 -24838085.48846  20828810.8754                   20828807.3674
   8810424.40646   6916355.81644  23955561.9844                   23955565.3134
 -18184476.12147 -14128492.74245  21476893.3364                   21476892.4024
 -22511632.53147 -17492846.67644  22341883.9224                   22341883.3524
  -4855030.16847  -3732238.68745  22779326.3284                   22779325.5474
 -57121481.73848 -44455553.93046  20270986.5784                   20270985.4884
 -37104778.22347 -28865090.96544  22744734.7814                   22744734.3984
 -84196452.38346 -65575783.13743  23414202.2194                   23414204.1214
 11  7 26  1 11 30.0000000  0  9G17G02G05G10G09G12G04G27G28
 -82711520.77047 -64397558.93445  22156045.3364                   22156043.9844
 -32081430.80948 -24949312.24646  20801648.1484                   20801644.1414
   8597433.66447   6750389.23044  23915031.1644                   23915034.1254
 -18353882.87547 -14260497.93445  21444656.3914                   21444655.7544
 -22572468.93747 -17540251.66445  22330307.3444                   22330306.4224
  -5051671.71947  -3885465.77345  22741906.4064                   22741905.9304
 -57179846.69548 -44501033.13346  20259880.1414                   20259878.9734
 -37168464.09047 -28914716.32444  22732615.7504                   22732615.2344
 -84211161.12946 -65587244.60943  23411404.1804                   23411404.6214
 11  7 26  1 12  0.0000000  0  9G17G02G05G10G09G12G04G27G28
 -82776315.84047 -64448048.61345  22143714.7734                   22143713.6484
 -32223714.03948 -25060182.25446  20774572.3914                   20774568.5944
   8384527.02347   6584488.22344  23874516.4924                   23874518.6884
 -18522752.47347 -14392084.56245  21412521.8674                   21412520.8594
 -22632725.56647 -17587204.90245  22318840.1724                   22318840.4494
  -5248041.39847  -4038481.00445  22704538.0634                   22704537.8874
 -57237738.18448 -44546143.39546  20248863.8364                   20248862.3754
 -37231725.52347 -28964011.00445  22720576.9304                   22720577.8834
 -84225511.61346 -65598426.91443  23408672.7664                   23408673.9454
 11  7 26  1 12 30.0000000  0  9G17G02G05G10G09G12G04G27G28
 -81265494.35547 -63270785.11345  22431214.8914                   22431213.3794
 -30790112.61748 -23943090.19546  21047377.6724                   21047374.0664
   9747136.43847   7646262.01244  24133811.7034                   24133814.6764
 -17115654.13747 -13295644.23845  21680283.4304                   21680282.6644
 -21116981.23447 -16406105.41045  22607277.1724                   22607277.1174
  -3868707.82447  -2963675.51245  22967017.2734                   22967016.2854
 -55719734.53548 -43363283.42646  20537730.3674                   20537729.4734
 -35719140.35247 -27785373.24645  23008413.2814                   23008412.9104
 -82664083.08246 -64381729.46943  23705803.2664                   23705804.3834
 11  7 26  1 13  0.0000000  0  9G17G02G05G10G09G12G04G27G28
 -81329903.54348 -63320974.10945  22418958.5864                   22418956.7464
 -30931479.51248 -24053246.20346  21020476.5234                   21020472.8984
   9534407.52747   7480499.49644  24093330.6724                   24093333.5554
 -17283439.49247 -13426386.00845  21648354.6094                   21648353.9064
 -21176085.54747 -16452160.71544  22596029.9304                   22596029.5784
  -4064524.93047  -3116260.18745  22929754.0394                   22929753.3984
 -55776684.94948 -43407660.37946  20526893.0164                   20526891.7624
 -35781558.33247 -27834010.64845  22996535.4224                   22996534.6214
 -82677721.56246 -64392356.96943  23703207.5864                   23703209.4104
 11  7 26  1 13 30.0000000  0  9G17G02G05G10G09G12G04G27G28
 -81394117.66447 -63371011.10945  22406738.6254                   22406737.3834
 -31072386.67648 -24163043.96146  20993662.8284                   20993659.2464
   9321773.36346   7314810.78544  24052867.3524                   24052870.3284
 -17450676.57447 -13556700.54345  21616530.1804                   21616529.6054
 -21234615.87947 -16497768.77344  22584891.9924                   22584892.0514
  -4260060.35547  -3268625.38745  22892544.4774                   22892544.6374
 -55833166.40248 -43451671.92246  20516145.0634                   20516144.0274
 -35843556.30547 -27882320.82844  22984737.2504                   22984737.7424
 -82691004.98846 -64402707.79743  23700679.9694                   23700681.8054
 11  7 26  1 14  0.0000000  0  9G17G02G05G10G09G12G04G27G28
 -81458143.17247 -63420901.11345  22394554.9534                   22394553.8554
 -31212841.74648 -24272489.44146  20966934.6414                   20966931.3134
   9109229.53146   7149192.45744  24012421.7344                   24012423.9534
 -17617370.03547 -13686591.50045  21584809.7734                   21584809.3244
 -21292582.43447 -16542937.52745  22573861.6644                   22573860.9884
  -4455318.76647  -3420774.73445  22855388.5944                   22855388.0554
 -55889188.53948 -43495325.55146  20505484.4694                   20505483.2194
 -35905143.65647 -27930310.99644  22973017.5164                   22973017.9184
 -82703942.10546 -64412788.71543  23698218.5554                   23698219.8284
 11  7 26  1 14 30.0000000  0  9G17G02G05G10G09G12G04G27G28
 -81521971.73447 -63470637.67245  22382409.3674                   22382408.1054
 -31352836.77048 -24381576.44946  20940294.5314                   20940290.9924
   8896786.95746   6983653.05144  23971995.2274                   23971997.2034
 -17783509.12147 -13816050.46145  21553194.9614                   21553193.8244
 -21349979.84847 -16587662.81244  22562938.8134                   22562938.6094
  -4650289.59847  -3572699.98445  22818286.9454                   22818285.9734
 -55944745.46148 -43538616.67646  20494912.4304                   20494910.7934
 -35966314.50447 -27977976.63344  22961377.2504                   22961376.8594
 -82716526.31646 -64422594.67243  23695823.8674                   23695824.5664
 11  7 26  1 15  0.0000000  0  9G17G02G05G10G09G12G04G27G28
 -81585608.39847 -63520224.68045  22370299.6174                   22370298.3054
 -31492377.79748 -24490309.68046  20913740.7504                   20913737.3674
   8684442.72346   6818190.23044  23931585.9614                   23931589.3834
 -17949096.80547 -13945079.77345  21521684.5944                   21521684.1484
 -21406816.55147 -16631951.14544  22552123.5164                   22552122.3444
  -4844976.10247  -3724403.69145  22781238.8444                   22781238.0704
 -55999845.34848 -43581551.65646  20484427.4384                   20484425.7624
 -36027076.80547 -28025323.92245  22949814.4454                   22949814.8794
 -82728765.23046 -64432131.56643  23693495.3204                   23693496.2194
 11  7 26  1 15 30.0000000  0  9G17G02G05G10G09G12G04G27G28
 -81649050.49647 -63569660.09845  22358226.5944                   22358225.7814
 -31631462.60248 -24598687.42246  20887273.5784                   20887270.6884
   8472201.82046   6652807.92643  23891197.8834                   23891200.5664
 -18114127.89147 -14073675.36746  21490279.5704                   21490279.1214
 -21463093.13747 -16675803.05544  22541414.8524                   22541413.2274
  -5039373.68447  -3875882.27045  22744245.8984                   22744245.0044
 -56054488.17648 -43624130.49646  20474028.8754                   20474027.8014
 -36087431.04747 -28072353.23444  22938329.1094                   22938330.4924
 -82740658.46146 -64441399.07443  23691231.9454                   23691233.0354
 11  7 26  1 16  0.0000000  0  9G17G02G05G10G09G12G04G27G28
 -81712300.38747 -63618945.74245  22346190.6024                   22346189.3204
 -31770094.18048 -24706711.98846  20860893.2974                   20860889.8834
   8260064.28947   6487506.19944  23850830.3204                   23850831.9304
 -18278602.17647 -14201837.09045  21458981.4144                   21458981.1294
 -21518814.85947 -16719222.58244  22530810.5554                   22530810.5164
  -5233482.33247  -4027135.68045  22707309.1334                   22707308.1054
 -56108678.62148 -43666356.83246  20463716.9304                   20463715.6374
 -36147382.12147 -28119068.37144  22926921.4224                   22926921.5594
 -82752210.20746 -64450400.50043  23689034.0084                   23689034.4104
 11  7 26  1 16 30.0000000  0  9G17G02G05G10G09G12G04G27G28
 -81775356.75447 -63668080.57445  22334191.0704                   22334189.9454
 -31908272.22748 -24814383.16446  20834598.4384                   20834595.4574
   8048033.89547   6322287.94944  23810481.3594                   23810483.7664
 -18442516.24247 -14329562.29745  21427789.7894                   21427789.0864
 -21573983.82847 -16762211.41445  22520312.8204                   22520312.2734
  -5427298.75847  -4178161.44145  22670426.9144                   22670424.6954
 -56162418.62948 -43708232.15646  20453490.6414                   20453489.1954
 -36206931.52047 -28165470.53144  22915589.5634                   22915589.4144
 -82763421.53546 -64459136.67643  23686900.3204                   23686901.3674
 11  7 26  1 17  0.0000000  0  9G17G02G05G10G09G12G04G27G28
 -81838221.43048 -63717066.04745  22322228.6644                   22322227.4884
 -32045999.62948 -24921703.20346  20808389.9144                   20808386.5474
   7836110.94147   6157153.39544  23770153.7814                   23770156.0784
 -18605870.04347 -14456850.92646  21396704.5084                   21396703.9344
 -21628605.63747 -16804773.90244  22509917.9384                   22509917.9304
  -5620822.89547  -4328959.43745  22633599.5474                   22633598.4454
 -56215712.95748 -43749760.20746  20443349.0314                   20443347.8634
 -36266084.39147 -28211563.69944  22904332.4224                   22904333.7304
 -82774296.67247 -64467610.87543  23684831.7974                   23684831.7774
 11  7 26  1 17 30.0000000  0  9G17G02G05G10G09G12G04G27G28
 -81900894.16047 -63765901.94545  22310302.9774                   22310301.0124
 -32183276.55548 -25028672.22346  20782267.0864                   20782263.8324
   7624298.05147   5992104.61344  23729847.0084                   23729848.7544
 -18768661.13347 -14583701.09045  21365725.9534                   21365725.8834
 -21682683.30147 -16846912.35544  22499627.1024                   22499626.6454
  -5814052.38747  -4479527.81645  22596830.2814                   22596828.4964
 -56268563.91048 -43790942.76246  20433291.4774                   20433290.4414
 -36324843.12147 -28257349.75844  22893151.5234                   22893151.7504
 -82784837.78546 -64475824.78143  23682824.4454                   23682825.3914
 11  7 26  1 18  0.0000000  0  9G17G02G05G10G09G12G04G27G28
 -81963378.08248 -63814590.71545  22298412.6564                   22298410.7114
 -32320107.07848 -25135293.38746  20756229.3754                   20756225.5514
   7412594.62547   5827141.16844  23689560.7814                   23689563.4694
 -18930890.04347 -14710113.17646  21334855.2114                   21334854.2854
 -21736223.23047 -16888631.80145  22489439.5784                   22489438.8794
  -6006988.40247  -4629867.55945  22560115.1804                   22560113.7154
 -56320977.59448 -43831784.58246  20423317.3134                   20423316.2584
 -36383213.71547 -28302833.34444  22882043.9454                   22882044.1484
 -82795049.72346 -64483782.22343  23680882.0394                   23680882.7734
 11  7 26  1 18 30.0000000  0  9G17G02G05G10G09G12G04G27G28
 -82025669.39148 -63863129.38745  22286558.3594                   22286556.8014
 -32456488.46948 -25241564.55946  20730276.4614                   20730273.2974
   7201006.39147   5662267.46144  23649297.1804                   23649299.5664
 -19092551.24647 -14836082.88745  21304091.9454                   21304091.1914
 -21789225.14147 -16929932.03144  22479353.6254                   22479353.3204
  -6199625.48847  -4779974.32845  22523458.2894                   22523455.3014
 -56372953.32848 -43872285.14146  20413426.7734                   20413425.7234
 -36441195.71147 -28348014.15644  22871010.1644                   22871011.2464
 -82804931.48846 -64491482.37543  23679000.7974                   23679002.6804
 11  7 26  1 19  0.0000000  0  9G17G02G05G10G09G12G04G27G28
 -82087767.92248 -63911517.85245  22274742.1174                   22274740.5434
 -32592420.94148 -25347485.92646  20704408.9844                   20704405.7774
   6989536.36747   5497485.86744  23609055.5474                   23609057.3634
 -19253641.88747 -14961608.01245  21273436.9774                   21273436.5124
 -21841691.84447 -16970815.23044  22469369.6644                   22469368.6564
  -6391960.69147  -4929845.86345  22486857.0234                   22486855.8794
 -56424493.10948 -43912446.00046  20403619.3674                   20403618.2384
 -36498791.00447 -28392893.60244  22860050.2664                   22860050.9924
 -82814484.82846 -64498926.60943  23677183.6644                   23677184.2344
 11  7 26  1 19 30.0000000  0  9G17G02G05G10G09G12G04G27G28
 -82149676.23047 -63959758.09445  22262960.6724                   22262959.4064
 -32727908.12548 -25453060.30946  20678627.1884                   20678623.3914
   6778184.03947   5332795.98044  23568836.4384                   23568838.2114
 -19414162.99247 -15086689.33245  21242891.2344                   21242890.2934
 -21893629.70347 -17011286.30145  22459486.1724                   22459485.9614
  -6583995.02347  -5079482.97745  22450314.4064                   22450312.0824
 -56475602.66048 -43952271.61746  20393893.6414                   20393892.4574
 -36556005.50047 -28437476.33644  22849163.3914                   22849163.8954
 -82823714.89846 -64506118.91443  23675427.1334                   23675427.7234
 11  7 26  1 20  0.0000000  0  9G17G02G05G10G09G12G04G27G28
 -80635965.16048 -62780242.99645  22551010.6094                   22551009.7154
 -31287519.00048 -24330679.14546  20952723.9774                   20952720.1764
   8142385.99247   6395810.73844  23828435.0864                   23828437.4694
 -17998679.32848 -13983714.98846  21512248.5314                   21512247.9574
 -20369612.91447 -15823740.78945  22749496.8524                   22749496.1644
  -5200292.67247  -4001273.30145  22713624.3984                   22713622.4574
 -54950855.93748 -42764157.28546  20684042.9224                   20684041.9534
 -35037413.05147 -27254157.55544  23138141.8364                   23138141.9654
 -81257196.33246 -63285455.21143  23973525.5704                   23973526.3984
 11  7 26  1 20 30.0000000  0  9G17G02G05G10G09G12G04G27G28
 -80697478.21547 -62828175.27345  22539305.3754                   22539303.8164
 -31422103.02348 -24435549.80146  20927113.6414                   20927109.9964
   7931291.18047   6231321.52344  23788265.0784                   23788266.1954
 -18158039.16847 -14107891.41845  21481923.9304                   21481922.4654
 -20420487.95747 -15863383.71945  22739816.3754                   22739815.8164
  -5391704.02347  -4150424.98445  22677200.2664                   22677198.3524
 -55001098.54348 -42803307.36746  20674482.2344                   20674481.4264
 -35093860.06247 -27298142.25044  23127400.7424                   23127400.3594
 -81265771.27346 -63292137.07043  23971894.2034                   23971895.5004
 11  7 26  1 21  0.0000000  0  9G17G02G05G10G09G12G04G27G28
 -80758795.80547 -62875955.24245  22527636.2584                   22527635.4224
 -31556239.56248 -24540071.76246  20901587.9384                   20901584.5984
   7720326.29347   6066933.53944  23748118.8594                   23748120.7464
 -18316817.80947 -14231614.95745  21451708.2274                   21451708.3524
 -20470839.30547 -15902618.55544  22730234.9614                   22730233.7344
  -5582803.24647  -4299333.43445  22640834.9454                   22640832.5044
 -55050914.37948 -42842124.90646  20665002.6564                   20665001.4804
 -35149930.10947 -27341833.22744  23116729.8594                   23116731.4224
 -81274024.64846 -63298568.32043  23970323.3204                   23970324.7274
 11  7 26  1 21 30.0000000  0  9G17G02G05G10G09G12G04G27G28
 -80819918.20747 -62923583.12145  22516005.6334                   22516004.2704
 -31689929.41848 -24644245.65246  20876147.8834                   20876144.1724
   7509493.48047   5902648.49244  23707998.5164                   23708001.1024
 -18475013.19947 -14354884.01646  21421604.8914                   21421604.6254
 -20520670.94147 -15941448.43045  22720751.5314                   22720751.5704
  -5773588.30947  -4447997.11745  22604529.7114                   22604527.3054
 -55100306.66048 -42880612.41446  20655603.4844                   20655601.9734
 -35205626.31647 -27385232.88744  23106131.3524                   23106131.6884
 -81281958.89846 -63304750.92243  23968814.3054                   23968815.2274
 11  7 26  1 22  0.0000000  0  9G17G02G05G10G09G12G04G27G28
 -80880849.06247 -62971061.71545  22504410.7194                   22504409.6134
 -31823176.99648 -24748074.92646  20850791.4774                   20850787.9574
   7298791.72347   5738465.56644  23667903.2664                   23667905.8164
 -18632627.00848 -14477699.90245  21391611.9844                   21391611.5984
 -20569989.60547 -15979878.57045  22711366.7034                   22711366.1764
  -5964060.77047  -4596417.20345  22568284.2344                   22568280.8244
 -55149281.28548 -42918774.45746  20646283.9534                   20646282.8364
 -35260955.09447 -27428346.21144  23095603.2664                   23095603.6684
 -81289580.01646 -63310689.50443  23967363.7344                   23967364.8754
 11  7 26  1 22 30.0000000  0  9G17G02G05G10G09G12G04G27G28
 -80941588.35547 -63018391.06245  22492852.5634                   22492851.1214
 -31955983.22748 -24851560.27746  20825519.3834                   20825515.7114
   7088223.28547   5574386.49644  23627833.9304                   23627835.6094
 -18789657.55947 -14600061.30546  21361730.5474                   21361729.3054
 -20618798.85247 -16017911.80144  22702078.3674                   22702078.8444
  -6154218.62147  -4744592.14845  22532098.1804                   22532095.9694
 -55197841.60248 -42956613.66846  20637043.2734                   20637042.0944
 -35315919.43747 -27471175.59444  23085144.1644                   23085144.0824
 -81296890.54746 -63316386.04743  23965972.5164                   23965973.7774
 11  7 26  1 23  0.0000000  0  9G17G02G05G10G09G12G04G27G28
 -81002137.21147 -63065572.00045  22481330.3914                   22481329.6804
 -32088350.23048 -24954703.35546  20800330.6804                   20800327.3324
   6877789.21547   5410412.15644  23587788.7974                   23587791.4454
 -18946103.89848 -14721967.46946  21331959.1804                   21331958.3794
 -20667103.40647 -16055551.73045  22692886.2974                   22692887.3554
  -6344061.12947  -4892521.37145  22495971.9224                   22495970.2274
 -55245991.38748 -42994132.96946  20627880.4844                   20627879.4694
 -35370523.60947 -27513724.30144  23074752.9534                   23074753.4734
 -81303893.92246 -63321843.27343  23964640.3524                   23964641.2934
 11  7 26  1 23 30.0000000  0  9G17G02G05G10G09G12G04G27G28
 -81062493.19147 -63112602.66045  22469845.0474                   22469843.2974
 -32220277.07448 -25057503.46146  20775225.9304                   20775221.9384
   6667494.10547   5246546.09444  23547771.2504                   23547772.3244
 -19101961.44548 -14843414.84846  21302300.5084                   21302299.3954
 -20714904.78947 -16092799.58245  22683790.6644                   22683790.5004
  -6533583.98847  -5040201.51645  22459907.2114                   22459905.3984
 -55293731.41848 -43031333.00446  20618796.1804                   20618795.3014
 -35424768.45347 -27555993.02344  23064430.8204                   23064430.5864
 -81310590.18746 -63327061.22743  23963365.0004                   23963367.7624
 11  7 26  1 24  0.0000000  0  9G17G02G05G10G09G12G04G27G28
 -81122657.76647 -63159484.16445  22458396.2344                   22458395.1414
 -32351765.43748 -25159961.90246  20750204.4454                   20750200.5904
   6457339.40247   5082789.43044  23507779.8754                   23507781.2074
 -19257229.17248 -14964402.62145  21272754.2194                   21272753.1844
 -20762207.12947 -16129658.56645  22674789.1724                   22674789.8594
  -6722786.10247  -5187631.71545  22423903.2734                   22423901.2464
 -55341065.44948 -43068216.66846  20609788.5234                   20609787.5234
 -35478657.97747 -27597984.88344  23054175.4304                   23054176.4304
 -81316982.78546 -63332042.51243  23962149.2114                   23962150.7504
 11  7 26  1 24 30.0000000  0  9G17G02G05G10G09G12G04G27G28
 -81182627.49647 -63206213.83245  22446984.3054                   22446982.9534
 -32482813.12548 -25262076.95746  20725266.8984                   20725263.3134
   6247330.72347   4919146.52045  23467816.1564                   23467817.9694
 -19411902.35548 -15084927.11746  21243320.8984                   21243319.7624
 -20809010.87147 -16166129.04745  22665882.5234                   22665883.1454
  -6911662.29747  -5334807.95745  22387961.3674                   22387958.9414
 -55387993.18048 -43104783.72746  20600858.5164                   20600857.6454
 -35532192.18447 -27639699.88744  23043988.3914                   23043988.9064
 -81323071.27046 -63336786.88743  23960991.0864                   23960992.1414
 11  7 26  1 25  0.0000000  0  9G17G02G05G10G09G12G04G27G28
 -81242405.41047 -63252794.03145  22435608.9924                   22435608.1604
 -32613424.16048 -25363851.76246  20700412.4924                   20700408.9064
   6037467.29347   4755616.79345  23427880.7114                   23427881.8244
 -19565982.17248 -15204989.25045  21214000.5394                   21213999.6174
 -20855322.99647 -16202216.43445  22657069.5234                   22657069.8914
  -7100213.58247  -5481731.02345  22352080.7424                   22352079.2194
 -55434520.74248 -43141038.96546  20592004.9224                   20592003.9454
 -35585377.39547 -27681142.94944  23033867.2034                   23033868.3984
 -81328860.69946 -63341298.22343  23959888.8054                   23959890.2664
 11  7 26  1 25 30.0000000  0  9G17G02G05G10G09G12G04G27G28
 -81301991.67647 -63299224.92245  22424269.8204                   22424268.7624
 -32743600.07048 -25465287.52046  20675640.9224                   20675637.3204
   5827751.11347   4592201.76244  23387972.3834                   23387973.8834
 -19719467.05948 -15324587.80946  21184792.7894                   21184792.3134
 -20901147.34047 -16237923.70745  22648349.4304                   22648349.9924
  -7288438.42647  -5628399.74245  22316262.8754                   22316261.3364
 -55480651.18748 -43176984.76246  20583226.5554                   20583225.3874
 -35638216.78147 -27722316.51244  23023812.8134                   23023813.1804
 -81334353.87946 -63345578.70743  23958844.0634                   23958845.1524
 11  7 26  1 26  0.0000000  0  9G17G02G05G10G09G12G04G27G28
 -81361384.10247 -63345504.76645  22412968.1174                   22412966.6884
 -32873339.08248 -25566382.82846  20650952.1724                   20650948.5594
   5618187.36347   4428905.52044  23348094.4614                   23348094.6994
 -19872352.12948 -15443718.98046  21155699.7424                   21155698.8954
 -20946484.66447 -16273251.51645  22639722.1334                   22639722.2304
  -7476331.70747  -5774810.09045  22280508.0314                   22280506.2074
 -55526384.62148 -43212621.20746  20574523.7274                   20574522.7734
 -35690710.37547 -27763220.66444  23013823.8284                   23013824.1454
 -81339550.60946 -63349628.16843  23957854.5864                   23957856.0274
 11  7 26  1 26 30.0000000  0  9G17G02G05G10G09G12G04G27G28
 -81420584.26647 -63391634.77745  22401702.7194                   22401701.1454
 -33002644.04748 -25667139.93446  20626346.3594                   20626342.4774
   5408776.61747   4265728.49244  23308244.4614                   23308245.3014
 -20024637.59448 -15562382.92245  21126720.6804                   21126719.8524
 -20991340.68047 -16308204.27044  22631186.1414                   22631187.0434
  -7663893.20747  -5920961.89845  22244816.8054                   22244814.4964
 -55571725.82048 -43247952.00446  20565894.9694                   20565894.1684
 -35742863.42647 -27803859.43444  23003899.0234                   23003899.2734
 -81344455.09846 -63353449.93442  23956921.0784                   23956923.4184
 11  7 26  1 27  0.0000000  0  9G17G02G05G10G09G12G04G27G28
 -81479593.00447 -63437615.63745  22390473.5394                   22390472.1604
 -33131517.06648 -25767560.45346  20601822.5164                   20601819.1994
   5199520.27347   4102671.77044  23268423.9384                   23268424.8444
 -20176322.71548 -15680579.06246  21097856.0634                   21097854.9924
 -21035719.89147 -16342785.47345  22622741.0004                   22622741.7974
  -7851122.33247  -6066854.71145  22209187.3754                   22209186.0354
 -55616678.61748 -43282980.14546  20557341.3674                   20557339.9384
 -35794679.71547 -27844235.82044  22994038.0084                   22994039.4574
 -81349070.94746 -63357046.76643  23956043.5164                   23956044.8674
 11  7 26  1 27 30.0000000  0  9G17G02G05G10G09G12G04G27G28
 -79962987.93747 -62255845.47745  22679073.8284                   22679072.8554
 -31684534.46548 -24640041.52746  20877174.5164                   20877170.2274
   6565847.97747   5167342.88744  23528427.4454                   23528428.5474
 -18751980.42648 -14570701.91046  21368899.7664                   21368898.4964
 -19504203.91847 -15149396.43744  22914179.0704                   22914180.1884
  -6462590.29747  -4984881.67245  22473416.9224                   22473415.0514
 -54085824.11748 -42090106.50446  20848653.3364                   20848651.8914
 -34270740.41447 -26656750.71944  23284035.2424                   23284035.4614
 -79777979.95346 -62132820.08643  24255012.7194                   24255013.7664
 11  7 26  1 28  0.0000000  0  9G17G02G05G10G09G12G04G27G28
 -80021609.73047 -62301524.80545  22667918.6884                   22667917.3204
 -31812542.60248 -24739788.11346  20852815.1644                   20852811.0554
   6356911.52047   5004535.44544  23488668.3444                   23488669.2074
 -18902455.14148 -14687954.88746  21340265.3914                   21340264.2704
 -19547636.39847 -15183239.94944  22905914.2034                   22905914.2304
  -6649144.06247  -5130248.21545  22437916.6484                   22437915.7424
 -54130004.77348 -42124532.98046  20840245.7814                   20840244.5594
 -34321888.77747 -26696606.61344  23274301.7114                   23274302.2734
 -79782021.63346 -62135969.47743  24254242.4694                   24254244.8834
 11  7 26  1 28 30.0000000  0  9G17G02G05G10G09G12G04G27G28
 -80080035.62947 -62347051.48445  22656801.2344                   22656799.3874
 -31940117.98848 -24839197.48846  20828538.4304                   20828534.5314
   6148140.82847   4841857.14844  23448940.2584                   23448940.8714
 -19052320.00848 -14804732.65246  21311746.8204                   21311745.7504
 -19590599.14847 -15216717.44144  22897738.4534                   22897738.9804
  -6835354.68047  -5275347.34845  22402482.3204                   22402480.8484
 -54173801.64548 -42158660.42246  20831911.5554                   20831910.9804
 -34372705.75047 -26736204.31644  23264631.1024                   23264632.2304
 -79785777.88346 -62138896.45743  24253528.4844                   24253529.3014
 11  7 26  1 29  0.0000000  0  9G17G02G05G10G09G12G04G27G28
 -80138271.46147 -62392430.06645  22645718.6094                   22645717.4024
 -32067266.52048 -24938274.25846  20804342.7814                   20804339.1094
   5939533.12947   4679305.86744  23409243.8754                   23409244.3284
 -19201578.23048 -14921037.71545  21283343.5864                   21283342.0474
 -19633100.78947 -15249835.62944  22889650.5474                   22889651.1524
  -7021225.22347  -5420181.48445  22367112.4774                   22367111.1334
 -54217222.72348 -42192495.03546  20823648.5234                   20823647.6914
 -34423199.57047 -26775550.21944  23255022.8364                   23255023.2934
 -79789256.37946 -62141606.98443  24252866.0704                   24252868.3954
 11  7 26  1 29 30.0000000  0  9G17G02G05G10G09G12G04G27G28
 -80196314.14547 -62437658.14845  22634673.3134                   22634672.9224
 -32193986.38748 -25037017.00846  20780228.6564                   20780224.9534
   5731093.81647   4516885.80544  23369578.1564                   23369578.6024
 -19350225.19948 -15036866.47745  21255057.4694                   21255056.2624
 -19675142.02047 -15282595.04344  22881650.2504                   22881650.7464
  -7206751.01247  -5564746.98845  22331807.9064                   22331806.1844
 -54260267.73448 -42226036.60546  20815457.6094                   20815456.4924
 -34473370.40647 -26814644.44144  23245475.8444                   23245476.6484
 -79792456.61746 -62144100.75043  24252257.5234                   24252259.3364
 11  7 26  1 30  0.0000000  0  9G17G02G05G10G09G12G04G27G28
 -80254167.50447 -62482738.70745  22623664.6724                   22623663.4774
 -32320282.90648 -25135429.88746  20756195.2424                   20756191.6254
   5522821.18847   4354595.66444  23329944.8834                   23329945.9104
 -19498263.41048 -15152220.87946  21226886.4774                   21226884.9734
 -19716730.78547 -15315001.92644  22873736.4224                   22873737.1764
  -7391934.16447  -5709045.48445  22296568.0944                   22296566.3554
 -54302943.84848 -42259290.72746  20807336.8284                   20807335.7344
 -34523225.41847 -26853492.57044  23235988.9534                   23235989.4224
 -79795385.02746 -62146382.69143  24251699.1724                   24251701.8834
 11  7 26  1 30 30.0000000  0  9G17G02G05G10G09G12G04G27G28
 -80311829.46147 -62527670.09845  22612692.2424                   22612690.5554
 -32446155.32848 -25233512.28546  20732242.7344                   20732238.6764
   5314719.30947   4192438.53944  23290345.0474                   23290344.9734
 -19645689.02748 -15267097.93746  21198832.2974                   21198831.4614
 -19757868.59447 -15347057.40644  22865908.4774                   22865908.6644
  -7576770.33647  -5853073.59845  22261395.3444                   22261393.9344
 -54345252.01248 -42292258.12546  20799285.7894                   20799284.6134
 -34572765.80947 -26892095.51244  23226561.5234                   23226561.8954
 -79798042.02346 -62148453.17643  24251194.4454                   24251197.0314
 11  7 26  1 31  0.0000000  0  9G17G02G05G10G09G12G04G27G28
 -80369298.30147 -62572451.02045  22601755.9064                   22601754.6604
 -32571603.00048 -25331263.70746  20708370.5234                   20708367.1174
   5106792.65247   4030418.00045  23250777.2424                   23250778.3284
 -19792498.84048 -15381495.15646  21170895.3914                   21170893.9264
 -19798557.65247 -15378763.18044  22858165.3444                   22858165.6134
  -7761255.84047  -5996828.44545  22226288.8284                   22226287.0084
 -54387193.14148 -42324939.52746  20791304.5944                   20791303.3444
 -34621993.01647 -26930454.44144  23217194.2894                   23217194.7624
 -79800428.96146 -62150313.22743  24250739.3984                   24250742.6254
 11  7 26  1 31 30.0000000  0  9G17G02G05G10G09G12G04G27G28
 -80426574.35547 -62617081.71145  22590856.6254                   22590855.0204
 -32696627.44548 -25428685.34046  20684579.0944                   20684575.8134
   4899043.27347   3868535.56345  23211244.0944                   23211244.3364
 -19938691.94548 -15495411.81646  21143075.4534                   21143074.2114
 -19838802.04347 -15410122.50444  22850507.5704                   22850508.0514
  -7945389.32047  -6140308.99645  22191249.2974                   22191248.3444
 -54428770.82848 -42357337.73846  20783392.7344                   20783391.8674
 -34670910.55547 -26968572.07444  23207884.9694                   23207886.1764
 -79802548.61346 -62151964.97343  24250337.6884                   24250338.7934
 11  7 26  1 32  0.0000000  0  9G17G02G05G10G09G12G04G27G28
 -80483658.52347 -62661562.88345  22579993.3754                   22579992.6024
 -32821230.71148 -25525778.76646  20660868.3054                   20660864.1724
   4691472.51647   3706792.33245  23171745.0394                   23171745.5554
 -20084267.35248 -15608847.14546  21115373.1254                   21115372.3714
 -19878606.58247 -15441139.07844  22842933.0164                   22842932.8484
  -8129169.37947  -6283514.16045  22156277.0554                   22156275.6724
 -54469988.72748 -42389455.59446  20775549.2894                   20775548.3444
 -34719522.69147 -27006451.74244  23198635.0554                   23198635.5904
 -79804403.95345 -62153410.74642  24249984.7194                   24249986.4454
 11  7 26  1 32 30.0000000  0  9G17G02G05G10G09G12G04G27G28
 -80540553.46947 -62705896.58645  22569166.5864                   22569165.2894
 -32945415.99248 -25622546.48846  20637236.3984                   20637232.3834
   4484080.93047   3545188.69545  23132278.8984                   23132279.2544
 -20229225.59048 -15721801.57045  21087788.6174                   21087787.4694
 -19917977.13347 -15471817.46544  22835441.0004                   22835440.6644
  -8312596.07047  -6426443.95346  22121372.8134                   22121370.8754
 -54510851.76248 -42421296.94146  20767772.9534                   20767772.1414
 -34767834.45347 -27044097.35244  23189441.7344                   23189442.4884
 -79806000.10246 -62154654.59842  24249680.5704                   24249683.1334
 11  7 26  1 33  0.0000000  0  9G17G02G05G10G09G12G04G27G28
 -80597256.89147 -62750081.05545  22558376.8984                   22558375.4614
 -33069182.85248 -25718988.18046  20613684.5394                   20613680.4104
   4276872.66447   3383727.89545  23092848.1254                   23092849.4534
 -20373563.27048 -15834272.44146  21060322.3204                   21060320.8754
 -19956915.35947 -15502159.00444  22828031.3594                   22828031.2934
  -8495665.71547  -6569095.53145  22086534.8594                   22086533.2274
 -54551360.91448 -42452862.52746  20760064.7114                   20760063.6724
 -34815847.36747 -27081510.04744  23180304.4844                   23180306.3554
 -79807338.00045 -62155697.14542  24249425.3594                   24249428.2624
 11  7 26  1 33 30.0000000  0  8G17G02G05G10G09G12G04G27
 -80653772.46547 -62794119.15245  22547622.1484                   22547620.7154
 -33192536.07848 -25815107.56646  20590211.0084                   20590207.2194
   4069845.95747   3222408.58645  23053452.0864                   23053452.6724
 -20517282.81248 -15946261.65246  21032973.2584                   21032971.8134
 -19995429.23446 -15532169.84844  22820701.4924                   22820702.3094
  -8678379.97347  -6711470.21145  22051765.6804                   22051764.0084
 -54591523.15648 -42484157.79346  20752421.8444                   20752420.6294
 -34863568.48447 -27118695.41044  23171224.0004                   23171224.5594
 11  7 26  1 34  0.0000000  0  8G17G02G05G10G09G12G04G27
 -80710096.35947 -62838007.91045  22536904.8914                   22536902.5704
 -33315472.98448 -25910902.54346  20566816.7974                   20566813.0744
   3863007.37547   3061235.86344  23014092.5084                   23014092.2544
 -20660378.43048 -16057764.66846  21005742.9454                   21005741.3984
 -20033518.33647 -15561849.72744  22813453.6954                   22813454.4384
  -8860732.66847  -6853563.15245  22017065.2814                   22017063.2814
 -54631337.22348 -42515181.75846  20744845.6884                   20744844.1764
 -34910996.82047 -27155652.61744  23162198.8054                   23162199.7304
 11  7 26  1 34 30.0000000  0  8G17G02G05G10G09G12G04G27
 -80766226.20347 -62881745.45345  22526223.3914                   22526222.1914
 -33437992.48848 -26006372.26246  20543502.1724                   20543498.5044
   3656361.94547   2900213.63345  22974768.7894                   22974769.0044
 -20802846.26248 -16168778.52346  20978631.9614                   20978630.9064
 -20071184.16047 -15591199.75444  22806286.8444                   22806286.8914
  -9042719.54347  -6995371.03145  21982434.0944                   21982432.6054
 -54670803.62948 -42545934.82846  20737335.4844                   20737333.9414
 -34958133.09847 -27192382.25444  23153228.8674                   23153230.0904
 11  7 26  1 35  0.0000000  0  8G17G02G05G10G09G12G04G27
 -79246736.29747 -61697727.35245  22815371.9774                   22815371.0784
 -31984667.84448 -24873911.47746  20820060.4774                   20820056.4734
   5025342.79347   3966952.14544  23235277.1884                   23235277.2734
 -19369256.56248 -15051695.60246  21251435.2504                   21251434.3054
 -18533005.20747 -14392618.81244  23098993.0864                   23098992.6134
  -7648908.56647  -5909284.49246  22247667.3914                   22247665.4064
 -53134499.84848 -41348815.01646  21029684.6644                   21029682.8714
 -33429555.10947 -26001282.57844  23444107.7114                   23444108.7814
 11  7 26  1 35 30.0000000  0  8G17G02G05G10G09G12G04G27
 -79302468.31247 -61741154.91445  22804766.1884                   22804765.5864
 -32106346.53548 -24968726.02046  20796906.2584                   20796902.3954
   4819100.09047   3806243.69145  23196030.0084                   23196030.1134
 -19510455.26248 -15161720.51246  21224565.7584                   21224564.6954
 -18569826.15247 -14421310.49244  23091985.7274                   23091985.6914
  -7830147.93047  -6050509.92645  22213178.4924                   22213176.9534
 -53173269.80948 -41379025.40246  21022306.6564                   21022305.4734
 -33476107.57847 -26037557.29344  23435248.8674                   23435250.3714
 11  7 26  1 36  0.0000000  0  8G17G02G05G10G09G12G04G27
 -79358002.08247 -61784428.00845  22794199.3674                   22794198.2194
 -32227607.26248 -25063214.85246  20773830.6254                   20773827.1214
   4613061.93847   3645694.66845  23156822.3594                   23156822.7154
 -19651017.91848 -15271249.80546  21197817.5864                   21197816.6764
 -18606231.09447 -14449678.06244  23085057.8754                   23085058.7034
  -8011011.40648  -6191442.44546  22178761.3524                   22178759.5164
 -53211696.59448 -41408968.37946  21014994.2894                   21014993.0084
 -33522373.82447 -26073608.97744  23426445.3594                   23426445.8984
 11  7 26  1 36 30.0000000  0  8G17G02G05G10G09G12G04G27
 -79413339.79347 -61827548.32445  22783668.8524                   22783667.5354
 -32348453.58248 -25157380.79746  20750834.3834                   20750830.5704
   4407228.15247   3485304.85545  23117652.8984                   23117653.8364
 -19790945.54348 -15380284.26646  21171190.5554                   21171188.9654
 -18642226.31647 -14477726.33244  23078208.4454                   23078209.0204
  -8191499.14547  -6332082.18446  22144415.9694                   22144413.9184
 -53249785.42248 -41438648.00846  21007746.2424                   21007744.6954
 -33568359.29747 -26109441.85944  23417693.7274                   23417694.7504
 11  7 26  1 37  0.0000000  0  8G17G02G05G10G09G12G04G27
 -79468482.31647 -61870516.54345  22773175.5394                   22773174.5514
 -32468887.53548 -25251225.39546  20727916.5944                   20727912.6844
   4201600.74247   3325075.87545  23078523.5314                   23078523.4264
 -19930237.48848 -15488823.40246  21144684.0784                   21144683.0944
 -18677816.24647 -14505458.78544  23071435.9064                   23071435.8524
  -8371609.64848  -6472427.98446  22110142.1954                   22110139.8754
 -53287539.69548 -41468066.95346  21000561.6174                   21000560.8754
 -33614067.57846 -26145058.77744  23408996.3444                   23408996.6414
 11  7 26  1 37 30.0000000  0  8G17G02G05G10G09G12G04G27
 -79523428.24247 -61913331.57845  22762719.6024                   22762718.8324
 -32588908.98448 -25344748.59046  20705077.0554                   20705073.7544
   3996183.41447   3165010.57845  23039434.2504                   23039434.0634
 -20068891.10548 -15596865.13346  21118299.4844                   21118298.0474
 -18713003.53947 -14532877.48844  23064740.5634                   23064741.0354
  -8551339.89548  -6612477.46546  22075940.1174                   22075938.4654
 -53324961.03948 -41497226.45746  20993440.9064                   20993439.4024
 -33659500.84446 -26180461.39844  23400350.6254                   23400351.4574
 11  7 26  1 38  0.0000000  0  8G17G02G05G10G09G12G04G27
 -79578179.53147 -61955994.92645  22752301.1644                   22752300.3524
 -32708521.18748 -25437952.87946  20682315.6024                   20682312.3244
   3790976.91447   3005109.56645  23000384.1484                   23000384.0084
 -20206906.87948 -15704409.84046  21092035.3984                   21092034.2504
 -18747793.60247 -14559986.67244  23058119.9064                   23058120.1724
  -8730689.05547  -6752230.02046  22041811.0864                   22041809.3954
 -53362053.95348 -41526130.04746  20986382.3284                   20986380.9534
 -33704664.03146 -26215653.52044  23391755.8284                   23391756.5204
 11  7 26  1 38 30.0000000  0  8G17G02G05G10G09G12G04G27
 -79632737.53547 -61998507.69145  22741918.7734                   22741917.4454
 -32827726.82048 -25530840.34846  20659631.4694                   20659628.0044
   3585981.74247   2845373.23445  22961374.3914                   22961374.3914
 -20344285.12148 -15811457.77346  21065893.0704                   21065891.8204
 -18782192.20347 -14586790.81644  23051574.0864                   23051574.5904
  -8909657.37147  -6891685.81646  22007754.2114                   22007752.8014
 -53398823.20748 -41554781.42646  20979385.6954                   20979384.1454
 -33749562.20746 -26250639.14844  23383212.8524                   23383213.0124
 11  7 26  1 39  0.0000000  0  8G17G02G05G10G09G12G04G27
 -79687099.58247 -62040867.75045  22731573.5864                   22731573.3754
 -32946524.50448 -25623409.92246  20637025.3524                   20637021.6414
   3381203.07447   2685805.57445  22922406.9144                   22922406.4694
 -20481021.69148 -15918005.70346  21039873.1174                   21039871.6884
 -18816200.44147 -14613290.75844  23045101.9384                   23045103.8404
  -9088239.84447  -7030840.96945  21973771.2194                   21973769.3134
 -53435268.64848 -41583180.49246  20972450.1334                   20972448.6684
 -33794195.75846 -26285418.57044  23374718.9774                   23374720.0824
 11  7 26  1 39 30.0000000  0  8G17G02G05G10G09G12G04G27
 -79741269.52047 -62083078.13345  22721266.4224                   22721264.7974
 -33064919.75048 -25715665.89846  20614495.1804                   20614491.6214
   3176639.55947   2526405.58645  22883479.3914                   22883479.3444
 -20617119.53548 -16024055.93046  21013974.3134                   21013973.3954
 -18849825.99647 -14639492.53144  23038703.8284                   23038703.5594
  -9266438.35247  -7169696.92646  21939861.3834                   21939860.0204
 -53471397.38348 -41611332.75846  20965574.8284                   20965573.5044
 -33838571.82046 -26319997.38744  23366275.5474                   23366275.3164
 11  7 26  1 40  0.0000000  0  8G17G02G05G10G09G12G04G27
 -79795248.00047 -62125139.32445  22710994.5784                   22710993.1414
 -33182914.14548 -25807609.53546  20592041.7664                   20592038.1214
   2972292.96547   2367174.61745  22844593.5164                   22844592.5474
 -20752577.64848 -16129607.66046  20988197.6334                   20988196.1994
 -18883073.39547 -14665399.62544  23032376.4774                   23032378.1134
  -9444251.17247  -7308252.34846  21906025.0474                   21906023.2114
 -53507212.60948 -41639240.74646  20958759.8674                   20958758.6454
 -33882694.25446 -26354378.52043  23357878.4454                   23357879.1254
 11  7 26  1 40 30.0000000  0  8G17G02G05G10G09G12G04G27
 -79849036.75847 -62167052.67245  22700758.7344                   22700757.9534
 -33300510.84048 -25899243.28146  20569664.2194                   20569659.9064
   2768164.06647   2208113.30945  22805748.5944                   22805748.7154
 -20887396.81648 -16234661.51246  20962542.6254                   20962541.2624
 -18915948.27347 -14691016.43744  23026120.6724                   23026121.2774
  -9621678.46147  -7446507.37546  21872261.6414                   21872259.6254
 -53542718.93048 -41666908.01646  20952002.9304                   20952002.0044
 -33926568.08247 -26388565.98443  23349530.1724                   23349530.2274
 11  7 26  1 41  0.0000000  0  8G17G02G05G10G09G12G04G27
 -79902635.62147 -62208818.04745  22690559.1954                   22690558.3204
 -33417711.23448 -25990568.23446  20547361.2664                   20547357.5234
   2564255.41447   2049223.59045  22766945.8524                   22766945.6484
 -21021575.80148 -16339216.52746  20937008.7974                   20937007.8404
 -18948454.43447 -14716345.96544  23019935.7664                   23019936.9774
  -9798717.82047  -7584460.12546  21838571.9774                   21838569.7504
 -53577919.16448 -41694336.77746  20945304.6484                   20945304.0594
 -33970196.55946 -26422562.23844  23341227.6484                   23341228.3284
 11  7 26  1 41 30.0000000  0  8G17G02G05G10G09G12G04G27
 -79956043.07047 -62250434.26645  22680396.1644                   22680394.9384
 -33534514.94148 -26081584.09046  20525134.0004                   20525130.1844
   2360571.12547   1890508.73445  22728186.0474                   22728185.7504
 -21155112.00848 -16443270.68046  20911597.8834                   20911596.6914
 -18980594.15647 -14741389.93744  23013820.4304                   23013820.2344
  -9975365.84047  -7722107.92646  21804956.7114                   21804955.5904
 -53612814.37948 -41721527.84846  20938664.0864                   20938662.9224
 -34013581.10947 -26456368.41844  23332971.5234                   23332972.7974
 11  7 26  1 42  0.0000000  0  8G17G02G05G10G09G12G04G27
 -80009257.50847 -62291900.06245  22670269.8364                   22670267.7934
 -33650921.49648 -26172290.45346  20502982.8984                   20502978.9144
   2157114.96947   1731971.63345  22689469.8834                   22689468.9884
 -21288002.69148 -16546821.82046  20886309.5234                   20886308.2274
 -19012369.79747 -14766150.20344  23007772.1564                   23007773.2424
 -10151618.90647  -7859447.98046  21771416.8524                   21771415.5554
 -53647405.94948 -41748482.30546  20932081.8284                   20932080.2464
 -34056723.45347 -26489985.88344  23324762.7194                   23324763.5984
 11  7 26  1 42 30.0000000  0  8G17G02G05G10G09G12G04G27
 -80062281.49247 -62333217.45345  22660180.0394                   22660177.7774
 -33766935.11348 -26262690.65646  20480906.0474                   20480902.0434
   1953886.89147   1573612.26645  22650796.1094                   22650796.2274
 -21420249.15648 -16649870.95746  20861144.1484                   20861142.4224
 -19043787.66847 -14790631.68444  23001793.9454                   23001794.3164
 -10327477.49647  -7996480.64546  21737952.0234                   21737950.6954
 -53681699.37948 -41775204.44546  20925555.8054                   20925554.5514
 -34099629.73447 -26523419.38744  23316597.7194                   23316598.0514
 11  7 26  1 43  0.0000000  0  8G17G02G05G10G09G12G04G27
 -78539694.23047 -61146785.82845  22949918.6484                   22949917.2664
 -32307134.42648 -25125183.62146  20758696.7194                   20758693.0394
   3326315.07847   2643036.95745  22911960.6644                   22911960.1844
 -19976427.06248 -15524814.75046  21135894.1884                   21135892.5044
 -17499431.79747 -13587237.54344  23295675.3134                   23295676.2074
  -8927514.93048  -6905600.73446  22004356.1644                   22004354.9804
 -52140277.26648 -40574096.30146  21218879.0634                   21218877.8284
 -32566882.75047 -25329071.13344  23608269.9924                   23608270.6214
 11  7 26  1 43 30.0000000  0  8G17G02G05G10G09G12G04G27
 -78592336.82447 -61187806.05545  22939900.8984                   22939899.4924
 -32422365.86348 -25214974.30946  20736769.2194                   20736765.3984
   3123550.75847   2485038.94145  22873375.9924                   22873375.7624
 -20107382.03548 -15626857.53946  21110974.2034                   21110972.5124
 -17530145.74247 -13611170.52344  23289830.7274                   23289831.7274
  -9102578.51247  -7042013.92246  21971042.6484                   21971041.4144
 -52173982.41448 -40600360.05146  21212464.8834                   21212463.7894
 -32609326.16847 -25362143.95744  23600192.8204                   23600194.2624
 11  7 26  1 44  0.0000000  0  8G17G02G05G10G09G12G04G27
 -78644788.08247 -61228677.17245  22929919.2734                   22929918.2504
 -32537207.66848 -25304461.40646  20714915.4304                   20714911.3324
   2921022.85947   2327225.13745  22834836.0164                   22834835.4224
 -20237688.80948 -15728395.23446  21086177.2194                   21086175.8834
 -17560513.01247 -13634833.38344  23284052.0234                   23284052.5164
  -9277240.81647  -7178114.44146  21937805.3204                   21937803.8634
 -52207396.99648 -40626397.37546  21206106.3444                   21206105.0984
 -32651542.39547 -25395039.76244  23592159.2194                   23592160.6054
 11  7 26  1 44 30.0000000  0  8G17G02G05G10G09G12G04G27
 -78697050.17647 -61269400.88745  22919974.4384                   22919972.9924
 -32651663.34848 -25393647.62146  20693135.1724                   20693131.6374
   2718731.10547   2169595.32445  22796340.8594                   22796340.5824
 -20367348.80948 -15829428.96146  21061503.8754                   21061502.5084
 -17590539.64847 -13658230.77744  23278337.5864                   23278338.5044
  -9451501.92647  -7313902.32846  21904644.5784                   21904643.3954
 -52240525.92648 -40652212.11746  21199801.9534                   21199800.9264
 -32693536.96146 -25427762.85944  23584167.8754                   23584169.3874
 11  7 26  1 45  0.0000000  0  8G17G02G05G10G09G12G04G27
 -78749119.49647 -61309974.39845  22910066.0784                   22910064.8634
 -32765731.27748 -25482531.69946  20671428.7274                   20671424.6334
   2516681.58247   2012154.28145  22757892.3284                   22757891.9924
 -20496357.95748 -15929955.52346  21036954.0634                   21036952.8364
 -17620226.81647 -13681363.66844  23272689.0004                   23272689.3094
  -9625356.82847  -7449373.69546  21871561.4694                   21871559.6804
 -52273368.96548 -40677804.08246  21193552.0164                   21193551.2274
 -32735310.02046 -25460313.32044  23576219.0394                   23576220.0784
 11  7 26  1 45 30.0000000  0  8G17G02G05G10G09G12G04G27
 -78801000.82847 -61350401.42245  22900192.5314                   22900191.8444
 -32879416.78148 -25571117.78546  20649795.2114                   20649791.0824
   2314872.52747   1854900.58645  22719489.2664                   22719488.5824
 -20624719.41848 -16029977.38746  21012527.7114                   21012526.1254
 -17649582.16047 -13704237.98444  23267102.7894                   23267103.6684
  -9798807.64847  -7584530.18746  21838554.6564                   21838553.0744
 -52305932.96148 -40703178.61346  21187355.2584                   21187354.0944
 -32776868.74647 -25492696.80143  23568310.5004                   23568311.9184
 11  7 26  1 46  0.0000000  0  8G17G02G05G10G09G12G04G27
 -78852688.00847 -61390677.16445  22890357.4224                   22890356.5354
 -32992715.20348 -25659402.25446  20628235.1254                   20628231.4574
   2113312.53547   1697840.96545  22681133.4384                   22681132.6524
 -20752426.33648 -16129489.22346  20988225.9454                   20988224.2894
 -17678603.37946 -13726851.94144  23261580.2734                   23261580.3284
  -9971846.22347  -7719365.44146  21805626.6334                   21805625.1334
 -52338214.44148 -40728333.00446  21181212.6254                   21181211.5664
 -32818210.32846 -25524911.03944  23560443.5704                   23560443.8554
 11  7 26  1 46 30.0000000  0  8G17G02G05G10G09G12G04G27
 -78904183.60547 -61430803.62145  22880557.8364                   22880557.0044
 -33105630.75048 -25747388.37946  20606747.9614                   20606744.0944
   1912001.18447   1540975.08645  22642824.8984                   22642824.3054
 -20879480.30548 -16228492.27746  20964048.6414                   20964046.7624
 -17707297.36347 -13749210.93744  23256120.0634                   23256120.4024
 -10144473.41847  -7853880.12146  21772777.0004                   21772774.9774
 -52370219.00448 -40753271.61746  21175122.4304                   21175120.9734
 -32859340.79746 -25556960.78144  23552616.7734                   23552617.1644
 11  7 26  1 47  0.0000000  0  8G17G02G05G10G09G12G04G27
 -78955489.52747 -61470782.26245  22870795.0634                   22870793.7624
 -33218166.94548 -25835078.89146  20585332.9844                   20585328.9574
   1710938.81647   1384303.21545  22604564.2344                   22604563.2304
 -21005882.92648 -16326987.78546  20939995.0314                   20939993.4614
 -17735670.40647 -13771319.81244  23250720.9844                   23250721.6254
 -10316689.25048  -7988074.25046  21740005.5634                   21740004.1334
 -52401951.86748 -40777998.51246  21169083.5164                   21169082.6454
 -32900265.83246 -25588850.46543  23544828.8364                   23544829.8444
 11  7 26  1 47 30.0000000  0  8G17G02G05G10G09G12G04G27
 -79006605.05547 -61510612.55545  22861068.1804                   22861066.5434
 -33330324.43748 -25922474.30146  20563990.0554                   20563986.2344
   1510128.82047   1227828.01245  22566351.6024                   22566350.4804
 -21131632.26648 -16424974.24246  20916065.4774                   20916064.1764
 -17763725.47746 -13793180.94144  23245381.9774                   23245383.2194
 -10488491.09047  -8121945.78946  21707312.5084                   21707310.8984
 -52433414.80148 -40802515.06646  21163096.8284                   21163095.2544
 -32940987.68046 -25620581.79343  23537079.1644                   23537080.6524
 11  7 26  1 48  0.0000000  0  8G17G02G05G10G09G12G04G27
 -79057531.28547 -61550295.35544  22851377.6334                   22851376.0824
 -33442105.92648 -26009576.73446  20542719.1334                   20542715.0784
   1309572.05547   1071550.11745  22528186.4224                   22528185.8484
 -21256728.88748 -16522452.09446  20892260.0864                   20892258.9184
 -17791467.60247 -13814798.23444  23240102.4454                   23240103.3404
 -10659878.08248  -8255494.02746  21674698.1564                   21674697.3794
 -52464611.64148 -40826824.26646  21157159.9384                   21157158.8244
 -32981510.99646 -25652158.48443  23529368.2344                   23529369.4694
 11  7 26  1 48 30.0000000  0  8G17G02G05G10G09G12G04G27
 -79108269.58247 -61589831.66444  22841721.4534                   22841720.8204
 -33553513.60248 -26096387.89846  20521518.5084                   20521514.3444
   1109270.30547    915470.92645  22490070.2034                   22490069.0394
 -21381172.90248 -16619421.42646  20868579.8284                   20868577.7974
 -17818901.68047 -13836175.44144  23234882.5394                   23234882.8524
 -10830849.13748  -8388718.16846  21642163.7504                   21642161.8094
 -52495546.03948 -40850928.97746  21151273.2974                   21151271.9494
 -33021839.78947 -25683583.57444  23521693.5554                   23521695.1454
 11  7 26  1 49  0.0000000  0  9G17G02G05G10G09G12G04G27G25
 -79158818.99647 -61629220.82044  22832103.1484                   22832101.6454
 -33664548.38748 -26182908.48446  20500389.4384                   20500385.6844
    909226.61347    759592.81345  22452003.0164                   22452002.3204
 -21504963.03948 -16715881.25046  20845022.6804                   20845021.1644
 -17846031.07047 -13857315.28144  23229719.8834                   23229720.8324
 -11001401.40248  -8521615.98046  21609708.6644                   21609706.9614
 -52526220.34048 -40874831.00846  21145435.7664                   21145434.6374
 -33061976.85246 -25714859.25843  23514056.2194                   23514058.2154
  23330551.55156  18227577.03153  24546891.1024                   24546893.2384
 11  7 26  1 49 30.0000000  0  9G17G02G05G10G09G12G04G27G25
 -79209180.36347 -61668463.43444  22822519.2274                   22822518.4734
 -33775212.83648 -26269140.49246  20479330.7974                   20479326.8954
    709442.82847    603917.21945  22413985.5394                   22413984.7734
 -21628099.57048 -16811831.76646  20821590.7034                   20821589.4064
 -17872860.65246 -13878221.48044  23224613.7664                   23224615.3714
 -11171534.71147  -8654187.32446  21577333.2424                   21577331.7304
 -52556638.24647 -40898533.25446  21139647.9924                   21139646.6374
 -33101926.71546 -25745989.05944  23506454.1644                   23506455.5864
  23125812.49646  18068040.13743  24507930.7424                   24507931.8714
 11  7 26  1 50  0.0000000  0  9G17G02G05G10G09G12G04G27G25
 -79259359.71947 -61707564.18444  22812970.7974                   22812969.6844
 -33885514.32448 -26355089.66846  20458341.0394                   20458337.0704
    509914.89847    448441.00845  22376016.6334                   22376016.4384
 -21750587.86348 -16907277.15246  20798281.9694                   20798280.3984
 -17899400.39547 -13898901.82444  23219563.7974                   23219564.4924
 -11341252.54347  -8786434.92246  21545037.4224                   21545035.1884
 -52586808.31248 -40922042.36746  21133906.5784                   21133905.7584
 -33141698.55947 -25776980.14144  23498886.6094                   23498886.8674
  22921222.85247  17908619.62143  24468998.7274                   24468999.3834
 11  7 26  1 50 30.0000000  0  9G17G02G05G10G09G12G04G27G25
 -77733934.39147 -60518921.05944  23103249.3524                   23103248.2624
 -32420029.39848 -25213153.33246  20737213.4844                   20737209.2544
   1886073.03947   1520772.12545  22637891.1484                   22637889.5824
 -20297001.71548 -15774612.59046  21074890.2114                   21074888.8594
 -16350232.25047 -12691757.86744  23514361.3364                   23514361.6414
  -9935125.81648  -7690751.69546  21812613.9064                   21812612.2504
 -51041311.25848 -39717758.94146  21428004.8594                   21428003.6884
 -31605872.96146 -24580232.99243  23791144.5944   23791144.3364   24292212.55546
  18976923.29343                  24729888.6414                   24729889.1954
 11  7 26  1 51  0.0000000  0  9G17G02G05G10G09G12G04G27G25
 -77783749.36747 -60557737.89844  23093769.9304                   23093769.0274
 -32529608.54748 -25298539.66046  20716361.2114                   20716356.9774
   1687065.01647   1365701.01245  22600020.9304                   22600019.7664
 -20418190.45748 -15869045.35246  21051829.0004                   21051827.2974
 -16376203.62947 -12711995.35244  23509419.0164                   23509419.8364
 -10104006.23848  -7822346.75446  21780477.3364                   21780475.7504
 -51070993.28948 -39740887.78546  21422356.5474                   21422355.5634
 -31645297.58246 -24610953.52343  23783641.8984   23783642.0664   24087928.05947
  18817740.63343                  24691014.7974                   24691014.9694
 11  7 26  1 51 30.0000000  0  9G17G02G05G10G09G12G04G27G25
 -77833381.46947 -60596412.22745  23084325.0164                   23084323.7194
 -32638828.09448 -25383645.78146  20695577.5864                   20695573.5904
   1488321.22747   1210835.81645  22562200.7114                   22562199.7194
 -20538727.87148 -15962970.57446  21028891.4064                   21028889.6484
 -16401896.23047 -12732015.61344  23504530.2974                   23504530.7234
 -10272464.65647  -7953612.99246  21748420.5634                   21748418.3404
 -51100435.02348 -39763829.39846  21416753.8284                   21416752.7774
 -31684553.00447 -24641542.19943  23776171.7034   23776172.1254   23883799.63347
  18658679.53143                  24652169.8444                   24652170.3054
 11  7 26  1 52  0.0000000  0  9G17G02G05G10G09G12G04G27G25
 -77882828.08647 -60634942.05545  23074916.0234                   23074915.1994
 -32747687.14148 -25468470.97746  20674862.2974                   20674858.0944
   1289846.45747   1056180.23845  22524432.3914                   22524431.4384
 -20658611.11348 -16056386.06246  21006078.2734                   21006076.4184
 -16427311.27047 -12751819.57044  23499693.6954                   23499693.8874
 -10440496.39847  -8084546.75446  21716445.0944                   21716442.9924
 -51129636.42648 -39786583.73845  21411197.1254                   21411196.1254
 -31723639.99246 -24671999.65243  23768733.8674   23768734.6914   23679831.77747
  18499743.62543                  24613355.6484                   24613357.4574
 11  7 26  1 52 30.0000000  0  9G17G02G05G10G09G12G04G27G25
 -77932090.40247 -60673328.25845  23065541.3674                   23065540.6994
 -32856188.11348 -25553017.16046  20654215.0784                   20654211.1094
   1091642.57847    901735.77045  22486715.1334                   22486714.1564
 -20777840.49248 -16149292.03146  20983389.6724                   20983387.9224
 -16452453.63747 -12771411.07444  23494909.1724                   23494910.3364
 -10608100.47748  -8215147.28146  21684550.9844                   21684548.6994
 -51158601.27048 -39809153.75445  21405685.2814                   21405683.7734
 -31762562.73047 -24702329.09443  23761327.2114   23761327.4224   23476025.48047
  18340933.56643                  24574572.5944                   24574573.1094
 11  7 26  1 53  0.0000000  0  9G17G02G05G10G09G12G04G27G25
 -77981164.05547 -60711567.48445  23056202.8834                   23056202.4024
 -32964328.47348 -25637282.34046  20633636.7114                   20633632.6334
    893715.82047    747507.21945  22449050.1254                   22449050.0744
 -20896411.49648 -16241684.99246  20960826.3914                   20960825.2894
 -16477323.39547 -12790790.14144  23490177.0394                   23490177.9144
 -10775270.97747  -8345409.96146  21652739.7114                   21652736.6294
 -51187328.10248 -39831538.30945  21400218.8054                   21400217.4734
 -31801320.64147 -24732530.15643  23753951.9844   23753952.3444   23272386.73447
  18182254.03543                  24535821.7034                   24535822.0164
 11  7 26  1 53 30.0000000  0  9G17G02G05G10G09G12G04G27G25
 -78030050.13347 -60749660.53545  23046900.6254                   23046899.3714
 -33072111.02048 -25721268.71946  20613126.3284                   20613122.1454
    696067.56347    593495.69545  22411439.7584                   22411438.3714
 -21014324.37948 -16333565.11346  20938388.1484                   20938386.4304
 -16501925.46147 -12809960.61744  23485495.4774                   23485496.6254
 -10942007.13347  -8475334.20746  21621010.9694                   21621008.3444
 -51215820.80948 -39853740.41045  21394796.5164                   21394795.1094
 -31839918.12146 -24762606.13343  23746606.5784   23746607.7424   23068916.45346
  18023705.82443                  24497102.3524                   24497103.8204
 11  7 26  1 54  0.0000000  0  9G17G02G05G10G09G12G04G27G25
 -78078751.23847 -60787609.45745  23037633.1414                   23037631.7114
 -33179539.03148 -25804978.83246  20592683.2194                   20592679.4454
    498698.25847    439701.52045  22373881.5164                   22373880.5474
 -21131580.99248 -16424933.87946  20916075.0704                   20916073.4224
 -16526266.00047 -12828927.30944  23480863.2664                   23480863.9454
 -11108309.35947  -8604920.31646  21589364.3284                   21589362.4884
 -51244084.11348 -39875763.77345  21389418.1884                   21389417.2304
 -31878360.68446 -24792561.43443  23739291.7814   23739292.5944   22865614.44947
  17865288.69543                  24458415.7274                   24458415.2304
 11  7 26  1 54 30.0000000  0  9G17G02G05G10G09G12G04G27G25
 -78127264.45347 -60825411.96145  23028400.9454                   23028400.6764
 -33286611.43748 -25888411.85546  20572307.8674                   20572304.0944
    301612.73047    286128.49245  22336377.1174                   22336376.2704
 -21248178.20748 -16515788.80946  20893886.9774                   20893885.4344
 -16550346.43447 -12847691.35544  23476281.6254                   23476281.9144
 -11274172.84048  -8734164.55546  21557801.4924                   21557799.4344
 -51272117.97748 -39897608.35546  21384083.8204                   21384082.4344
 -31916648.85946 -24822396.39543  23732005.5314   23732006.7074   22662485.34046
  17707006.29743                  24419760.9384                   24419761.6684
 11  7 26  1 55  0.0000000  0  9G17G02G05G10G09G12G04G27G25
 -78175590.84447 -60863068.92645  23019204.9844                   23019204.0354
 -33393331.03948 -25971569.97346  20551999.7734                   20551996.1994
    104812.24247    132777.56345  22298926.8524                   22298926.3134
 -21364117.32848 -16606130.95746  20871824.5944                   20871823.1884
 -16574171.74247 -12866256.58644  23471747.8834                   23471747.8444
 -11439596.79747  -8863066.32046  21526322.4534                   21526319.8984
 -51299926.41848 -39919277.27045  21378792.0234                   21378790.6254
 -31954787.05946 -24852114.57843  23724748.4224   23724749.3324   22459529.90246
  17548859.25443                  24381139.0164                   24381140.0434
 11  7 26  1 55 30.0000000  0  9G17G02G05G10G09G12G04G27G25
 -78223727.99647 -60900578.40245  23010044.3284                   23010043.9884
 -33499696.79748 -26054452.35546  20531759.2584                   20531755.3364
    -91698.07047    -20347.26645  22261532.1884                   22261531.1374
 -21479395.07048 -16695957.73046  20849888.0944                   20849886.4454
 -16597743.62546 -12884624.34044  23467261.4844                   23467262.1414
 -11604577.16047  -8991622.42646  21494927.5554                   21494925.7274
 -51327509.55948 -39940770.64545  21373543.0784                   21373541.6954
 -31992776.22346 -24881716.60943  23717519.8134   23717520.7934   22256752.66446
  17390851.08243                  24342552.0084                   24342552.9844
 11  7 26  1 56  0.0000000  0  9G17G02G05G10G09G12G04G27G25
 -78271678.52747 -60937942.47345  23000919.8674                   23000918.4924
 -33605712.78148 -26137062.20746  20511585.1414                   20511581.3204
   -287918.77347   -173246.43045  22224192.8984                   22224191.9774
 -21594013.95348 -16785271.10946  20828076.5704                   20828075.2854
 -16621068.47747 -12902799.59044  23462823.0784                   23462824.0204
 -11769114.53547  -9119833.34846  21463617.0554                   21463614.9024
 -51354872.78548 -39962092.64845  21368336.2504                   21368335.3204
 -32030622.37146 -24911207.19543  23710316.9304   23710317.8634   22054152.94546
  17232981.20343                  24303998.6094                   24304000.3364
 11  7 26  1 56 30.0000000  0  9G17G02G05G10G09G12G04G27G25
 -78319442.57847 -60975161.22745  22991831.0634                   22991830.0394
 -33711380.90248 -26219400.98846  20491476.9694                   20491473.5314
   -483847.24247   -325917.87945  22186908.8444                   22186907.8714
 -21707973.58248 -16874070.78946  20806390.7194                   20806389.1764
 -16644150.09447 -12920785.30144  23458430.7584                   23458431.7114
 -11933207.02048  -9247697.61346  21432391.8594                   21432389.1644
 -51382018.77348 -39983245.38345  21363170.6724                   21363169.5394
 -32068328.59846 -24940588.77343  23703142.1254   23703143.6954   21851732.87946
  17075251.34443                  24265478.8134                   24265480.8954
 11  7 26  1 57  0.0000000  0  9G17G02G05G10G09G12G04G27G25
 -78367017.77047 -61012232.83245  22982777.8834                   22982776.7584
 -33816700.50848 -26301468.20346  20471435.4304                   20471431.5394
   -679479.05147   -478358.15245  22149681.0314                   22149680.9024
 -21821271.11348 -16962354.55146  20784830.9694                   20784829.4454
 -16666990.37947 -12938582.98444  23454084.4454                   23454085.8594
 -12096850.61747  -9375212.09446  21401251.2734                   21401248.9264
 -51408947.76648 -40004229.01645  21358045.8364                   21358044.4964
 -32105895.91846 -24969862.10243  23695993.5554   23695994.8054   21649496.48846
  16917664.57443                  24226994.8364                   24226997.2154
 11  7 26  1 57 30.0000000  0  9G17G02G05G10G09G12G04G27G25
 -78414403.48047 -61049156.77745  22973760.3284                   22973759.2154
 -33921672.23048 -26383264.34446  20451459.8594                   20451456.4184
   -874810.87547   -630564.69145  22112510.7274                   22112509.4614
 -21933905.87548 -17050121.87146  20763397.2034                   20763395.7114
 -16689592.79746 -12956195.27744  23449781.8984                   23449783.6804
 -12260042.68747  -9502374.72746  21370196.9534                   21370194.9104
 -51435661.86348 -40025045.19145  21352962.3594                   21352961.3714
 -32143327.10546 -24999029.36344  23688870.2664   23688872.3164   21447446.65247
  16760223.13343                  24188547.0554                   24188549.1684
 11  7 26  1 58  0.0000000  0  9G17G02G05G10G09G12G04G27G25
 -78461597.71547 -61085931.53545  22964780.0084                   22964778.6254
 -34026295.48048 -26464788.94146  20431550.8834                   20431547.3524
  -1069838.26247   -782533.98845  22075398.3444                   22075397.3284
 -22045875.60948 -17137370.99246  20742090.3984                   20742088.7464
 -16711959.11747 -12973623.64144  23445527.4534                   23445528.1884
 -12422779.38748  -9629182.53146  21339229.2424                   21339227.1294
 -51462161.47748 -40045694.25045  21347919.9454                   21347918.2894
 -32180623.28546 -25028091.44943  23681773.8594   23681774.7584   21245587.43447
  16602930.24643                  24150134.7584                   24150136.9844
 11  7 26  1 58 30.0000000  0  9G17G02G05G10G09G12G04G27G25
 -76933179.57447 -59894956.37945  23255627.7504                   23255627.2424
 -32555149.09848 -25318441.11346  20711500.8524                   20711496.6804
    310867.19947    293340.47745  22338137.0474                   22338136.8594
 -20581756.97348 -15996499.29746  21020703.0864                   21020700.9064
 -15158673.02047 -11763270.87944  23741108.0554                   23741108.5234
 -11009633.91447  -8528030.19946  21608141.5474                   21608139.2194
 -49913028.97748 -38838578.02745  21642710.2424                   21642708.5554
 -30642367.11746 -23829450.38343  23974495.1254   23974495.4734   22619346.96147
  17673392.24644                  24411552.2974                   24411556.0904
 11  7 26  1 59  0.0000000  0  9G17G02G05G10G09G12G04G27G25
 -76979991.16047 -59931432.96545  23246720.3524                   23246719.3134
 -32659080.49648 -25399426.60546  20691722.9774                   20691719.4264
    116455.71547    141851.07845  22301142.3284                   22301141.7814
 -20692395.96548 -16082711.46946  20999648.9454                   20999647.3524
 -15180578.89146 -11780340.41444  23736939.2504                   23736940.3134
 -11171454.41047  -8654124.06246  21577348.0864                   21577345.8204
 -49939107.84848 -38858899.25045  21637747.4844                   21637746.2154
 -30679403.41446 -23858309.94943  23967446.1024                   23967448.3634
  22417874.93447  17516401.06344  24373213.5234                   24373216.8594
 11  7 26  1 59 30.0000000  0  9G17G02G05G10G09G12G04G27G25
 -77026610.21147 -59967759.49245  23237849.0704                   23237847.9184
 -32762666.92648 -25480143.29746  20672011.5634                   20672007.7114
    -77642.96547     -9394.56645  22264206.4454                   22264205.8324
 -20802368.25848 -16168404.13746  20978721.8594                   20978720.3014
 -15202259.26646 -11797234.29344  23732813.9304                   23732815.1334
 -11332812.87547  -8779857.90646  21546642.7504                   21546640.5314
 -49964978.96948 -38879058.59445  21632824.1724                   21632823.4304
 -30716313.53946 -23887071.16043  23960422.6644                   23960424.2274
  22216600.69147  17359564.00044  24334912.6564                   24334915.2194
 11  7 26  2  0  0.0000000  0  9G17G02G05G10G09G12G04G27G25
 -77073037.94947 -60003936.98045  23229013.7894                   23229012.7814
 -32865911.72348 -25560593.78146  20652364.2734                   20652360.8054
   -271427.98047   -160395.79745  22227330.6804                   22227329.7544
 -20911675.22748 -16253578.37146  20957921.2344                   20957919.9024
 -15223719.89146 -11813956.89543  23728730.0474                   23728729.9804
 -11493708.78547  -8905231.30946  21516025.1954                   21516022.5824
 -49990646.54748 -38899059.32045  21627939.8984                   21627938.9304
 -30753102.16446 -23915737.74244  23953422.1254                   23953424.1294
  22015524.90647  17202881.57044  24296649.1724                   24296652.0044
 11  7 26  2  0 30.0000000  0  9G17G02G05G10G09G12G04G27G25
 -77119278.28547 -60039968.43044  23220214.3754                   23220213.6884
 -32968819.68448 -25640781.77046  20632781.6564                   20632777.8874
   -464900.39547   -311153.44945  22190513.9534                   22190512.6524
 -21020320.16448 -16338236.74246  20937247.0004                   20937245.0704
 -15244967.85247 -11830513.78144  23724686.5704                   23724687.5554
 -11654144.25448  -9030245.92246  21485495.0474                   21485492.8324
 -50016116.55948 -38918906.10545  21623093.2894                   21623092.3204
 -30789776.20746 -23944315.04743  23946443.1724                   23946445.3524
  21814646.16847  17046352.69144  24258423.0084                   24258425.7114
 11  7 26  2  1  0.0000000  0  9G17G02G05G10G09G12G04G27G25
 -77165326.32046 -60075850.02044  23211451.2274                   23211450.8714
 -33071387.60948 -25720704.81646  20613263.9774                   20613260.2034
   -658053.10247   -461661.98445  22153758.0314                   22153757.3244
 -21128298.07448 -16422375.33646  20916699.2664                   20916697.1914
 -15266002.43447 -11846904.36743  23720683.7114                   23720684.2704
 -11814112.57048  -9154896.51646  21455054.3364                   21455052.1024
 -50041386.75848 -38938597.16045  21618284.2734                   21618282.8204
 -30826334.11746 -23972801.78943  23939487.2034                   23939488.1374
  21613971.24647  16889982.64144  24220236.0864                   24220238.3674
 11  7 26  2  1 30.0000000  0  9G17G02G05G10G09G12G04G27G25
 -77211187.37147 -60111585.91044  23202725.3914                   23202723.5944
 -33173622.59848 -25800368.45746  20593809.2664                   20593805.1334
   -850889.04747   -611923.68045  22117062.1724                   22117060.9064
 -21235614.76648 -16505998.71946  20896277.7584                   20896275.6254
 -15286832.96147 -11863136.00843  23716720.0474                   23716720.3914
 -11973617.35947  -9279185.91046  21424701.4384                   21424699.4804
 -50066465.30148 -38958138.89545  21613511.8984                   21613510.9534
 -30862784.65246 -24001204.90243  23932550.2664                   23932552.2034
  21413496.72346  16733768.77044  24182086.2194                   24182089.7544
 11  7 26  2  2  0.0000000  0  9G17G02G05G10G09G12G04G27G25
 -77256857.02046 -60147172.67644  23194034.2664                   23194032.7894
 -33275521.71948 -25879770.37146  20574418.1174                   20574414.5354
  -1043401.15647   -761933.03945  22080428.3364                   22080426.9024
 -21342265.34448 -16589103.03546  20875982.6484                   20875980.9144
 -15307458.67647 -11879208.03544  23712794.8284                   23712795.1844
 -12132652.14147  -9403109.06246  21394437.8754                   21394436.2894
 -50091349.88348 -38977529.49645  21608776.3054                   21608775.4654
 -30899126.20746 -24029523.02343  23925635.5944                   23925636.7774
  21213229.41046  16577716.37144  24143976.9844                   24143979.4734
 11  7 26  2  2 30.0000000  0  9G17G02G05G10G09G12G04G27G25
 -77302338.24247 -60182612.57444  23185379.8134                   23185377.9614
 -33377089.88748 -25958914.38346  20555090.5634                   20555086.3714
  -1235590.71547   -911691.05946  22043855.5634                   22043854.6024
 -21448253.27748 -16671691.02046  20855813.9224                   20855812.2544
 -15327886.88747 -11895126.14544  23708907.6954                   23708907.8164
 -12291218.28948  -9526667.04746  21364263.8444                   21364262.1334
 -50116046.46148 -38996773.60545  21604076.8834                   21604076.4694
 -30935365.37546 -24057761.45344  23918739.0864                   23918740.5234
  21013168.10546  16421824.51643  24105906.4924                   24105909.0044
 11  7 26  2  3  0.0000000  0  9G17G02G05G10G09G12G04G27G25
 -77347630.19947 -60217904.98844  23176760.4304                   23176759.1524
 -33478327.18048 -26037800.56246  20535825.5164                   20535821.5634
  -1427453.78947  -1061194.68045  22007345.5474                   22007343.9224
 -21553577.29748 -16753761.65646  20835771.3524                   20835769.5004
 -15348120.18747 -11910892.43744  23705057.3914                   23705057.3754
 -12449312.76248  -9649857.48846  21334179.6414                   21334177.3984
 -50140556.21148 -39015872.13745  21599412.8594                   21599411.8014
 -30971504.51246 -24085921.89844  23911861.5474                   23911863.8244
  20813316.05546  16266095.71943  24067875.8054                   24067878.4804
 11  7 26  2  3 30.0000000  0  9G17G02G05G10G09G12G04G27G25
 -77392732.01247 -60253049.27344  23168178.0944                   23168177.2624
 -33579234.67648 -26116429.76246  20516623.7034                   20516619.9304
  -1618987.33247  -1210441.52745  21970897.8834                   21970896.5744
 -21658236.87548 -16835314.53946  20815855.2664                   20815853.7584
 -15368162.03147 -11926509.50044  23701243.9454                   23701244.2974
 -12606933.26648  -9772678.61746  21304185.2974                   21304183.1804
 -50164881.32448 -39034826.75445  21594783.7814                   21594783.1454
 -31007546.07446 -24114006.27743  23905003.4224                   23905005.7274
  20613676.05547  16110532.09443  24029885.4384                   24029887.3754
 11  7 26  2  4  0.0000000  0  9G17G02G05G10G09G12G04G27G25
 -77437641.87547 -60288043.97344  23159632.2114                   23159630.9804
 -33679811.68048 -26194801.44946  20497484.4384                   20497480.7274
  -1810186.87147  -1359428.09845  21934513.6414                   21934512.4454
 -21762229.81648 -16916347.98446  20796066.0394                   20796064.4804
 -15388013.75447 -11941978.43744  23697466.5704                   23697466.7854
 -12764076.04748  -9895127.48846  21274281.8524                   21274279.7034
 -50189021.71948 -39053637.44545  21590190.4694                   21590189.2664
 -31043491.22746 -24142015.55543  23898162.8134                   23898165.0354
  20414252.37147  15955137.07043  23991936.2814                   23991937.9774
 11  7 26  2  4 30.0000000  0  9G17G02G05G10G09G12G04G27G25
 -77482359.39547 -60322888.81244  23151122.6174                   23151121.6604
 -33780059.94548 -26272916.97746  20478407.8984                   20478403.8244
  -2001049.80147  -1508152.37946  21898193.8594                   21898192.7114
 -21865556.24248 -16996862.05946  20776403.3594                   20776401.4964
 -15407679.50447 -11957302.46144  23693723.5704                   23693724.3404
 -12920738.95347 -10017202.43746  21244469.5474                   21244467.7734
 -50212980.03148 -39072306.23445  21585630.7734                   21585630.0004
 -31079342.96546 -24169952.04743  23891341.0314                   23891342.7974
  20215047.40647  15799912.46943  23954029.4304                   23954030.8094
 11  7 26  2  5  0.0000000  0  9G17G02G05G10G09G12G04G27G25
 -77526888.92647 -60357587.14544  23142649.5004                   23142647.6174
 -33879985.13748 -26350780.74646  20459392.6094                   20459388.9144
  -2191578.13347  -1656615.94546  21861937.3754                   21861936.0234
 -21968220.54348 -17076860.19946  20756867.2894                   20756865.5274
 -15427167.57047 -11972488.03944  23690015.0234                   23690016.4224
 -13076924.98448 -10138905.80946  21214748.8284                   21214746.5314
 -50236763.02048 -39090838.41445  21581105.1954                   21581104.3714
 -31115109.14846 -24197821.85943  23884534.9774                   23884536.6294
  20016058.79347  15644856.41843  23916162.4224                   23916163.7074
 11  7 26  2  5 30.0000000  0  9G17G02G05G10G09G12G04G27G25
 -77571227.62147 -60392136.77344  23134211.8204                   23134210.3054
 -33979585.82448 -26428391.63346  20440439.3054                   20440435.5864
  -2381766.64147  -1804814.69946  21825745.5634                   21825744.9064
 -22070219.89148 -17156340.19546  20737457.4064                   20737455.7774
 -15446478.66046 -11987535.66444  23686340.9454                   23686341.7854
 -13232629.19148 -10260233.71546  21185119.3204                   21185116.7504
 -50260370.07847 -39109233.52345  21576613.0634                   21576612.3134
 -31150789.92246 -24225625.12943  23877745.3914                   23877747.2664
  19817291.66447  15489972.98443  23878338.9844                   23878339.7274
 11  7 26  2  6  0.0000000  0  9G17G02G05G10G09G12G04G27G25
 -76039953.73447 -59198936.35944  23425603.3134                   23425602.1684
 -32503440.25448 -25278148.30546  20721340.6564                   20721336.6334
   -996186.40647   -725141.72746  22089412.5084                   22089411.7074
 -20596130.82048 -16007699.34046  21017967.0234                   21017965.4734
 -13890195.91847 -10774847.87544  23982491.5234                   23982493.1524
 -11812424.20348  -9153580.45346  21455375.1024                   21455372.6764
 -48708382.89848 -37899892.85945  21871946.4844                   21871945.8204
 -29610967.06646 -23025763.21143  24170763.5944                   24170764.9534
  21194174.92247  16562869.11344  24140349.9774                   24140351.8204
 11  7 26  2  6 30.0000000  0  9G17G02G05G10G09G12G04G27G25
 -76083911.07847 -59233188.83644  23417238.5944                   23417237.7974
 -32602397.34048 -25355257.69146  20702509.3594                   20702505.2234
  -1185688.35247   -872805.49646  22053351.7734                   22053350.6094
 -20696801.42648 -16086143.95346  20998810.4924                   20998808.6024
 -13909165.12947 -10789629.12944  23978881.9144                   23978883.2664
 -11967159.95748  -9274153.73446  21425929.9774                   21425927.6254
 -48731646.19148 -37918020.07845  21867519.9064                   21867518.6484
 -29646486.78546 -23053440.98443  24164004.0164                   24164005.9534
  20995856.74247  16408335.58244  24102611.2274                   24102612.7034
 11  7 26  2  7  0.0000000  0  9G17G02G05G10G09G12G04G27G25
 -76127676.99247 -59267292.14544  23408910.6484                   23408909.1994
 -32701033.91048 -25432117.31646  20683739.6254                   20683735.6334
  -1374842.78547  -1020198.48845  22017356.4384                   22017355.3094
 -20796807.13748 -16164070.47746  20979779.7274                   20979778.0824
 -13927968.05946 -10804280.84843  23975303.9774                   23975305.4804
 -12121408.05948  -9394347.03546  21396577.4064                   21396575.0204
 -48754740.22748 -37936015.40645  21863125.0784                   21863124.0664
 -29681930.09846 -23081059.23443  24157259.6094                   24157261.4964
  20797767.13747  16253980.18044  24064916.3524                   24064917.4844
 11  7 26  2  7 30.0000000  0  9G17G02G05G10G09G12G04G27G25
 -76171248.93447 -59301244.32444  23400618.4384                   23400617.4304
 -32799349.36748 -25508726.75846  20665030.7504                   20665027.1644
  -1563644.78947  -1167316.84446  21981428.7504                   21981427.6564
 -20896145.74248 -16241477.16046  20960876.3524                   20960874.6844
 -13946606.59847 -10818804.38744  23971757.3134                   23971758.7274
 -12275164.32448  -9514157.09446  21367318.4384                   21367316.5474
 -48777665.31648 -37953879.10245  21858762.3364                   21858761.2074
 -29717297.67246 -23108618.42243  24150530.3914                   24150531.4064
  20599910.72747  16099806.41444  24027265.2194                   24027267.5274
 11  7 26  2  8  0.0000000  0  9G17G02G05G10G09G12G04G27G25
 -76214627.45347 -59335045.75844  23392363.8054                   23392362.7854
 -32897345.96948 -25585087.71146  20646382.6564                   20646378.5164
  -1752092.02747  -1314158.77346  21945568.1414                   21945567.2194
 -20994818.11747 -16318364.70346  20942099.4064                   20942097.4804
 -13965084.78947 -10833203.04344  23968241.3594                   23968242.3364
 -12428427.43748  -9633582.86746  21338153.4224                   21338152.0634
 -48800423.96548 -37971613.09445  21854431.7664                   21854430.7074
 -29752593.25846 -23136121.50843  24143812.9774                   24143814.3524
  20402289.15247  15945815.73444  23989658.8674                   23989660.7934
 11  7 26  2  8 30.0000000  0  9G17G02G05G10G09G12G04G27G25
 -76257812.92247 -59368696.79344  23384146.4844                   23384144.6764
 -32995025.17248 -25661201.35246  20627795.1954                   20627791.4344
  -1940183.01247  -1460723.09446  21909775.9774                   21909774.3444
 -21092824.64148 -16394733.39846  20923449.3674                   20923447.6914
 -13983406.90247 -10847480.05144  23964754.8524                   23964755.8794
 -12581195.93048  -9752623.23846  21309082.7504                   21309080.6254
 -48823018.99648 -37989219.60545  21850132.0004                   21850130.8484
 -29787820.19546 -23163571.12143  24137109.7344                   24137112.1844
  20204904.36747  15792009.57044  23952098.0704                   23952100.0514
 11  7 26  2  9  0.0000000  0  9G17G02G05G10G09G12G04G27G25
 -76300805.13347 -59402197.21144  23375964.7664                   23375963.2934
 -33092388.63748 -25737068.96546  20609267.2894                   20609263.1524
  -2127915.03547  -1607007.70346  21874051.3054                   21874050.1374
 -21190165.81648 -16470583.65246  20904926.3594                   20904924.3134
 -14001576.88747 -10861638.48043  23961296.7194                   23961297.5784
 -12733468.28148  -9871277.00446  21280106.5554                   21280104.3874
 -48845452.86347 -38006700.53145  21845862.8284                   21845861.4614
 -29822981.75446 -23190969.77743  24130419.5084                   24130420.5704
  20007758.55147  15638389.61744  23914582.5234                   23914584.3554
 11  7 26  2  9 30.0000000  0  9G17G02G05G10G09G12G04G27G25
 -76343603.33647 -59435546.45744  23367820.8754                   23367819.4884
 -33189436.84448 -25812690.91846  20590799.4844                   20590795.4144
  -2315285.14847  -1753010.29746  21838396.2664                   21838395.3524
 -21286841.24248 -16545915.12946  20886529.2034                   20886527.6214
 -14019597.35247 -10875680.41844  23957867.6024                   23957869.1094
 -12885242.26648  -9989542.43446  21251224.1254                   21251222.1094
 -48867727.09048 -38024057.05945  21841624.0784                   21841622.7504
 -29858080.21946 -23218319.28943  24123740.5164                   24123741.9414
  19810854.68447  15484958.14544  23877113.3054                   23877114.2234
 11  7 26  2 10  0.0000000  0  9G17G02G05G10G09G12G04G27G25
 -76386208.29747 -59468745.14844  23359713.6564                   23359712.2154
 -33286172.49648 -25888069.31646  20572391.1724                   20572387.5124
  -2502291.58647  -1898729.52346  21802809.9224                   21802808.8014
 -21382852.00448 -16620728.68446  20868259.1254                   20868257.2704
 -14037472.87947 -10889609.44144  23954466.0704                   23954466.7894
 -13036516.35948 -10107418.34846  21222437.9454                   21222435.9804
 -48889844.52747 -38041291.41445  21837415.3834                   21837414.0274
 -29893119.35246 -23245622.54743  24117071.7274                   24117074.3134
  19614194.34847  15331716.39544  23839689.6174                   23839691.1214
 11  7 26  2 10 30.0000000  0  9G17G02G05G10G09G12G04G27G25
 -76428621.11747 -59501794.09844  23351642.6564                   23351640.8054
 -33382598.16048 -25963206.17246  20554042.1484                   20554038.0164
  -2688932.85547  -2044164.20746  21767292.9614                   21767291.9454
 -21478199.46148 -16695025.38746  20850115.3914                   20850112.8404
 -14055208.54346 -10903429.44143  23951090.0554                   23951091.6524
 -13187290.58648 -10224904.73446  21193746.1174                   21193744.3054
 -48911808.44148 -38058406.13345  21833235.9614                   21833234.3054
 -29928103.54746 -23272882.97743  24110415.3444                   24110416.5554
  19417778.63347  15178665.32044  23802313.1884                   23802314.1764
 11  7 26  2 11  0.0000000  0  9G17G02G05G10G09G12G04G27G25
 -76470843.80547 -59534694.89544  23343607.8054                   23343606.5004
 -33478717.63748 -26038104.43046  20535751.1024                   20535747.1844
  -2875208.91848  -2189314.31246  21731845.7974                   21731844.7894
 -21572886.48847 -16768807.45746  20832096.8674                   20832094.7154
 -14072810.19146 -10917145.02743  23947741.4774                   23947741.8244
 -13337565.28948 -10342001.88746  21165150.0704                   21165147.9884
 -48933623.82848 -38075405.11345  21829084.5704                   21829082.9614
 -29963038.27046 -23300104.85943  24103767.7504                   24103768.2704
  19221607.48847  15025804.80144  23764982.1024                   23764983.3674
 11  7 26  2 11 30.0000000  0  9G17G02G05G10G09G12G04G27G25
 -76512872.54347 -59567444.57444  23335609.7424                   23335608.7304
 -33574528.27048 -26112762.05546  20517518.9844                   20517515.2114
  -3061113.62147  -2334175.03946  21696469.5634                   21696468.0594
 -21666909.62947 -16842072.21546  20814204.6724                   20814203.2814
 -14090277.56246 -10930756.00843  23944417.5164                   23944418.3054
 -13487334.51648 -10458705.15646  21136650.3364                   21136647.9774
 -48955288.87147 -38092286.94945  21824961.6484                   21824960.5554
 -29997922.71146 -23327287.59043  24097129.2114                   24097130.8014
  19025687.12947  14873139.68844  23727700.1174                   23727701.5594
 11  7 26  2 12  0.0000000  0  9G17G02G05G10G09G12G04G27G25
 -76554706.46947 -59600042.45344  23327649.5474                   23327647.9264
 -33670030.72348 -26187179.52046  20499345.6334                   20499341.7074
  -3246643.84047  -2478743.96146  21661164.1414                   21661162.6214
 -21760268.12547 -16914819.06646  20796438.9454                   20796437.2074
 -14107613.62147 -10944264.63343  23941118.7034                   23941119.5864
 -13636596.00448 -10575012.78546  21108246.6414                   21108244.2704
 -48976804.85248 -38109052.64845  21820867.3594                   21820866.3524
 -30032758.81246 -23354432.66443  24090499.5864                   24090500.7854
  18830020.82447  14720672.49644  23690466.3834                   23690467.8984
 11  7 26  2 12 30.0000000  0  9G17G02G05G10G09G12G04G27G25
 -76596349.35247 -59632491.44944  23319725.1954                   23319723.9414
 -33765230.51248 -26261361.16046  20481229.6254                   20481225.5274
  -3431801.07447  -2623022.25846  21625929.7894                   21625928.9694
 -21852966.31647 -16987051.38346  20778799.0474                   20778797.3754
 -14124825.94547 -10957676.88343  23937843.5944                   23937845.0004
 -13785351.94948 -10690926.48446  21079939.5634                   21079937.0634
 -48998177.80548 -38125706.89145  21816800.2974                   21816798.7154
 -30067553.66446 -23381545.49243  24083878.4064                   24083880.0664
  18634606.93847  14568401.97744  23653279.6884                   23653281.8244
 11  7 26  2 13  0.0000000  0  9G17G02G05G10G09G12G04G27G25
 -76637799.81647 -59664790.52744  23311836.4774                   23311835.5314
 -33860128.03148 -26335307.27346  20463170.8984                   20463166.9694
  -3616581.01648  -2767006.55946  21590767.5474                   21590765.9924
 -21945003.57447 -17058768.70346  20761284.9454                   20761283.1254
 -14141916.85547 -10970994.51244  23934590.7504                   23934592.1024
 -13933598.93748 -10806443.59046  21051728.8594                   21051726.5594
 -49019408.78948 -38142250.48045  21812760.4694                   21812758.9064
 -30102308.93446 -23408627.51643  24077265.4924                   24077265.5664
  18439449.10947  14416330.97344  23616142.2664                   23616144.6414
 11  7 26  2 13 30.0000000  0  9G17G02G05G10G09G12G04G27G25
 -76679059.27747 -59696940.74644  23303985.2504                   23303984.6334
 -33954725.98048 -26409019.94546  20445169.5944                   20445165.8634
  -3800982.83647  -2910696.22346  21555676.6804                   21555675.5824
 -22036381.77348 -17129972.46146  20743896.2814                   20743894.4774
 -14158891.31647 -10984221.37144  23931360.8364                   23931361.9454
 -14081336.92648 -10921564.05946  21023615.1954                   21023612.8204
 -49040501.26248 -38158686.14845  21808746.0474                   21808744.8594
 -30137029.11746 -23435682.23043  24070658.4384                   24070659.7974
  18244548.24247  14264460.22744  23579054.0004                   23579056.1564
 11  7 26  2 14  0.0000000  0  9G17G02G05G10G09G12G04G27G25
 -75144702.59047 -58501338.10944  23595963.7734                   23595963.2034
 -32473599.04748 -25254895.03946  20727018.8284                   20727014.9534
  -2409574.59048  -1826481.94546  21820453.4924                   21820452.2154
 -20551675.00847 -15973058.07446  21026426.3674                   21026425.1684
 -12600329.39847  -9769757.53544  24227945.8674                   24227946.4104
 -12653136.07048  -9808680.24646  21295392.4534                   21295390.0554
 -47486033.37548 -36947412.46145  22104551.5784                   22104550.3754
 -28596292.78146 -22235108.46542  24363850.6094                   24363852.5594
  19625336.61347  15340399.23043  23841809.2504                   23841810.0824
 11  7 26  2 14 30.0000000  0  9G17G02G05G10G09G12G04G27G25
 -75185572.21947 -58533184.57444  23588187.0704                   23588185.9614
 -32567594.58248 -25328138.28546  20709131.7894                   20709128.0904
  -2593205.85248  -1969571.18746  21785509.1884                   21785507.5314
 -20641729.59048 -16043230.44546  21009290.0164                   21009288.2774
 -12617075.25847  -9782806.23044  24224758.7894                   24224759.9924
 -12799844.26648  -9922998.27046  21267474.8674                   21267472.5744
 -47506848.14548 -36963631.75045  22100590.3674                   22100589.3134
 -28630944.77046 -22262110.06642  24357256.4844                   24357258.6604
  19430963.89547  15188939.93843  23804821.4534                   23804821.3634
 11  7 26  2 15  0.0000000  0  9G17G02G05G10G09G12G04G27G25
 -75226253.00447 -58564883.87944  23580445.7504                   23580444.2464
 -32661297.46148 -25401153.48846  20691300.9534                   20691297.2734
  -2776454.43747  -2112362.22746  21750637.8204                   21750636.2704
 -20731129.21947 -16112892.46946  20992277.3054                   20992275.8164
 -12633717.84847  -9795774.49644  24221592.1024                   24221592.0634
 -12946041.04748 -10036917.79746  21239654.3984                   21239652.2974
 -47527533.25048 -36979750.00445  22096654.5784                   22096653.5004
 -28665573.41046 -22289093.48442  24350666.4304                   24350669.1884
  19236852.73447  15037684.59843  23767882.8754                   23767883.6134
 11  7 26  2 15 30.0000000  0  9G17G02G05G10G09G12G04G27G25
 -75266739.08247 -58596431.44144  23572741.4224                   23572740.0204
 -32754703.43748 -25473937.34846  20673526.4224                   20673522.0744
  -2959312.43047  -2254848.91846  21715841.3054                   21715839.7974
 -20819868.66848 -16182040.06646  20975390.7894                   20975389.0204
 -12650255.64547  -9808661.10544  24218445.1254                   24218445.8634
 -13091718.93048 -10150433.00846  21211933.1564                   21211930.5044
 -47548085.27348 -36995764.57045  22092744.1094                   22092742.3014
 -28700175.86746 -22316056.46542  24344082.3284                   24344084.7384
  19043011.07447  14886639.16044  23730995.6564                   23730997.5164
 11  7 26  2 16  0.0000000  0  9G17G02G05G10G09G12G04G27G25
 -75307031.95747 -58627828.47744  23565073.2034                   23565072.3954
 -32847815.57848 -25546492.25446  20655807.6484                   20655803.4844
  -3141778.59448  -2397030.28946  21681118.6884                   21681117.6844
 -20907950.16048 -16250674.97346  20958629.5394                   20958627.7194
 -12666693.82847  -9821470.09443  24215316.4304                   24215317.9774
 -13236877.71948 -10263543.72346  21184310.3914                   21184307.7344
 -47568507.84048 -37011678.25445  22088857.5554                   22088855.9064
 -28734756.51646 -22343002.51242  24337501.8754                   24337505.0204
  18849439.87147  14735804.52744  23694159.5704                   23694162.2504
 11  7 26  2 16 30.0000000  0  9G17G02G05G10G09G12G04G27G25
 -75347132.37147 -58659075.53944  23557442.4924                   23557441.6134
 -32940635.81248 -25618819.69146  20638144.4534                   20638140.6644
  -3323851.46548  -2538905.19546  21646471.6094                   21646470.1214
 -20995375.25048 -16318798.38746  20941992.9614                   20941991.4144
 -12683036.43046  -9834204.61344  24212207.3524                   24212207.4534
 -13381517.00448 -10376249.62946  21156786.1884                   21156783.9534
 -47588803.56647 -37027493.13345  22084994.8204                   22084994.3134
 -28769319.06246 -22369934.39142  24330925.4064                   24330927.5944
  18656140.80947  14585181.92244  23657377.4924                   23657379.4924
 11  7 26  2 17  0.0000000  0  9G17G02G05G10G09G12G04G27G25
 -75387038.86747 -58690171.49644  23549848.6954                   23549847.7074
 -33033164.44948 -25690919.89546  20620536.9224                   20620533.0554
  -3505527.32848  -2680470.74246  21611899.8754                   21611898.2074
 -21082143.26648 -16386409.80546  20925482.2034                   20925479.9414
 -12699285.82447  -9846866.47343  24209115.2424                   24209115.5634
 -13525633.68748 -10488548.32446  21129361.9064                   21129359.5434
 -47608973.39148 -37043209.90245  22081157.0004                   22081155.9884
 -28803865.32446 -22396853.55143  24324351.1174                   24324353.1174
  18463117.48447  14434774.19144  23620645.9224                   23620648.0634
 11  7 26  2 17 30.0000000  0  9G17G02G05G10G09G12G04G27G25
 -75426751.89147 -58721116.70744  23542291.4384                   23542290.8204
 -33125403.47748 -25762794.44546  20602984.5234                   20602980.4614
  -3686804.34848  -2821725.50046  21577403.9614                   21577402.8284
 -21168255.36348 -16453510.11346  20909095.1954                   20909093.3134
 -12715446.21146  -9859458.98443  24206039.1644                   24206041.0514
 -13669226.93448 -10600439.14546  21102036.9224                   21102034.5554
 -47629019.96547 -37058830.62545  22077342.0634                   22077341.6724
 -28838398.92645 -22423762.87543  24317778.7344                   24317781.1214
  18270371.62947  14284582.68844  23583968.4224                   23583970.1094
 11  7 26  2 18  0.0000000  0  9G17G02G05G10G09G12G04G27G25
 -75466274.14847 -58751913.26644  23534770.3834                   23534769.7894
 -33217356.82048 -25834446.39546  20585486.1884                   20585482.1884
  -3867682.78948  -2962669.68746  21542984.0634                   21542982.7304
 -21253714.74248 -16520101.82046  20892832.6484                   20892831.1954
 -12731523.64847  -9871986.83243  24202979.6414                   24202981.2664
 -13812297.32848 -10711922.54346  21074811.6804                   21074809.4414
 -47648947.89547 -37074358.87945  22073549.6334                   22073549.1024
 -28872925.50846 -22450666.75842  24311209.1334                   24311211.5594
  18077903.18847  14134607.31644  23547342.4224                   23547344.6724
 11  7 26  2 18 30.0000000  0  9G17G02G05G10G09G12G04G27G25
 -75505603.46547 -58782559.48044  23527286.9774                   23527285.3794
 -33309024.05148 -25905875.39846  20568042.3524                   20568038.5944
  -4048158.53148  -3103300.08246  21508640.4224                   21508638.8674
 -21338520.60948 -16586184.28546  20876694.7584                   20876692.9574
 -12747519.71946  -9884451.32043  24199936.1724                   24199937.6884
 -13954841.66048 -10822996.03146  21047686.0634                   21047684.1454
 -47668757.27347 -37089794.76645  22069780.6564                   22069779.9304
 -28907445.85246 -22477565.82043  24304639.8444                   24304643.0234
  17885716.21547  13984851.30544  23510770.0004                   23510772.2584
 11  7 26  2 19  0.0000000  0  9G17G02G05G10G09G12G04G27G25
 -75544739.89847 -58813055.40244  23519839.6174                   23519837.7304
 -33400407.14148 -25977082.97746  20550652.7424                   20550648.8444
  -4228229.02348  -3243614.68446  21474374.2974                   21474372.9454
 -21422673.65248 -16651758.07046  20860680.9304                   20860679.2584
 -12763438.37146  -9896855.47343  24196906.8754                   24196907.6094
 -14096858.34048 -10933658.35946  21020661.3674                   21020659.0904
 -47688450.45347 -37105140.12945  22066033.1484                   22066031.6564
 -28941962.97346 -22504462.31243  24298071.9534                   24298074.1994
  17693813.17247  13835316.49644  23474252.5084                   23474253.6374
 11  7 26  2 19 30.0000000  0  9G17G02G05G10G09G12G04G27G25
 -75583681.89846 -58843399.83244  23512428.6884                   23512427.9224
 -33491505.79748 -26048068.93746  20533317.2664                   20533313.4264
  -4407890.48847  -3383610.58246  21440185.6954                   21440184.1884
 -21506173.11347 -16716822.58246  20844791.4774                   20844789.7344
 -12779281.41446  -9909200.70343  24193892.1174                   24193892.9104
 -14238344.21548 -11043907.08246  20993737.2344                   20993735.6414
 -47708027.44147 -37120394.93745  22062307.8594                   22062306.4224
 -28976478.28546 -22531357.41442  24291503.2974                   24291506.1334
  17502197.96947  13686006.03144  23437789.0474                   23437790.4804
 11  7 26  2 20  0.0000000  0  9G17G02G05G10G09G12G04G27G25
 -75622429.31247 -58873592.58644  23505056.1724                   23505054.4924
 -33582321.16848 -26118834.15646  20516035.8834                   20516032.1524
  -4587140.35548  -3523285.75846  21406075.5864                   21406073.9964
 -21589019.58647 -16781378.26646  20829025.9774                   20829024.6214
 -12795052.18746  -9921489.65643  24190890.2504                   24190891.7464
 -14379297.58248 -11153740.87146  20966914.8134                   20966912.6174
 -47727490.39847 -37135560.88345  22058604.1024                   22058603.0274
 -29010994.47346 -22558253.14543  24284935.8674                   24284937.7424
  17310873.28947  13536921.91844  23401380.8674                   23401382.9224
 11  7 26  2 20 30.0000000  0  9G17G02G05G10G09G12G04G27G25
 -75660985.57447 -58903636.41844  23497718.6254                   23497717.6844
 -33672857.93748 -26189382.26246  20498807.3134                   20498803.2424
  -4765980.00047  -3662641.25446  21372043.6174                   21372042.0124
 -21671217.31648 -16845428.44146  20813384.4534                   20813382.6724
 -12810757.89146  -9933727.92643  24187901.8524                   24187902.4884
 -14519720.65648 -11263161.44546  20940193.2814                   20940191.0554
 -47746844.74247 -37150642.19545  22054921.0394                   22054919.4304
 -29045518.30145 -22585154.86342  24278365.5944                   24278368.0394
  17119837.82847  13388063.15244  23365028.5554                   23365029.7304
 11  7 26  2 21  0.0000000  0  9G17G02G05G10G09G12G04G27G25
 -75699349.15647 -58933530.10944  23490418.3524                   23490417.5984
 -33763116.66448 -26259713.72746  20481631.6334                   20481627.6414
  -4944405.59048  -3801674.12946  21338089.8594                   21338088.4884
 -21752765.96547 -16908972.84046  20797866.3914                   20797864.8634
 -12826400.60246  -9945917.04343  24184925.7424                   24184926.4844
 -14659610.54748 -11372166.54746  20913573.0394                   20913570.8324
 -47766091.02347 -37165639.29345  22051258.6724                   22051257.1844
 -29080051.19145 -22612063.73442  24271795.0554                   24271797.9024
  16929095.35947  13239432.73044  23328731.2424                   23328732.4384
 11  7 26  2 21 30.0000000  0  9G17G02G05G10G09G12G04G27G25
 -75737517.32447 -58963271.52744  23483155.7504                   23483154.0824
 -33853096.27048 -26329827.69946  20464509.1254                   20464505.0314
  -5122412.45348  -3940380.72346  21304216.7894                   21304215.1954
 -21833664.17647 -16972010.39846  20782472.1334                   20782469.5594
 -12841981.58246  -9958058.09843  24181960.8834                   24181962.0274
 -14798963.24648 -11480753.05546  20887055.1334                   20887052.7274
 -47785229.08647 -37180552.06645  22047616.8284                   22047615.7624
 -29114593.83245 -22638980.10242  24265222.1334                   24265224.1724
  16738650.64847  13091034.30144  23292491.0474                   23292492.0234
 11  7 26  2 22  0.0000000  0  9G17G02G05G10G09G12G04G27G25
 -74200070.52046 -57765261.05144  23775720.9224                   23775720.9414
 -32367376.49648 -25172123.96546  20747232.2114                   20747227.9924
  -3724573.73848  -2851155.69546  21570216.1884                   21570215.0004
 -20338491.25448 -15806940.57446  21066993.9064                   21066992.5394
 -11282084.94546  -8742554.24243  24478799.0704                   24478800.3794
 -13362353.94948 -10361317.23446  21160432.5004                   21160430.3014
 -46228841.28947 -35967782.33245  22343787.7034                   22343786.5514
 -27573729.020 5                  24558436.836
  18123931.26647  14170473.80144  23556101.3284                   23556102.0434
 11  7 26  2 22 30.0000000  0  9G17G02G05G10G09G12G04G27G25
 -74237852.48846 -57794701.50044  23768531.9384                   23768530.6174
 -32456806.10248 -25241809.35246  20730214.3204                   20730210.1764
  -3901740.25047  -2989207.47746  21536502.7424                   21536501.1724
 -20418095.22348 -15868969.63746  21051845.8754                   21051844.3444
 -11297556.88746  -8754610.32443  24475854.9844                   24475855.1294
 -13500631.97748 -10469066.32846  21134119.3524                   21134117.2384
 -46247772.43747 -35982533.87145  22340185.1804                   22340184.2934
 -27608303.60215                  24551859.086
  17934085.43847  14022542.08644  23519973.8754                   23519975.2854
 11  7 26  2 23  0.0000000  0  9G17G02G05G10G09G12G04G27G25
 -74275439.85247 -57823990.35544  23761378.8834                   23761378.2624
 -32545961.70348 -25311281.23046  20713248.1724                   20713244.5124
  -4078482.01247  -3126928.27046  21502869.6414                   21502868.1054
 -20497052.07848 -15930494.44946  21036821.2194                   21036819.3594
 -11312978.28946  -8766627.02743  24472920.6884                   24472920.9384
 -13638369.26248 -10576394.05946  21107908.5084                   21107906.7974
 -46266601.65247 -35997205.97345  22336602.0234                   22336600.8754
 -27642897.19946 -21459515.81652  24545276.0944                   24545277.6724
  17744543.87947  13874847.44144  23483905.8364                   23483907.1804
 11  7 26  2 23 30.0000000  0  9G17G02G05G10G09G12G04G27G25
 -74312833.32446 -57853128.10544  23754262.7584                   23754262.2974
 -32634845.30948 -25380541.16046  20696334.4924                   20696330.5314
  -4254797.40247  -3264316.83646  21469318.0314                   21469316.2704
 -20575363.76648 -15991516.52046  21021918.5864                   21021916.6604
 -11328353.09446  -8778607.38743  24469993.8524                   24469995.8094
 -13775564.95348 -10683299.76246  21081801.2504                   21081798.8954
 -46285331.56247 -36011800.71145  22333037.9454                   22333036.6604
 -27677513.20346 -21486489.35242  24538689.3914                   24538691.1134
  17555308.34847  13727391.27344  23447894.8984                   23447896.5314
 11  7 26  2 24  0.0000000  0  9G17G02G05G10G09G12G04G27G25
 -74350032.26647 -57882114.28144  23747185.1174                   23747183.2934
 -32723457.58248 -25449589.66846  20679472.0634                   20679468.2664
  -4430683.13347  -3401370.60246  21435848.0234                   21435846.5164
 -20653030.55548 -16052036.07846  21007139.1954                   21007137.2854
 -11343683.88746  -8790553.51643  24467077.0944                   24467078.5944
 -13912217.12548 -10789781.93446  21055797.3204                   21055794.6724
 -46303963.27747 -36026318.93445  22329492.3594                   22329491.4574
 -27712153.71145 -21513481.91442  24532096.8984                   24532099.7234
  17366382.07047  13580176.08244  23411942.8754                   23411945.1454
 11  7 26  2 24 30.0000000  0  9G17G02G05G10G09G12G04G27G25
 -74387036.90647 -57910949.06244  23740143.5164                   23740142.2974
 -32811800.41448 -25518428.20346  20662660.9534                   20662656.7774
  -4606137.57047  -3538088.28146  21402460.0474                   21402458.3164
 -20730053.96548 -16112054.28546  20992481.7664                   20992479.9844
 -11358974.75046  -8802468.50043  24464167.7424                   24464169.6054
 -14048324.87148 -10895839.88746  21029896.9614                   21029894.3874
 -46322499.30147 -36040762.56645  22325965.0084                   22325964.1174
 -27746822.17246 -21540496.44542  24525500.0784                   24525502.6094
  17177766.85247  13433203.29344  23376051.5554                   23376053.2774
 11  7 26  2 25  0.0000000  0  8G17G02G05G10G09G12G04G25
 -74423845.40646 -57939631.02344  23733138.2814                   23733137.4344
 -32899873.28948 -25587056.38346  20645901.4694                   20645897.5274
  -4781156.57047  -3674466.68046  21369155.1094                   21369153.6804
 -20806433.01248 -16171570.39146  20977947.6254                   20977945.5904
 -11374227.38346  -8814353.73843  24461265.8594                   24461266.2154
 -14183884.46548 -11001470.70346  21004100.3364                   21004098.2544
 -46340939.59447 -36055131.60545  22322455.9384                   22322454.6374
  16989467.09447  13286476.30944  23340218.8524                   23340220.5864
 11  7 26  2 25 30.0000000  0  8G17G02G05G10G09G12G04G25
 -74460457.24647 -57968159.71944  23726171.6174                   23726170.5744
 -32987677.43448 -25655475.16446  20629192.9304                   20629188.7154
  -4955737.49247  -3810503.70346  21335933.6644                   21335931.3524
 -20882168.39548 -16230584.94146  20963535.6174                   20963533.8444
 -11389444.95746  -8826211.62543  24458369.4144                   24458370.6214
 -14318894.57048 -11106673.34846  20978409.1644                   20978406.6134
 -46359285.59447 -36069427.15245  22318964.8674                   22318963.7304
  16801485.50847  13139997.24644  23304448.0784                   23304448.3444
 11  7 26  2 26  0.0000000  0  8G17G02G05G10G09G12G04G25
 -74496871.80546 -57996534.64144  23719241.4144                   23719240.6804
 -33075213.56648 -25723685.10246  20612534.8754                   20612530.6214
  -5129877.71947  -3946197.34846  21302795.3984                   21302793.6294
 -20957260.99248 -16289098.62146  20949245.7194                   20949243.8674
 -11404630.19546  -8838044.28143  24455479.2974                   24455481.8834
 -14453353.29748 -11211446.34446  20952821.9694                   20952819.8674
 -46377538.53547 -36083650.19945  22315490.8674                   22315490.0164
  16613825.09047  12993768.44144  23268736.7424                   23268738.0634
 11  7 26  2 26 30.0000000  0  8G17G02G05G10G09G12G04G25
 -74533085.80147 -58024753.33644  23712350.9224                   23712349.7814
 -33162479.78148 -25791684.71146  20595928.7584                   20595924.8524
  -5303571.43748  -4081543.05146  21269743.0474                   21269740.5824
 -21031708.20348 -16347109.39146  20935078.8594                   20935077.2114
 -11419782.96146  -8849851.66443  24452596.3914                   24452597.6484
 -14587255.65248 -11315785.81646  20927341.6724                   20927338.7034
 -46395696.81247 -36097799.47345  22312035.4774                   22312034.2304
  16426491.80547  12847794.52745  23233088.4924                   23233090.0354
 11  7 26  2 27  0.0000000  0  8G17G02G05G10G09G12G04G25
 -74569095.76247 -58052813.03944  23705498.3984                   23705497.3754
 -33249474.17248 -25859472.52746  20579374.1804                   20579370.3244
  -5476812.99248  -4216536.42646  21236775.9844                   21236773.8014
 -21105507.96948 -16404615.68446  20921035.3524                   20921033.6254
 -11434903.47346  -8861633.96942  24449718.4454                   24449720.8714
 -14720596.93048 -11419688.07846  20901967.4144                   20901965.2774
 -46413758.84047 -36111873.79345  22308598.2664                   22308598.3444
  16239491.33247  12702079.97344  23197502.7664                   23197504.8594
 11  7 26  2 27 30.0000000  0  8G17G02G05G10G09G12G04G25
 -74604902.54347 -58080714.43444  23698684.4064                   23698683.8674
 -33336198.88748 -25927050.19946  20562870.9454                   20562867.2154
  -5649601.27748  -4351176.60546  21203895.0234                   21203893.4454
 -21178662.44948 -16461619.14846  20907114.6644                   20907112.5704
 -11449995.81246  -8873394.21542  24446847.6254                   24446849.0004
 -14853376.90648 -11523152.95346  20876700.1804                   20876698.3094
 -46431727.49247 -36125875.33645  22305178.9064                   22305178.5124
  16052825.16447  12556625.90245  23161981.1884                   23161983.5744
 11  7 26  2 28  0.0000000  0  8G17G02G05G10G09G12G04G25
 -74640510.07847 -58108460.55144  23691909.0314                   23691907.4184
 -33422659.21948 -25994421.87946  20546418.3134                   20546414.1914
  -5821938.05148  -4485464.94946  21171100.7344                   21171098.7344
 -21251176.78548 -16518123.79746  20893315.3444                   20893313.7664
 -11465067.22746  -8885138.29742  24443979.4534                   24443981.4224
 -14985597.89548 -11626182.27046  20851539.3054                   20851537.2934
 -46449608.59847 -36139808.64545  22301776.0944                   22301775.4734
  15866491.78147  12411431.15245  23126523.4384                   23126524.7704
 11  7 26  2 28 30.0000000  0  8G17G02G05G10G09G12G04G25
 -74675915.09846 -58136048.89844  23685171.2584                   23685169.5514
 -33508853.57448 -26061586.28146  20530015.8204                   20530011.7934
  -5993817.83248  -4619397.19946  21138393.0704                   21138391.0704
 -21323049.03548 -16574128.12546  20879639.0314                   20879637.0784
 -11480118.17646  -8896866.38742  24441115.5084                   24441118.1684
 -15117256.34448 -11728773.24246  20826485.7734                   20826483.4024
 -46467400.52047 -36153672.48045  22298390.9224                   22298390.3984
  15680496.81347  12266500.08644  23091129.1954                   23091131.0314
 11  7 26  2 29  0.0000000  0  8G17G02G05G10G09G12G04G25
 -74711121.55947 -58163482.46944  23678471.5554                   23678470.5704
 -33594787.33248 -26128547.63346  20513663.2584                   20513659.4804
  -6165242.11748  -4752974.52046  21105772.0084                   21105769.8364
 -21394283.99248 -16629635.85546  20866082.4454                   20866080.8284
 -11495155.64846  -8908583.90642  24438253.8914                   24438256.3444
 -15248353.93748 -11830927.17646  20801538.3054                   20801536.3754
 -46485108.82847 -36167471.16845  22295021.2584                   22295020.1484
  15494839.05147  12121831.79745  23055800.4384                   23055801.7584
 11  7 26  2 29 30.0000000  0  8G17G02G05G10G09G12G04G25
 -74746130.73447 -58190762.36744  23671809.1174                   23671808.5274
 -33680463.24648 -26195308.06246  20497359.7814                   20497355.8284
  -6336210.82848  -4886196.85546  21073237.3594                   21073235.7544
 -21464885.18448 -16684649.74246  20852647.7814                   20852646.0594
 -11510184.87546  -8920295.09842  24435392.9924                   24435395.8674
 -15378891.41848 -11932644.67646  20776698.0394                   20776695.7304
 -46502737.13747 -36181207.49645  22291666.6484                   22291665.7194
  15309518.90647  11977426.55144  23020534.8204                   23020535.7584
 11  7 26  2 30  0.0000000  0  8G17G02G05G10G09G12G04G25
 -73205523.39546 -56990289.10544  23964977.2974                   23964976.3674
 -32190461.87948 -25034268.02046  20780897.2344                   20780893.8674
  -4931297.66048  -3791459.26246  21340583.4614                   21340582.0664
 -19959433.32048 -15511570.35246  21139125.8204                   21139124.3754
  -9949790.23446  -7704403.23443  24732326.7584                   24732329.5434
 -13933444.91448 -10806322.69146  21051757.4614                   21051755.2274
 -44944868.05547 -34967283.52345  22588119.2894                   22588118.2114
  16699963.32047  13060889.83245  23285127.9844                   23285128.5044
 11  7 26  2 30 30.0000000  0  8G17G02G05G10G09G12G04G25
 -73240139.89146 -57017262.96144  23958389.6644                   23958389.2274
 -32275627.87548 -25100631.10946  20764690.9694                   20764686.5984
  -5101349.80148  -3923967.37946  21308223.8594                   21308221.9654
 -20028771.96548 -15565600.43746  21125931.2114                   21125929.0204
  -9964813.94946  -7716110.03943  24729467.7274                   24729469.9884
 -14062859.88348 -10907165.50446  21027130.5634                   21027128.2584
 -44962342.75447 -34980900.16445  22584793.8674                   22584792.6454
  16515324.63747  12917015.57845  23249992.2034                   23249992.1334
 11  7 26  2 31  0.0000000  0  8G17G02G05G10G09G12G04G25
 -73274558.87946 -57044082.96944  23951840.4774                   23951838.9104
 -32360539.77048 -25166796.20746  20748532.1564                   20748528.5474
  -5270939.24648  -4056114.95346  21275951.9614                   21275950.1564
 -20097480.10548 -15619139.22746  21112856.1884                   21112854.6564
  -9979838.88746  -7727817.82843  24726608.3444                   24726611.0354
 -14191710.69548 -11007568.71146  21002611.0164                   21002609.2274
 -44979741.99247 -34994457.98044  22581483.1024                   22581481.5824
  16331031.45747  12773410.54344  23214922.5784                   23214922.7234
 11  7 26  2 31 30.0000000  0  8G17G02G05G10G09G12G04G25
 -73308782.06646 -57070750.38344  23945328.2034                   23945326.6804
 -32445199.98848 -25232765.19946  20732421.9454                   20732418.1564
  -5440065.39548  -4187901.51646  21243768.5704                   21243766.5044
 -20165560.95348 -15672189.21546  21099901.1484                   21099899.1024
  -9994869.93046  -7739530.39542  24723748.9454                   24723750.1524
 -14319997.80148 -11107532.66846  20978199.1484                   20978196.4184
 -44997069.28147 -35007959.76644  22578185.8134                   22578184.1564
  16147084.54747  12630075.36345  23179918.8134                   23179918.9654
 11  7 26  2 32  0.0000000  0  8G17G02G05G10G09G12G04G25
 -73342807.62546 -57097263.75044  23938852.9924                   23938852.4494
 -32529609.41448 -25298538.77046  20716359.5784                   20716355.8634
  -5608724.68048  -4319324.28946  21211673.5784                   21211671.7584
 -20233014.03948 -15724750.02746  21087064.8914                   21087063.2544
 -10009908.73846  -7751249.00843  24720886.5784                   24720888.3244
 -14447718.25848 -11207055.07046  20953894.2894                   20953891.8874
 -45014324.37547 -35021405.27044  22574902.2194                   22574900.1094
  15963488.09047  12487013.22744  23144981.1174                   23144981.8524
 11  7 26  2 32 30.0000000  0  8G17G02G05G10G09G12G04G25
 -73376638.06246 -57123625.12144  23932415.1024                   23932414.0984
 -32613771.34848 -25364119.49646  20700344.1884                   20700340.2464
  -5776917.30948  -4450383.43446  21179667.4694                   21179665.4454
 -20299843.15648 -15776824.63746  21074348.0164                   21074346.2034
 -10024960.69146  -7762977.87143  24718023.8524                   24718024.4494
 -14574873.28148 -11306136.88346  20929697.6954                   20929695.2304
 -45031511.39547 -35034797.73044  22571631.6024                   22571629.7814
  15780242.12147  12344224.22345  23110110.9614                   23110111.2384
 11  7 26  2 33  0.0000000  0  8G17G02G05G10G09G12G04G25
 -73410272.15646 -57149833.46944  23926014.8984                   23926014.0634
 -32697685.77748 -25429507.36346  20684375.9304                   20684371.8954
  -5944640.05548  -4581076.43046  21147750.7584                   21147748.9924
 -20366049.03548 -15828413.60946  21061749.3524                   21061747.5554
 -10040027.99646  -7774718.68743  24715155.7194                   24715156.7074
 -14701460.59848 -11404776.31246  20905608.5864                   20905605.8754
 -45048630.90247 -35048137.59044  22568373.7344                   22568372.6414
  15597350.20347  12201711.07445  23075307.3284                   23075308.0984
 11  7 26  2 33 30.0000000  0  8G17G02G05G10G09G12G04G25
 -73443709.98446 -57175888.90444  23919652.1254                   23919651.3244
 -32781354.49648 -25494703.75846  20668454.1094                   20668450.4344
  -6111891.07848  -4711401.85546  21115923.9614                   21115922.0004
 -20431633.14148 -15879518.08646  21049269.3284                   21049266.8984
 -10055114.15646  -7786474.22343  24712285.2424                   24712286.9184
 -14827479.39848 -11502972.75046  20881628.5864                   20881625.5594
 -45065684.62147 -35061426.19144  22565128.5164                   22565127.7664
  15414814.59847  12059475.57445  23040571.7814                   23040573.2154
 11  7 26  2 34  0.0000000  0  8G17G02G05G10G09G12G04G25
 -73476953.35546 -57201792.78143  23913325.4144                   23913324.5984
 -32864780.36748 -25559710.91446  20652578.7504                   20652574.6884
  -6278669.97748  -4841359.39846  21084186.8284                   21084185.4104
 -20496598.52048 -15930140.43046  21036906.7344                   21036904.7704
 -10070224.21945  -7798248.33642  24709410.3594                   24709411.8094
 -14952930.61748 -11600726.91446  20857755.8524                   20857752.7034
 -45082676.10547 -35074666.33244  22561894.8054                   22561893.8524
  15232635.79347  11917518.11345  23005903.7894                   23005905.6564
 11  7 26  2 34 30.0000000  0  8G17G02G05G10G09G12G04G25
 -73510000.93446 -57227544.13344  23907037.5314                   23907035.8284
 -32947963.52348 -25624528.94546  20636749.4694                   20636745.6254
  -6444973.45348  -4970946.47746  21052540.1804                   21052538.8834
 -20560945.16448 -15980280.64146  21024661.9224                   21024659.9734
 -10085359.99645  -7810042.56242  24706528.8134                   24706532.1604
 -15077811.35948 -11698036.55146  20833991.7814                   20833988.8054
 -45099605.41847 -35087857.99244  22558673.1094                   22558672.3874
  15050817.77747  11775841.76645  22971305.3284                   22971306.7464
 11  7 26  2 35  0.0000000  0  8G17G02G05G10G09G12G04G25
 -73542852.76646 -57253142.94944  23900785.5314                   23900783.9734
 -33030905.33248 -25689158.90246  20620965.8134                   20620962.1884
  -6610799.25848  -5100161.35246  21020984.9064                   21020983.1804
 -20624674.71148 -16029940.01646  21012534.7504                   21012532.6914
 -10100524.59845  -7821859.13342  24703643.2734                   24703646.7234
 -15202120.86748 -11794901.07046  20810336.3204                   20810333.5984
 -45116474.32847 -35101002.60944  22555463.6954                   22555462.4414
  14869362.93847  11634448.41845  22936775.7584                   22936776.6844
 11  7 26  2 35 30.0000000  0  8G17G02G05G10G09G12G04G25
 -73575510.49246 -57278590.46943  23894570.6724                   23894570.1484
 -33113608.55548 -25753602.95746  20605228.2814                   20605224.6644
  -6776146.99647  -5229003.69546  20989519.7974                   20989518.7774
 -20687790.26648 -16079120.94146  21000524.1174                   21000522.2774
 -10115722.766 5                  24700751.570
 -15325859.60248 -11891320.84446  20786789.7114                   20786785.9964
 -45133285.93047 -35114102.55544  22552264.4064                   22552262.7154
  14688272.33247  11493338.88745  22902315.6334                   22902316.6844
 11  7 26  2 36  0.0000000  0  8G17G02G05G10G09G12G04G25
 -73607972.21546 -57303885.29743  23888393.1954                   23888392.4574
 -33196072.75848 -25817860.76646  20589536.1564                   20589532.1294
  -6941013.07448  -5357470.72346  20958146.8834                   20958145.1024
 -20750291.66848 -16127823.31646  20988630.2504                   20988628.4734
 -10130956.03515                  24697853.695
 -15449024.83248 -11987293.72346  20763352.1484                   20763349.0704
 -45150039.96547 -35127157.64844  22549076.0234                   22549075.3404
  14507549.84847  11352516.19545  22867925.3054                   22867925.7854
 11  7 26  2 36 30.0000000  0  8G17G02G05G10G09G12G04G25
 -73640239.64846 -57329028.68044  23882253.8284                   23882252.4654
 -33278300.85948 -25881934.58646  20573888.3134                   20573884.3754
  -7105396.99248  -5485562.03946  20926865.9844                   20926864.0744
 -20812182.35548 -16176049.81646  20976853.0864                   20976850.9064
 -10146228.969 5                  24694947.047
 -15571617.19548 -12082820.21146  20740023.4534                   20740020.7154
 -45166739.59047 -35140170.34445  22545897.9384                   22545897.4654
  14327196.43047  11211981.08644  22833604.7344                   22833605.5394
 11  7 26  2 37  0.0000000  0  8G17G02G05G10G09G12G04G25
 -73672310.73446 -57354019.11343  23876149.9774                   23876149.1564
 -33360292.25448 -25945823.95346  20558285.9224                   20558281.6644
  -7269294.80947  -5613274.59046  20895677.4774                   20895675.2464
 -20873461.92248 -16223800.09846  20965192.0084                   20965189.7664
 -10161542.805 5                  24692031.445
 -15693633.67648 -12177897.95746  20716804.1414                   20716801.5554
 -45183384.46547 -35153140.37544  22542730.7974                   22542730.0234
  14147216.41047  11071736.95745  22799355.6094                   22799355.8914
 11  7 26  2 37 30.0000000  0  8G17G02G05G10G09G12G04G25
 -73704184.55946 -57378855.82043  23870084.9614                   23870084.1524
 -33442047.28548 -26009529.14146  20542728.5084                   20542724.2464
  -7432703.41448  -5740605.93046  20864581.7194                   20864579.6804
 -20934130.83248 -16271074.56646  20953647.1024                   20953645.0744
 -10176899.99215                  24689108.141
 -15815072.30148 -12272525.43746  20693695.3674                   20693693.0314
 -45199975.00047 -35166068.05145  22539574.0704                   22539572.8874
  13967613.28947  10931786.53145  22765178.6884                   22765178.0474
 11  7 26  2 38  0.0000000  0  8G17G02G05G10G09G12G04G25
 -72160442.77346 -56175940.10943  24163848.7274                   24163848.1764
 -31948147.14148 -24845451.07846  20827008.1564                   20827003.9414
  -6020197.93448  -4639952.25846  21133372.2424                   21133370.2384
 -19418771.38348 -15090274.97346  21242010.2274                   21242008.5234
  -8616885.35216                  24985971.273
 -14360510.52748 -11139100.64846  20970489.1564                   20970486.8014
 -43641094.73847 -33951356.15245  22836219.3524                   22836218.6094
  15363812.99247  12019734.43045  23030866.2734                   23030866.3244
 11  7 26  2 38 30.0000000  0  7G17G02G05G10G12G04G25
 -72191926.53146 -56200472.84043  24157857.9304                   24157856.4964
 -32029437.59848 -24908794.26246  20811539.1564                   20811535.2074
  -6182626.85248  -4766520.19146  21102462.9774                   21102461.1764
 -19478228.59448 -15136605.25446  21230696.2274                   21230693.7624
 -14480794.46548 -11232828.36746  20947600.1174                   20947597.4654
 -43657585.37947 -33964205.96545  22833081.1174                   22833080.2074
  15184966.66447  11880373.75045  22996833.2664                   22996833.7624
 11  7 26  2 39  0.0000000  0  7G17G02G05G10G12G04G25
 -72223214.06646 -56224852.70343  24151904.1484                   24151902.3164
 -32110496.56648 -24971957.07446  20796114.5234                   20796110.4534
  -6344561.60248  -4892703.08646  21071647.9144                   21071646.0634
 -19537081.28148 -15182464.47746  21219496.6884                   21219494.4844
 -14600498.97348 -11326104.58246  20924820.8674                   20924818.3324
 -43674027.02747 -33977017.63744  22829952.6024                   22829951.8754
  15006503.58647  11741311.73445  22962872.5084                   22962873.7774
 11  7 26  2 39 30.0000000  0  7G17G02G05G10G12G04G25
 -72254300.44546 -56249075.83643  24145988.4534                   24145987.2664
 -32191320.51648 -25034936.74646  20780733.7664                   20780729.5784
  -6505995.84848  -5018495.96146  21040928.2974                   21040926.2854
 -19595326.13748 -15227850.06646  21208413.2194                   21208411.2704
 -14719618.30548 -11418924.82846  20902153.5164                   20902150.3204
 -43690416.52047 -33989788.65244  22826833.0554                   22826832.5164
  14828430.89147  11602553.91445  22928986.3284                   22928987.7624
 11  7 26  2 40  0.0000000  0  7G17G02G05G10G12G04G25
 -72285185.71146 -56273142.22343  24140111.0084                   24140109.7274
 -32271910.10248 -25097733.80146  20765398.3524                   20765393.9144
  -6666927.01648  -5143896.82446  21010303.7894                   21010301.4694
 -19652964.56648 -15272763.10946  21197444.6804                   21197442.6374
 -14838150.85248 -11511287.84046  20879597.3594                   20879594.7544
 -43706754.97747 -34002519.91844  22823724.6024                   22823723.6254
  14650751.42247  11464102.50445  22895174.6804                   22895176.4774
 11  7 26  2 40 30.0000000  0  7G17G02G05G10G12G04G25
 -72315865.03146 -56297048.14843  24134273.3134                   24134271.5984
 -32352262.19548 -25160345.79346  20750107.5314                   20750103.4614
  -6827348.58648  -5268900.59446  20979776.2974                   20979774.5204
 -19709994.09448 -15317201.69546  21186592.3134                   21186590.7934
 -14956091.44948 -11603189.59046  20857154.1724                   20857151.2664
 -43723039.03147 -34015208.80544  22820625.6724                   22820623.9804
  14473471.99247  11325962.80945  22861439.5394                   22861441.0744
 11  7 26  2 41  0.0000000  0  7G17G02G05G10G12G04G25
 -72346342.67246 -56320796.94143  24128473.7504                   24128472.4304
 -32432382.30948 -25222777.02046  20734861.3754                   20734856.7274
  -6987262.96548  -5393509.15246  20949345.6644                   20949343.8244
 -19766420.37948 -15361170.22746  21175854.8204                   21175853.0234
 -15073443.40248 -11694632.65246  20834822.4924                   20834820.2704
 -43739274.50847 -34027859.80544  22817535.6414                   22817535.0434
  14296591.04748  11188133.61745  22827780.2814                   22827781.5944
 11  7 26  2 41 30.0000000  0  7G17G02G05G10G12G04G25
 -72376619.64846 -56344389.39543  24122711.6254                   24122710.3794
 -32512272.78548 -25285029.30946  20719658.3914                   20719654.2194
  -7146669.24648  -5517721.80946  20919011.9454                   20919009.8794
 -19822246.35248 -15404670.97346  21165231.1334                   21165229.5204
 -15190206.59448 -11785616.95346  20812603.1094                   20812600.5554
 -43755463.63747 -34040474.66844  22814455.0164                   22814453.7774
  14120109.87548  11050615.91845  22794196.8134                   22794198.8594
 11  7 26  2 42  0.0000000  0  7G17G02G05G10G12G04G25
 -72406698.50046 -56367827.42243  24116988.2274                   24116987.0354
 -32591936.93748 -25347105.24646  20704499.1724                   20704494.3134
  -7305568.02348  -5641538.99646  20888774.2424                   20888772.4144
 -19877476.23848 -15447707.21946  21154721.0704                   21154719.5234
 -15306382.92648 -11876143.94146  20790495.7424                   20790492.8014
 -43771610.31647 -34053056.47744  22811383.3134                   22811380.6524
  13944028.63748  10913409.86745  22760689.0864                   22760690.7934
 11  7 26  2 42 30.0000000  0  7G17G02G05G10G12G04G25
 -72436579.43446 -56391111.23443  24111302.2814                   24111300.1884
 -32671376.56248 -25409006.24246  20689381.9694                   20689377.9304
  -7463957.92648  -5764959.65246  20858633.6564                   20858631.8324
 -19932112.30148 -15490280.76246  21144324.5234                   21144322.8634
 -15421972.28948 -11966213.57046  20768499.6024                   20768496.6844
 -43787716.32447 -34065606.55544  22808317.9774                   22808315.5554
  13768349.05148  10776516.76645  22727259.0164                   22727259.9614
 11  7 26  2 43  0.0000000  0  7G17G02G05G10G12G04G25
 -72466260.18046 -56414239.03543  24105653.9694                   24105651.9654
 -32750590.48848 -25470731.35946  20674308.0164                   20674303.7814
  -7621834.29348  -5887980.15646  20828590.8834                   20828588.7114
 -19986153.37548 -15532390.67646  21134040.9844                   21134039.2704
 -15536970.98848 -12055822.93446  20746616.2274                   20746613.8954
 -43803780.30547 -34078123.91844  22805261.1094                   22805258.5594
  13593076.29748  10639940.66045  22693905.5394                   22693905.7894
 11  7 26  2 43 30.0000000  0  7G17G02G05G10G12G04G25
 -72495746.10546 -56437215.09043  24100043.1954                   24100041.3204
 -32829585.34448 -25532285.76646  20659276.0704                   20659271.6764
  -7779201.00048  -6010603.52346  20798645.0084                   20798642.8754
 -20039607.34048 -15574043.11746  21123869.2034                   21123866.9384
 -15651383.90248 -12144975.84846  20724844.0164                   20724841.2114
 -43819809.35547 -34090614.05144  22802210.9534                   22802208.8524
  13418207.16447  10503679.06645  22660628.6484                   22660628.7384
 11  7 26  2 44  0.0000000  0  7G17G02G05G10G12G04G25
 -72525037.62147 -56460039.64543  24094468.5864                   24094466.9264
 -32908362.25848 -25593670.35546  20644285.1094                   20644281.2074
  -7936056.35248  -6132828.44146  20768796.1644                   20768794.3594
 -20092476.21547 -15615239.62146  21113808.3054                   21113806.6914
 -15765210.54748 -12233671.91846  20703183.5864                   20703181.4144
 -43835804.69947 -34103077.95744  22799166.8594                   22799165.2384
  13243743.94947  10367733.75045  22627429.4454                   22627429.9304
 11  7 26  2 44 30.0000000  0  7G17G02G05G10G12G04G25
 -72554130.05946 -56482709.07043  24088932.8134                   24088931.5554
 -32986918.25848 -25654882.79746  20629336.6174                   20629331.9494
  -8092394.01648  -6254649.94546  20739046.0944                   20739044.4304
 -20144757.38347 -15655978.18046  21103859.2974                   21103857.0394
 -15878445.28548 -12321906.77046  20681635.6884                   20681633.3324
 -43851763.14847 -34115513.10244  22796130.2424                   22796128.3204
  13069693.64147  10232110.18045  22594308.7814                   22594308.5084
 11  7 26  2 45  0.0000000  0  7G17G02G05G10G12G04G25
 -72583026.52746 -56505225.73443  24083433.3834                   24083431.8914
 -33065257.18748 -25715926.10246  20614429.2734                   20614424.2074
  -8248215.00048  -6376068.85546  20709394.4614                   20709392.7814
 -20196455.38347 -15696262.30545  21094021.8984                   21094019.6564
 -15991090.65248 -12409682.36346  20660199.9614                   20660197.6684
 -43867688.83247 -34127922.73844  22793099.6254                   22793098.6884
  12896055.76247  10096807.96545  22561266.3444                   22561266.1804
 11  7 26  2 45 30.0000000  0  7G17G02G05G10G12G04G25
 -72611726.87147 -56527589.62943  24077972.8364                   24077971.1294
 -33143380.59848 -25776801.47346  20599562.8134                   20599558.4024
  -8403517.81648  -6497083.99646  20679841.4454                   20679839.1414
 -20247572.12147 -15736093.50045  21084294.6254                   21084292.7074
 -16103146.00448 -12496998.19546  20638876.5394                   20638873.5904
 -43883583.24247 -34140308.00844  22790074.5314                   22790073.9654
  12722832.53147   9961828.85245  22528303.6954                   22528303.5704
 11  7 26  2 46  0.0000000  0  7G17G02G05G10G12G04G25
 -71064811.19547 -55322200.76644  24372341.2814                   24372338.3754
 -31645867.52748 -24609908.14546  20884530.1024                   20884525.2234
  -6982876.25048  -5390090.52346  20950180.4064                   20950178.2304
 -18722688.47748 -14547872.45346  21374470.6484                   21374468.2894
 -14639187.93048 -11356251.62546  20917458.5704                   20917456.0044
 -42324027.89547 -32925070.08644  23086848.2194                   23086847.4144
  14125451.30147  11054778.56345  22795212.7894                   22795213.1524
 11  7 26  2 46 30.0000000  0  7G17G02G05G10G12G04G25
 -71093124.35947 -55344262.96143  24366952.4224                   24366951.5084
 -31723567.29748 -24670453.39846  20869744.2114                   20869739.6524
  -7137141.77348  -5510297.38746  20920824.6564                   20920822.4454
 -18772652.96547 -14586805.80146  21364961.8834                   21364960.6764
 -14750065.63748 -11442649.82046  20896358.7974                   20896356.5864
 -42339867.85547 -32937412.91844  23083834.1094                   23083833.1954
  13953060.10547  10920447.79345  22762407.8524                   22762408.5204
 11  7 26  2 47  0.0000000  0  7G17G02G05G10G12G04G25
 -71121242.57047 -55366173.20743  24361602.5554                   24361600.1374
 -31801055.40648 -24730833.71146  20854998.9304                   20854994.5164
  -7290884.19148  -5630096.64146  20891568.4144                   20891566.6174
 -18822042.94547 -14625291.46546  21355563.6094                   21355561.6094
 -14860352.49248 -11528587.60546  20875372.1024                   20875369.6914
 -42355680.93447 -32949734.83644  23080824.9924                   23080823.8324
  13781090.09447  10786445.23045  22729682.7814                   22729684.0084
 11  7 26  2 47 30.0000000  0  8G17G02G05G10G29G12G04G25
 -71149164.42247 -55387930.46944  24356289.4534                   24356287.2624
 -31878332.02748 -24791049.24646  20840293.7114                   20840289.2664
  -7444100.98448  -5749486.30946  20862411.8284                   20862410.1454
 -18870859.01647 -14663329.95346  21346274.3444                   21346272.2304
  35973006.54356  28072599.74253  24723597.1094                   24723599.2424
 -14970046.29348 -11614063.27746  20854498.4844                   20854495.3364
 -42371467.18047 -32962035.82044  23077821.2584                   23077819.7194
  13609544.86347  10652773.65245  22697039.1024                   22697039.9844
 11  7 26  2 48  0.0000000  0  8G17G02G05G10G29G12G04G25
 -71176895.83646 -55409539.34844  24351011.4614                   24351010.0514
 -31955404.04348 -24851105.34046  20825627.3914                   20825622.6294
  -7596796.15648  -5868469.52046  20833354.7894                   20833353.1914
 -18919109.15247 -14700927.43446  21337092.7894                   21337090.5434
  35794604.97346  27933585.60543  24689648.8444                   24689650.0984
 -15079152.18448 -11699080.83246  20833736.0394                   20833733.5354
 -42387233.45747 -32974321.27744  23074820.9774                   23074819.8524
  13438420.98847  10519430.41045  22664475.1254                   22664476.1604
 11  7 26  2 48 30.0000000  0  8G17G02G05G10G29G12G04G25
 -71204438.46147 -55431001.12144  24345770.6724                   24345768.9694
 -32032274.30948 -24911004.22746  20810999.0554                   20810994.6374
  -7748969.48448  -5987046.10246  20804397.2344                   20804395.1724
 -18966796.75448 -14738086.57446  21328018.4224                   21328015.8794
  35616141.02046  27794522.81343  24655688.8524                   24655688.9694
 -15187671.50048 -11783641.32446  20813085.5864                   20813082.7734
 -42402982.40247 -32986593.17644  23071823.8284                   23071822.5124
  13267719.21947  10386416.08245  22631991.6174                   22631992.9224
 11  7 26  2 49  0.0000000  0  8G17G02G05G10G29G12G04G25
 -71231794.35546 -55452317.34044  24340564.3364                   24340563.7424
 -32108945.19148 -24970747.74246  20796409.3914                   20796404.9264
  -7900621.32848  -6105216.32446  20775539.1024                   20775537.1684
 -19013925.70348 -14774810.41046  21319049.7194                   21319047.6334
  35437613.25046  27655410.34043  24621715.9924                   24621716.8054
 -15295604.68748 -11867745.09446  20792546.2814                   20792543.7934
 -42418717.07847 -32998853.97344  23068829.7894                   23068829.0004
  13097440.32847  10253731.27345  22599588.4064                   22599589.6804
 11  7 26  2 49 30.0000000  0  8G17G02G05G10G29G12G04G25
 -71258962.74247 -55473487.47344  24335394.9844                   24335393.2814
 -32185417.79348 -25030336.75846  20781856.7504                   20781852.3444
  -8051749.62148  -6222978.59046  20746780.2274                   20746778.0904
 -19060497.84848 -14811100.38745  21310187.0704                   21310184.8594
  35259022.30946  27516248.65243  24587731.1024                   24587730.2734
 -15402951.78148 -11951392.15646  20772119.2194                   20772116.4694
 -42434438.44947 -33011104.40244  23065838.4614                   23065837.1644
  12927586.70347  10121377.84445  22567266.7344                   22567267.7304
 11  7 26  2 50  0.0000000  0  8G17G02G05G10G29G12G04G25
 -71285941.29746 -55494509.77744  24330260.1804                   24330259.9884
 -32261690.52748 -25089770.03546  20767342.5944                   20767338.0084
  -8202350.07048  -6340329.55546  20718122.1954                   20718119.7344
 -19106512.46548 -14846955.90645  21301431.3054                   21301428.8484
  35080371.64846  27377040.43843  24553735.6804                   24553734.3054
 -15509709.30948 -12034579.82046  20751803.4774                   20751801.0204
 -42450144.63747 -33023342.98844  23062849.8754                   23062848.1644
  12758163.64847   9989359.91845  22535025.5784                   22535027.1094
 11  7 26  2 50 30.0000000  0  8G17G02G05G10G29G12G04G25
 -71312729.44946 -55515383.59844  24325162.7974                   24325161.4064
 -32337763.73848 -25149047.84046  20752865.9614                   20752861.9144
  -8352419.96948  -6457267.09846  20689564.4614                   20689562.2734
 -19151970.78548 -14882377.96145  21292780.4694                   21292778.2194
  34901662.55146  27237786.69143  24519727.6954                   24519728.4224
 -15615875.89548 -12117307.01246  20731600.9534                   20731598.3874
 -42465836.41847 -33035570.35244  23059863.3364                   23059862.2034
  12589174.09447   9857679.77745  22502868.6334                   22502869.6254
 11  7 26  2 51  0.0000000  0  8G17G02G05G10G29G12G04G25
 -71339327.60547 -55536109.45344  24320102.1724                   24320100.1884
 -32413638.89848 -25208171.31646  20738427.6254                   20738423.1804
  -8501958.07448  -6573790.25846  20661108.1484                   20661106.2934
 -19196875.21147 -14917368.39845  21284235.4064                   21284233.8444
  34722895.07046  27098487.43843  24485708.4454                   24485710.0004
 -15721451.44548 -12199573.66446  20711510.3834                   20711507.9184
 -42481515.03147 -33047787.44144  23056879.2734                   23056878.4064
  12420620.19547   9726339.10545  22470793.5084                   22470795.4224
 11  7 26  2 51 30.0000000  0  8G17G02G05G10G29G12G04G25
 -71365735.10947 -55556686.70344  24315076.5554                   24315075.0784
 -32489316.34048 -25267140.73446  20724026.5394                   20724022.4574
  -8650962.44548  -6689897.52046  20632753.8134                   20632751.7464
 -19241227.37147 -14951928.52345  21275795.1094                   21275793.7544
  34544070.50846  26959143.72743  24451680.2734                   24451681.3054
 -15826435.30548 -12281379.25846  20691532.6024                   20691529.8444
 -42497180.77347 -33059994.50044  23053898.4694                   23053897.1764
  12252504.89847   9595340.21545  22438802.1254                   22438802.9494
 11  7 26  2 52  0.0000000  0  8G17G02G05G10G29G12G04G25
 -71391947.71146 -55577112.10244  24310088.4774                   24310087.5314
 -32564792.90648 -25325953.62946  20709663.9224                   20709660.0164
  -8799427.06248  -6805584.19946  20604501.4844                   20604499.9104
 -19285025.00047 -14986056.54345  21267460.9224                   21267458.7384
  34365193.77346  26819759.35543  24417641.0004                   24417643.1094
 -15930822.42648 -12362719.85546  20671668.3834                   20671665.9104
 -42512830.33647 -33072188.98044  23050920.6884                   23050919.3984
  12084834.98447   9464688.36745  22406896.1954                   22406896.8954
 11  7 26  2 52 30.0000000  0  8G17G02G05G10G29G12G04G25
 -71417968.92246 -55597388.33243  24305136.9304                   24305135.6174
 -32640073.03148 -25384613.45346  20695338.5944                   20695334.4384
  -8947353.75448  -6920851.71946  20576352.2034                   20576350.3484
 -19328273.71147 -15019756.82045  21259231.0704                   21259228.8484
  34186261.75047  26680331.81643  24383591.0474                   24383592.8954
 -16034615.78548 -12443597.78946  20651917.3674                   20651914.7544
 -42528468.58647 -33084374.59844  23047944.4304                   23047943.7154
  11917609.09847   9334382.50845  22375073.6174                   22375074.7734
 11  7 26  2 53  0.0000000  0  8G17G02G05G10G29G12G04G25
 -71443796.30146 -55617513.55544  24300221.3524                   24300220.5744
 -32715155.23848 -25443119.04746  20681050.9774                   20681046.5704
  -9094738.44148  -7035696.89146  20548306.0554                   20548303.5944
 -19370972.91847 -15053028.91845  21251105.0394                   21251103.1884
  34007277.70346  26540863.75843  24349531.5164                   24349534.4304
 -16137812.43748 -12524010.75046  20632279.5554                   20632276.7194
 -42544093.59047 -33096549.89544  23044971.3674                   23044970.1604
  11750832.25847   9204426.58245  22343337.3054                   22343338.1644
 11  7 26  2 53 30.0000000  0  8G17G02G05G10G29G12G04G25
 -71469429.41846 -55637487.39143  24295343.7274                   24295343.4344
 -32790040.19548 -25501470.94146  20666800.7034                   20666796.8244
  -9241579.53148  -7150118.48446  20520362.8524                   20520360.9884
 -19413124.53947 -15085874.31645  21243084.3134                   21243082.1254
  33828242.59446  26401355.89543  24315462.6024                   24315464.2304
 -16240412.03148 -12603958.47346  20612755.6644                   20612752.8554
 -42559706.35247 -33108715.62543  23042000.6334                   23041998.6804
  11584507.09047   9074822.61345  22311686.2974                   22311687.7424
 11  7 26  2 54  0.0000000  0  8G17G02G05G10G29G12G04G25
 -69919452.00446 -54429712.71943  24590295.0634                   24590294.0594
 -31289311.17648 -24332071.68746  20952379.9224                   20952375.8634
  -7812454.83648  -6036514.78946  20792316.2344                   20792314.2704
 -17879313.76647 -13890697.06245  21534958.8204                   21534956.8714
  35224578.62946  27489409.99643  24581175.8594                   24581178.5394
 -14766995.28948 -11455841.51646  20893137.5784                   20893134.5664
 -40999891.91047 -31893275.74243  23338823.2274                   23338821.6954
  12994056.93848  10173173.21145  22579914.7894                   22579916.0984
 11  7 26  2 54 30.0000000  0  8G17G02G05G10G29G12G04G25
 -69944706.41846 -54449391.43443  24585489.1094                   24585488.2344
 -31363813.93448 -24390125.77046  20938202.7034                   20938198.2664
  -7958213.08248  -6150092.61346  20764579.3054                   20764577.3874
 -17920385.77047 -13922701.20345  21527143.1804                   21527140.9104
  35045434.06346  27349816.91043  24547085.5164                   24547086.9694
 -14868408.57048 -11534864.84446  20873839.2114                   20873836.7664
 -41015492.22347 -31905431.81644  23335854.2814                   23335853.3164
  12828632.87547  10044271.41845  22548436.1804                   22548436.3794
 11  7 26  2 55  0.0000000  0  8G17G02G05G10G29G12G04G25
 -69969770.51246 -54468921.91843  24580720.5314                   24580718.1604
 -31438126.09848 -24448031.33246  20924061.7814                   20924057.4104
  -8103426.37148  -6263245.78946  20736946.2424                   20736944.1214
 -17960920.08647 -13954286.38346  21519429.9384                   21519427.8134
  34866237.10246  27210182.98043  24512985.5784                   24512985.6134
 -14969227.02348 -11613424.66046  20854653.5234                   20854651.0274
 -41031086.60247 -31917583.24644  23332886.9694                   23332885.1334
  12663663.94948   9915724.26645  22517043.7504                   22517044.5944
 11  7 26  2 55 30.0000000  0  8G17G02G05G10G29G12G04G25
 -69994642.99646 -54488303.08643  24575986.6804                   24575985.4104
 -31512247.25048 -24505788.05146  20909956.7424                   20909952.3284
  -8248091.81648  -6375972.07046  20709417.1254                   20709415.1174
 -18000917.68747 -13985453.32045  21511818.3524                   21511815.9304
  34686989.23846  27070509.43443  24478875.4614                   24478874.4654
 -15069449.13748 -11691519.80146  20835582.6174                   20835579.5234
 -41046674.82047 -31929729.86744  23329920.2504                   23329919.5314
  12499153.76648   9787534.59045  22485738.0634                   22485738.9694
 11  7 26  2 56  0.0000000  0  8G17G02G05G10G29G12G04G25
 -70019326.53946 -54507536.98842  24571289.0084                   24571287.5514
 -31586181.03548 -24563398.77746  20895887.5554                   20895883.1294
  -8392210.96548  -6488272.66846  20681992.2504                   20681990.2894
 -18040383.24647 -14016205.68045  21504308.3914                   21504306.0084
  34507688.89146  26930794.92643  24444755.5234                   24444754.4654
 -15169077.43448 -11769152.21946  20816623.6174                   20816621.0274
 -41062260.47347 -31941874.49244  23326954.6724                   23326953.1954
  12335101.91048   9659702.05945  22454520.1334                   22454520.3794
 11  7 26  2 56 30.0000000  0  7G02G05G10G29G12G04G25
 -31659927.71148 -24620863.69146  20881853.6334                   20881849.9104
  -8535781.72348  -6600145.94946  20654671.3524                   20654669.1054
 -18079318.35948 -14046544.71545  21496899.5864                   21496897.3954
  34328337.28946  26791040.55943  24410627.2734                   24410625.6134
 -15268110.82048 -11846321.07846  20797778.2424                   20797775.5434
 -41077843.65647 -31954017.20744  23323989.3594                   23323988.4344
  12171511.43448   9532229.02745  22423390.2114                   22423390.0514
 11  7 26  2 57  0.0000000  0  7G02G05G10G29G12G04G25
 -31733485.50048 -24678181.43046  20867856.4534                   20867851.8954
  -8678799.54348  -6711588.37146  20627456.2194                   20627453.9024
 -18117722.46148 -14076469.95345  21489591.2664                   21489589.3674
  34148938.09446  26651249.00843  24376488.7584                   24376486.9454
 -15366545.94948 -11923023.75446  20779046.6024                   20779043.8594
 -41093422.46947 -31966156.50844  23321024.4064                   23321023.5004
  12008387.42647   9405119.49645  22392347.9144                   22392348.5234
 11  7 26  2 57 30.0000000  0  7G02G05G10G29G12G04G25
 -31806851.80548 -24735349.94546  20853895.4384                   20853891.0984
  -8821259.78148  -6822596.30546  20600346.8674                   20600344.4964
 -18155594.40248 -14105980.52745  21482383.7194                   21482382.0744
  33969495.26646  26511423.47343  24342340.4844                   24342339.9804
 -15464379.78948 -11999257.88346  20760429.3674                   20760426.7544
 -41108994.46146 -31978290.49644  23318061.2194                   23318059.9454
  11845735.61747   9278377.91045  22361395.9694                   22361396.7774
 11  7 26  2 58  0.0000000  0  7G02G05G10G29G12G04G25
 -31880025.93748 -24792368.71946  20839970.6334                   20839966.4804
  -8963159.30948  -6933167.32046  20573344.3754                   20573341.8794
 -18192934.70348 -14135076.84045  21475278.6724                   21475276.7424
  33790011.51646  26371566.11743  24308186.6804                   24308186.5514
 -15561609.55948 -12075021.32046  20741927.2734                   20741924.5744
 -41124558.47347 -31990418.26244  23315099.8284                   23315098.4924
  11683560.03147   9152007.37145  22330535.3984                   22330535.5164
 11  7 26  2 58 30.0000000  0  7G02G05G10G29G12G04G25
 -31953010.71148 -24849239.94146  20826081.8524                   20826077.6684
  -9104498.63748  -7043301.83246  20546448.5554                   20546446.0864
 -18229747.41047 -14163762.03945  21468273.0784                   21468271.2194
  33610485.44546  26231675.69543  24274024.2814                   24274024.0704
 -15658237.99248 -12150316.17246  20723539.4534                   20723536.5744
 -41140117.52747 -32002542.18044  23312139.6564                   23312137.5784
  11521860.94547   9026008.14845  22299765.1884                   22299765.4064
 11  7 26  2 59  0.0000000  0  7G02G05G10G29G12G04G25
 -32025803.91848 -24905961.89546  20812229.9384                   20812225.1994
  -9245273.48848  -7152996.47746  20519659.9224                   20519657.5204
 -18266031.73047 -14192035.51245  21461368.8284                   21461366.2464
  33430921.10547  26091755.49243  24239854.7734                   24239853.6334
 -15754261.63748 -12225139.77046  20705266.6564                   20705263.9224
 -41155669.30947 -32014660.41044  23309179.6564                   23309178.5314
  11360643.78947   8900384.44945  22269086.5314                   22269086.4804
 11  7 26  2 59 30.0000000  0  7G02G05G10G29G12G04G25
 -32098410.61748 -24962538.52046  20798413.1954                   20798408.7194
  -9385486.53548  -7262253.35547  20492977.7424                   20492975.6524
 -18301794.39147 -14219902.50045  21454563.7034                   21454561.1174
  33251315.05546  25951802.71943  24205676.1254                   24205675.5634
 -15849684.51648 -12299495.23046  20687108.2894                   20687105.2774
 -41171218.98847 -32026777.00444  23306220.9064                   23306219.3284
  11199906.41047   8775134.59045  22238498.8834                   22238499.1884
 11  7 26  3  0  0.0000000  0  7G02G05G10G29G12G04G25
 -32170837.05548 -25018974.67246  20784630.5864                   20784626.7194
  -9525141.39848  -7371075.28946  20466402.4534                   20466400.3284
 -18337042.71547 -14247368.71145  21447855.5474                   21447853.7624
  33071663.06346  25811814.19543  24171488.8674                   24171489.0124
 -15944511.50048 -12373386.35546  20669063.1334                   20669060.5084
 -41186772.48847 -32038896.57844  23303260.5634                   23303259.4384
  11039645.99247   8650256.39145  22208002.7344                   22208003.6134
 11  7 26  3  0 30.0000000  0  7G02G05G10G29G12G04G25
 -32243080.54748 -25075268.27346  20770883.2814                   20770879.2194
  -9664233.63748  -7479458.81246  20439934.3134                   20439931.8284
 -18371775.61747 -14274433.31245  21441246.3984                   21441244.5314
  32891969.07846  25671793.00443  24137295.0004                   24137294.5234
 -16038739.23848 -12446810.54746  20651132.4774                   20651129.3524
 -41202327.07046 -32051016.99644  23300301.4064                   23300299.5864
  10879868.21947   8525754.27045  22177597.6334                   22177598.1054
 11  7 26  3  1  0.0000000  0  7G02G05G10G29G12G04G25
 -32315144.23448 -25131421.76646  20757170.2424                   20757166.0984
  -9802764.23448  -7587404.69946  20413572.6414                   20413570.0664
 -18405997.44547 -14301099.65645  21434733.9304                   21434732.0864
  32712231.80146  25531738.08644  24103091.4384                   24103091.4494
 -16132369.93048 -12519769.49646  20633314.8284                   20633312.4534
 -41217886.01646 -32063140.80543  23297338.9144                   23297338.7034
  10720572.95747   8401628.14145  22147284.7504                   22147285.3484
 11  7 26  3  1 30.0000000  0  7G02G05G10G29G12G04G25
 -32387025.75448 -25187433.31646  20743491.5164                   20743487.2074
  -9940728.55948  -7694909.32846  20387318.6644                   20387316.6094
 -18439706.83647 -14327366.68045  21428319.2194                   21428316.9804
  32532455.82446  25391653.00444  24068881.1254                   24068882.3674
 -16225399.61348 -12592260.13346  20615612.0234                   20615608.9184
 -41233446.30546 -32075265.64543  23294377.8364                   23294377.4414
  10561766.01648   8277882.51646  22117064.7504                   22117065.3404
 11  7 26  3  2  0.0000000  0  7G02G05G10G29G12G04G25
 -30883306.87148 -24015704.28546  21029639.7034                   21029635.4694
  -8502704.44548  -6574371.03547  20660965.6724                   20660963.0274
 -16897488.99247 -13125638.48045  21721793.5004                   21721791.3164
  33928063.81346  26479139.85944  24334457.5084                   24334458.4344
 -14742409.30548 -11436683.25446  20897815.5004                   20897813.0634
 -39673592.11346 -30859794.83243  23591208.6484                   23591207.2854
  11978871.12547   9382120.29345  22386730.8364                   22386731.1684
 11  7 26  3  2 30.0000000  0  7G02G05G10G29G12G04G25
 -30954834.29348 -24071439.90646  21016028.4384                   21016024.2464
  -8639540.60948  -6680996.56646  20634926.5084                   20634924.0474
 -16930189.27747 -13151119.20745  21715570.8054                   21715568.1684
  33748204.08646  26338989.52344  24300231.0394                   24300230.9224
 -14834245.90648 -11508244.21946  20880339.7734                   20880337.1054
 -39689166.14846 -30871930.41843  23588244.2584                   23588243.5704
  11821039.02347   9259134.27345  22356696.0314                   22356697.4774
 11  7 26  3  3  0.0000000  0  7G02G05G10G29G12G04G25
 -31026187.19148 -24127039.53546  21002450.7194                   21002446.0164
  -8775811.98848  -6787182.03146  20608994.8984                   20608992.5744
 -16962389.62147 -13176210.37945  21709443.5704                   21709441.5354
  33568302.72347  26198806.78544  24265996.0704                   24265997.1054
 -14925487.84848 -11579341.82046  20862976.9064                   20862974.4304
 -39704749.10547 -30884072.95343  23585280.4614                   23585278.4494
  11663696.40247   9136529.67246  22326754.8054                   22326755.9454
 11  7 26  3  3 30.0000000  0  7G02G05G10G29G12G04G25
 -31097366.41848 -24182503.84446  20988905.7034                   20988901.0394
  -8911517.58248  -6892926.61746  20583170.9774                   20583168.6414
 -16994092.61347 -13200914.00445  21703410.4614                   21703408.5274
  33388360.60546  26058592.25043  24231755.1024                   24231754.1254
 -15016134.34448 -11649975.43446  20845727.2034                   20845725.0744
 -39720341.72347 -30896223.02744  23582312.9924                   23582311.9844
  11506845.45347   9014308.18446  22296907.1564                   22296907.6024
 11  7 26  3  4  0.0000000  0  7G02G05G10G29G12G04G25
 -31168370.77748 -24237831.89846  20975393.9454                   20975389.5354
  -9046653.92648  -6998227.63746  20557455.1954                   20557452.9884
 -17025298.26648 -13225230.09445  21697472.8134                   21697470.2774
  33208380.87946  25918348.47343  24197504.7274                   24197505.5514
 -15106183.39148 -11720143.50446  20828591.4844                   20828588.8674
 -39735942.62947 -30908379.53543  23579343.7814                   23579342.8094
  11350490.45347   8892473.15245  22267153.7894                   22267153.9574
 11  7 26  3  4 30.0000000  0  7G02G05G10G29G12G04G25
 -31239201.71948 -24293024.81246  20961915.3054                   20961910.6134
  -9181220.39548  -7103084.59446  20531847.9774                   20531845.8094
 -17056009.73447 -13249161.08645  21691628.4774                   21691625.9454
  33028363.92646  25778075.68843  24163249.2894                   24163248.2424
 -15195635.78548 -11789846.65646  20811569.5634                   20811566.8634
 -39751553.25847 -30920543.62944  23576373.7114                   23576371.1524
  11194633.02348   8771025.83246  22237495.0234                   22237495.8164
 11  7 26  3  5  0.0000000  0  7G02G05G10G29G12G04G25
 -31309863.05548 -24348085.57446  20948468.8754                   20948464.1334
  -9315219.06648  -7207499.10946  20506349.2194                   20506347.1174
 -17086232.67248 -13272711.41445  21685877.0084                   21685874.5514
  32848307.30546  25637772.00443  24128985.1644                   24128984.1484
 -15284495.27748 -11859087.80146  20794659.9064                   20794657.6024
 -39767177.30147 -30932718.17644  23573400.8364                   23573398.8984
  11039271.98448   8649965.33646  22207930.9924                   22207931.9844
 11  7 26  3  5 30.0000000  0  7G02G05G10G29G12G04G25
 -31380354.08248 -24403013.62946  20935054.6884                   20935050.0004
  -9448647.25448  -7311469.09846  20480958.6804                   20480956.2504
 -17115967.61347 -13295881.48045  21680218.6484                   21680216.2234
  32668213.60546  25497439.44943  24094714.3914                   24094712.9414
 -15372760.13348 -11927865.59046  20777863.9224                   20777861.1644
 -39782813.90247 -30944902.49244  23570425.7194                   23570423.3954
  10884411.11348   8529294.54346  22178462.3594                   22178462.0354
 11  7 26  3  6  0.0000000  0  7G02G05G10G29G12G04G25
 -31450675.32848 -24457809.39146  20921673.1024                   20921668.7544
  -9581503.84448  -7414993.67646  20455676.4304                   20455674.3984
 -17145216.55947 -13318672.86345  21674653.2814                   21674650.6884
  32488084.26246  25357079.12543  24060436.3834                   24060435.2034
 -15460430.00448 -11996179.75046  20761180.3754                   20761178.2274
 -39798463.35547 -30957096.85244  23567447.0234                   23567445.0744
  10730052.75448   8409015.33646  22149088.7664                   22149088.7234
 11  7 26  3  6 30.0000000  0  7G02G05G10G29G12G04G25
 -31520826.64848 -24512472.74646  20908323.7424                   20908319.2194
  -9713786.70348  -7518071.19547  20430504.0314                   20430501.9144
 -17173981.21947 -13341086.85945  21669179.5394                   21669176.7464
  32307920.94546  25216692.28943  24026152.4454                   24026152.7384
 -15547504.35548 -12064029.88346  20744611.0474                   20744608.2774
 -39814125.47347 -30969301.05544  23564466.2194                   23564464.6914
  10576199.85948   8289129.99246  22119811.4614                   22119811.4924
 11  7 26  3  7  0.0000000  0  7G02G05G10G29G12G04G25
 -31590812.00048 -24567006.78146  20895006.0164                   20895001.3404
  -9845498.03148  -7620703.37146  20405440.3054                   20405438.2344
 -17202267.08247 -13363127.77345  21663796.0784                   21663793.9144
  32127721.54346  25076277.36744  23991861.6724                   23991862.3484
 -15633986.63348 -12131418.65246  20728153.6564                   20728151.4454
 -39829804.07047 -30981518.07844  23561482.6094                   23561481.8244
  10422851.40248   8169637.71945  22090630.3914                   22090630.1334
 11  7 26  3  7 30.0000000  0  7G02G05G10G29G12G04G25
 -31660633.77348 -24621413.34446  20881719.2584                   20881714.6414
  -9976638.62548  -7722890.80947  20380485.0164                   20380482.4224
 -17230078.37947 -13384798.91445  21658504.3204                   21658501.6374
  31947485.43046  24935833.81343  23957564.0314                   23957563.8794
 -15719878.91848 -12198347.69546  20711809.2424                   20711806.4884
 -39845501.36747 -30993749.72344  23558495.0784                   23558494.5984
  10270007.69948   8050538.77745  22061544.8524                   22061544.1884
 11  7 26  3  8  0.0000000  0  7G02G05G10G29G12G04G25
 -31730291.01248 -24675691.69946  20868464.0394                   20868459.3364
 -10107205.66448  -7824631.31647  20355638.8594                   20355636.5704
 -17257415.78147 -13406100.77045  21653301.8364                   21653299.3554
  31767215.20746  24795363.66444  23923259.3284                   23923259.2464
 -15805179.37548 -12264815.57046  20695577.2034                   20695574.2544
 -39861216.32847 -31005995.09844  23555505.3284                   23555504.0634
  10117672.55148   7931836.09446  22032556.8984                   22032556.2274
 11  7 26  3  8 30.0000000  0  7G02G05G10G29G12G04G25
 -31799785.22348 -24729843.02046  20855239.4844                   20855234.8984
 -10237198.56248  -7925924.45347  20330902.1024                   20330899.7664
 -17284282.21947 -13427035.64545  21648188.9924                   21648187.0044
  31586911.26646  24654867.23044  23888948.4534                   23888948.6024
 -15889888.84848 -12330822.94546  20679457.4694                   20679454.3164
 -39876949.97347 -31018255.08243  23552511.1884                   23552510.0704
   9965847.38348   7813530.83246  22003664.5474                   22003665.3444
 11  7 26  3  9  0.0000000  0  7G02G05G10G29G12G04G25
 -31869114.94148 -24783866.16046  20842046.7584                   20842042.3204
 -10366614.73848  -8026768.19547  20306274.8284                   20306272.5474
 -17310678.45347 -13447604.12945  21643166.7114                   21643164.0164
  31406576.19946  24514346.52343  23854632.0704                   23854631.8014
 -15974006.43448 -12396369.10546  20663450.0394                   20663447.6054
 -39892701.39846 -31030528.86743  23549513.9304                   23549512.9384
   9814536.05148   7695625.94146  21974871.4144                   21974871.3364
 11  7 26  3  9 30.0000000  0  7G02G05G10G29G12G04G25
 -31938281.76248 -24837762.37546  20828884.3834                   20828880.2034
 -10495453.63348  -8127162.10547  20281757.0634                   20281755.5474
 -17336607.60547 -13467808.65245  21638231.4924                   21638230.0314
  31226211.15246  24373802.45743  23820309.9304                   23820309.1174
 -16057532.53148 -12461454.36746  20647555.9384                   20647553.0164
 -39908471.29346 -31042817.07843  23546512.3364                   23546510.9304
   9663740.07848   7578122.62146  21946175.7664                   21946175.9184
 11  7 26  3 10  0.0000000  0  7G02G05G10G29G12G04G25
 -30431862.16448 -23663928.90246  21115546.9144                   21115542.3674
  -9048288.37548  -6999500.82447  20557144.0314                   20557141.6524
 -15786649.02747 -12260048.71545  21933179.2274   21933177.2154   32621245.02347
  25460841.96944  24085775.7894   24085775.2344
 -14565042.53948 -11298475.14546  20931567.3754                   20931564.2894
 -38348837.80946 -29827518.22743  23843300.0634                   23843299.5864
  11088888.42648   8688627.89146  22217372.7114                   22217372.2154
 11  7 26  3 10 30.0000000  0  7G02G05G10G29G12G04G25
 -30500703.29748 -23717571.32046  21102446.7504                   21102442.2074
  -9175968.42248  -7098991.73447  20532846.7504                   20532844.9614
 -15811649.15647 -12279529.32445  21928421.8444   21928419.4924   32440824.59446
  25320254.75444  24051442.5004   24051440.7234
 -14647384.89148 -11362638.01246  20915897.8524                   20915894.8954
 -38364644.68046 -29839835.22343  23840292.7344                   23840291.5204
  10939130.94148   8571933.78546  22188874.6414                   22188874.5704
 11  7 26  3 11  0.0000000  0  7G02G05G10G29G12G04G25
 -30569386.51248 -23771090.69546  21089376.5474                   21089371.8794
  -9303071.50448  -7198033.06247  20508660.2974                   20508658.0234
 -15836192.52747 -12298653.98845  21923751.6024   21923749.4454   32260374.35946
  25179644.31343  24017103.6024   24017101.9614
 -14729140.01648 -11426343.30546  20900340.5474                   20900337.7704
 -38380474.67647 -29852170.25843  23837279.8524                   23837278.9774
  10789891.76248   8455643.56346  22160474.9224                   22160475.6294
 11  7 26  3 11 30.0000000  0  7G02G05G10G29G12G04G25
 -30637908.34848 -23824484.31646  21076337.0084                   21076332.7274
  -9429592.78147  -7296621.03547  20484583.9694                   20484581.9454
 -15860277.42647 -12317421.43745  21919167.7114   21919165.9104   32079899.58646
  25039014.73443  23982760.6174   23982759.1024
 -14810303.68048 -11489587.72746  20884895.7114                   20884892.9574
 -38396324.21946 -29864520.56643  23834264.2194                   23834263.0124
  10641177.02748   8339762.01246  22132175.7814                   22132175.8014
 11  7 26  3 12  0.0000000  0  7G02G05G10G29G12G04G25
 -30706271.64848 -23877754.40246  21063328.2974                   21063323.8284
  -9555533.52048  -7394756.64547  20460618.2664                   20460616.1374
 -15883908.50047 -12335835.25445  21914671.1334   21914668.9734   31899399.21546
  24898365.19143  23948412.6334   23948411.0314
 -14890878.98848 -11552373.68746  20869562.7194                   20869559.5944
 -38412196.12147 -29876888.23843  23831244.9064                   23831242.1454
  10492986.30548   8224288.75846  22103975.7194                   22103976.1994
 11  7 26  3 12 30.0000000  0  7G02G05G10G29G12G04G25
 -30774480.66448 -23930904.26646  21050348.2034                   21050344.1294
  -9680896.15248  -7492441.78547  20436762.6484                   20436760.1884
 -15907091.58647 -12353899.96545  21910259.7814   21910257.9614   31718870.81346
  24757693.81643  23914058.9304   23914057.3954
 -14970869.65248 -11614704.07046  20854340.7734                   20854338.3244
 -38428093.93747 -29889276.10243  23828219.9454                   23828217.6804
  10345318.38748   8109222.87146  22075875.7504                   22075875.5744
 11  7 26  3 13  0.0000000  0  7G02G05G10G29G12G04G25
 -30842535.47748 -23983933.96146  21037398.0784                   21037393.7934
  -9805680.14548  -7589676.03547  20413017.2344                   20413014.4924
 -15929828.85547 -12371617.30145  21905933.2664   21905930.8054   31538315.78546
  24617001.71944  23879699.9384   23879699.7704
 -15050275.91848 -11676579.08646  20839230.4614                   20839227.3594
 -38444018.23447 -29901684.65644  23825189.1484                   23825187.2034
  10198175.28548   7994565.95346  22047875.0554                   22047875.7974
 11  7 26  3 13 30.0000000  0  7G02G05G10G29G12G04G25
 -30910433.82448 -24036841.74646  21024477.2504                   21024472.7304
  -9929881.16848  -7686456.02347  20389382.3984                   20389380.0864
 -15952120.06247 -12388987.04745  21901691.4774   21901688.8364   31357738.54746
  24476292.28544  23845337.9614   23845336.2704
 -15129095.30948 -11737996.80146  20824231.3364                   20824228.5394
 -38459966.16047 -29914111.60943  23822154.3914                   23822152.4884
  10051561.89548   7880321.77046  22019975.6024                   22019976.2384
 11  7 26  3 14  0.0000000  0  7G02G05G10G29G12G04G25
 -30978176.32848 -24089628.09446  21011586.4304                   21011582.2704
 -10053498.64848  -7782781.30947  20365858.6254                   20365856.2814
 -15973967.38747 -12406010.91845  21897533.8204   21897531.7704   31177140.35546
  24335566.48844  23810970.6564   23810970.8324
 -15207327.80148 -11798957.17246  20809344.4844                   20809341.7704
 -38475938.01247 -29926557.19543  23819115.0084                   23819112.4344
   9905480.27048   7766491.96546  21992177.0864                   21992177.6524
 11  7 26  3 14 30.0000000  0  7G02G05G10G29G12G04G25
 -31045767.50848 -24142296.52746  20998724.3594                   20998719.9384
 -10176535.71548  -7878654.31247  20342445.5554                   20342443.5784
 -15995377.14547 -12422693.81245  21893459.5554   21893457.6214   30996518.37546
  24194822.18844  23776599.2664   23776598.6644
 -15284978.50448 -11859464.21546  20794568.0784                   20794565.3134
 -38491938.39147 -29939024.98043  23816069.4694                   23816068.6024
   9759928.35548   7653074.91846  21964479.4614                   21964480.0084
 11  7 26  3 15  0.0000000  0  7G02G05G10G29G12G04G25
 -31113204.24248 -24194844.62146  20985891.4144                   20985887.1604
 -10298987.81648  -7974071.50847  20319143.8594                   20319141.3674
 -16016348.32447 -12439034.96945  21889468.7584   21889466.7344   30815877.62946
  24054063.23844  23742224.8674   23742223.5864
 -15362044.11348 -11919515.33646  20779903.0634                   20779900.1454
 -38507963.76247 -29951512.27743  23813021.4694                   23813019.2154
   9614911.82448   7540075.04746  21936883.9454                   21936884.6174
 11  7 26  3 15 30.0000000  0  7G02G05G10G29G12G04G25
 -31180490.33648 -24247275.32046  20973087.6414                   20973082.9184
 -10420857.64148  -8069034.98847  20295952.4384                   20295950.0204
 -16036886.52747 -12455038.77345  21885560.9304   21885558.9574   30635215.98046
  23913287.98044  23707845.9064   23707844.4774
 -15438528.36348 -11979113.44146  20765348.6484                   20765345.7154
 -38524017.81647 -29964021.94543  23809965.7034                   23809963.8754
   9470429.12148   7427491.13746  21909389.5634                   21909390.8714
 11  7 26  3 16  0.0000000  0  7G02G05G10G29G12G04G25
 -31247627.09448 -24299589.66846  20960311.8524                   20960307.2464
 -10542145.19948  -8163544.75047  20272872.3444                   20272869.9344
 -16056995.26247 -12470707.90245  21881734.3754   21881732.3594   30454534.03547
  23772496.92644  23673463.8284   23673461.4344
 -15514432.51248 -12038259.53146  20750904.6174                   20750901.3324
 -38540101.77747 -29976554.88743  23806904.4694                   23806903.5044
   9326481.41048   7315324.10546  21881997.1804                   21881998.0434
 11  7 26  3 16 30.0000000  0  7G02G05G10G29G12G04G25
 -31314617.04348 -24351789.62146  20947563.6954                   20947559.6524
 -10662851.94948  -8257601.92247  20249902.6724                   20249900.2774
 -16076678.66047 -12486045.61345  21877988.5474   21877985.9384   30273831.34447
  23631689.69544  23639077.1884   23639075.3714
 -15589758.97748 -12096955.45346  20736570.0784                   20736567.3984
 -38556217.82046 -29989112.88743  23803838.0864                   23803836.7814
   9183068.65248   7203573.93046  21854706.1954                   21854707.6604
 11  7 26  3 17  0.0000000  0  7G02G05G10G29G12G04G25
 -31381457.65248 -24403873.19946  20934844.4454                   20934840.1024
 -10782973.56648  -8351203.15647  20227044.1804                   20227041.7304
 -16095936.44147 -12501051.66445  21874323.7584   21874321.6174   30093112.04747
  23490869.53144  23604687.4304   23604685.4804
 -15664505.44148 -12155199.43746  20722346.2584                   20722343.2464
 -38572363.08646 -30001693.60243  23800765.9694                   23800764.1174
   9040195.75048   7092244.41846  21827518.8054                   21827519.5124
 11  7 26  3 17 30.0000000  0  7G02G05G10G29G12G04G25
 -31448154.44148 -24455844.71146  20922152.7584                   20922147.8914
 -10902514.98848  -8444352.28947  20204295.9064                   20204293.6644
 -16114776.02047 -12515731.85545  21870738.3594   21870736.9534   29912372.39147
  23350033.55944  23570293.6804   23570292.0784
 -15738677.86748 -12212996.12546  20708232.1334                   20708229.1254
 -38588543.15646 -30014301.45343  23797686.9844                   23797685.8134
   8897859.33248   6981332.95746  21800433.0474                   21800433.3634
 11  7 26  3 18  0.0000000  0  7G02G05G10G29G12G04G25
 -29939284.14148 -23280101.61346  21209281.1954                   21209276.8134
  -9446049.92248  -7309444.41847  20481452.1804                   20481449.8554
 -14557777.39547 -11302486.16845  22167025.3674   22167023.5864   31307041.59847
  24436788.87944  23835689.7114   23835688.0164
 -14236852.55948 -11042742.61346  20994019.4224                   20994016.4654
 -37029335.98846 -28799334.85943  24094394.0634                   24094392.3914
  10331487.66048   8098445.96146  22073243.4844                   22073243.5904
 11  7 26  3 18 30.0000000  0  7G02G05G10G29G12G04G25
 -30005693.68448 -23331849.29346  21196643.7734                   21196638.9574
  -9564427.96548  -7401687.02047  20458925.6884                   20458923.5004
 -14575786.57447 -11316519.28545  22163598.4774                   22163596.7854
  31126266.59447  24295925.33244  23801289.7344                   23801287.4344
 -14309877.08248 -11099644.82846  20980123.9064                   20980120.8594
 -37045585.09046 -28811996.51243  24091302.3284                   24091299.8874
  10190230.90248   7988375.80546  22046363.1884                   22046363.4184
 11  7 26  3 19  0.0000000  0  7G02G05G10G29G12G04G25
 -30071958.49648 -23383484.20746  21184033.8914                   21184029.3364
  -9682221.40248  -7493474.07847  20436510.2584                   20436507.4264
 -14593382.43447 -11330230.34445  22160250.0474                   22160247.7774
  30945478.01247  24155051.21544  23766885.9144                   23766884.4104
 -14382326.77748 -11156099.12946  20966336.8054                   20966333.7934
 -37061867.23046 -28824683.90643  24088203.8444                   24088202.0744
  10049518.55148   7878729.86746  22019586.2974                   22019586.4694
 11  7 26  3 19 30.0000000  0  7G02G05G10G29G12G04G25
 -30138080.85948 -23435008.10546  21171451.4454                   21171446.9654
  -9799431.46148  -7584806.55947  20414205.9144                   20414203.3014
 -14610569.24247 -11343622.64845  22156980.2034                   22156977.4734
  30764675.35947  24014166.13344  23732480.5474                   23732479.0204
 -14454204.53948 -11212107.76646  20952659.2034                   20952656.0354
 -37078184.55546 -28837398.66443  24085097.0394                   24085096.4654
   9909350.54348   7769508.09446  21992913.6334                   21992913.1334
 11  7 26  3 20  0.0000000  0  7G02G05G10G29G12G04G25
 -30204060.19148 -23486420.56246  21158895.9064                   21158890.9494
  -9916056.76248  -7675683.39547  20392012.6334                   20392010.2734
 -14627348.55947 -11356697.45745  22153787.0784                   22153784.4024
  30583860.92646  23873271.85543  23698072.3284                   23698071.5824
 -14525509.78548 -11267670.28146  20939089.9694                   20939087.2584
 -37094536.09446 -28850140.11343  24081986.7974                   24081984.8634
   9769729.59048   7660712.61346  21966344.0314                   21966344.1644
 11  7 26  3 20 30.0000000  0  7G02G05G10G29G12G04G25
 -30269895.07448 -23537720.44546  21146367.2504                   21146363.0434
 -10032095.02748  -7766102.78947  20369931.5704                   20369928.5744
 -14643721.35547 -11369455.45745  22150670.7894                   22150668.6684
  30403038.02046  23732370.94144  23663663.4774                   23663662.3714
 -14596241.40648 -11322785.83246  20925630.2274                   20925627.2814
 -37110920.43446 -28862907.13743  24078869.1254                   24078866.7934
   9630659.28148   7552346.18846  21939880.1414                   21939879.9574
 11  7 26  3 21  0.0000000  0  7G02G05G10G29G12G04G25
 -30335592.41848 -23588913.15246  21133866.0164                   21133861.0514
 -10147551.47748  -7856068.82447  20347960.7424                   20347958.3014
 -14659696.27747 -11381903.44545  22147631.0864                   22147628.6884
  30222201.79346  23591459.70344  23629250.2974                   23629250.7154
 -14666406.48448 -11377459.90246  20912278.3754                   20912275.3874
 -37127343.94146 -28875704.63343  24075743.4614                   24075741.9654
   9492135.03148   7444405.27746  21913520.0394                   21913519.6024
 11  7 26  3 21 30.0000000  0  7G02G05G10G29G12G04G25
 -30401149.56248 -23639996.60946  21121390.9144                   21121386.2934
 -10262422.95748  -7945579.04747  20326101.7734                   20326098.9224
 -14675272.98047 -11394041.12545  22144666.9534                   22144664.9494
  30041356.86347  23450541.66844  23594836.8444                   23594835.8914
 -14736002.50048 -11431690.55946  20899034.3284                   20899031.9964
 -37143803.83646 -28888530.55143  24072610.8444                   24072609.5044
   9354161.49648   7336893.49646  21887264.3204                   21887264.4694
 11  7 26  3 22  0.0000000  0  7G02G05G10G29G12G04G25
 -30466566.31648 -23690970.66446  21108941.9694                   21108937.7304
 -10376708.75448  -8034632.88347  20304353.6414                   20304351.5634
 -14690453.14847 -11405869.80545  22141778.3444                   22141776.1374
  29860504.77747  23309618.09444  23560422.4304                   23560421.1844
 -14805030.21148 -11485478.38746  20885899.1954                   20885896.5124
 -37160299.80946 -28901384.55943  24069472.2194                   24069471.1054
   9216740.80148   7229812.48446  21861113.6414                   21861113.6884
 11  7 26  3 22 30.0000000  0  7G02G05G10G29G12G04G25
 -30531845.34048 -23741837.40646  21096519.8444                   21096515.5314
 -10490410.45348  -8123231.57447  20282716.5084                   20282714.0904
 -14705241.53947 -11417393.20745  22138964.1954                   22138962.5474
  29679645.04747  23168688.55144  23526005.2274                   23526004.5084
 -14873492.55548 -11538825.64846  20872870.9304                   20872868.4304
 -37176834.20347 -28914268.50843  24066325.8674                   24066324.8204
   9079872.54748   7123161.95346  21835068.8914                   21835068.9574
 11  7 26  3 23  0.0000000  0  7G02G05G10G29G12G04G25
 -30596984.14147 -23792594.87946  21084124.3444                   21084119.7544
 -10603524.98448  -8211372.75047  20261191.5864                   20261188.7934
 -14719638.07847 -11428611.26245  22136224.3674                   22136222.7854
  29498781.93847  23027756.34044  23491589.2274                   23491586.8014
 -14941387.72748 -11591730.98046  20859951.1414                   20859948.1644
 -37193404.58646 -28927180.49643  24063172.6024                   24063171.5474
   8943560.93048   7016945.15646  21809129.1334                   21809129.0784
 11  7 26  3 23 30.0000000  0  7G02G05G10G29G12G04G25
 -30661987.41048 -23843246.73446  21071754.6644                   21071750.3284
 -10716055.94948  -8299059.18447  20239777.9614                   20239775.5634
 -14733649.07847 -11439528.92244  22133558.7034                   22133555.8834
  29317912.73047  22886819.39544  23457170.1954                   23457169.3364
 -15008720.16848 -11644197.80546  20847138.5084                   20847135.3674
 -37210014.91846 -28940123.59843  24060011.6024                   24060010.3674
   8807803.74648   6911160.36746  21783295.6094                   21783295.3404
 11  7 26  3 24  0.0000000  0  7G02G05G10G29G12G04G25
 -30726854.47348 -23893792.46146  21059410.7664                   21059406.1134
 -10828001.79748  -8386289.68047  20218475.4384                   20218472.8204
 -14747276.07847 -11450147.33645  22130965.4774                   22130962.9694
  29137040.39147  22745880.03144  23422751.6094                   23422750.4024
 -15075490.41448 -11696226.56646  20834432.0234                   20834429.6054
 -37226664.43446 -28953097.27043  24056843.0784                   24056841.7544
   8672603.48448   6805809.54346  21757567.6254                   21757568.4144
 11  7 26  3 24 30.0000000  0  7G02G05G10G29G12G04G25
 -30791586.53948 -23944233.00846  21047092.7584                   21047088.1844
 -10939363.39848  -8473064.92247  20197283.7814                   20197281.4064
 -14760522.52047 -11460469.21545  22128444.7664                   22128441.6334
  28956165.37947  22604938.54744  23388332.3834                   23388330.4494
 -15141699.91848 -11747818.37946  20821832.7814                   20821829.9574
 -37243354.30946 -28966102.35543  24053667.5784                   24053665.6684
   8537960.65248   6700893.08646  21731946.2034                   21731946.1334
 11  7 26  3 25  0.0000000  0  7G02G05G10G29G12G04G25
 -30856182.83648 -23994567.74646  21034800.3674                   21034796.1414
 -11050138.50848  -8559383.17247  20176203.8524                   20176201.4184
 -14773389.93747 -11470495.73045  22125995.8444                   22125993.7894
  28775290.32847  22463997.00044  23353912.6954                   23353911.1254
 -15207348.41848 -11798973.03546  20809340.3204                   20809337.5944
 -37260083.01646 -28979137.70743  24050483.8054                   24050482.2584
   8403878.35248   6596413.39146  21706431.1414                   21706431.3674
 11  7 26  3 25 30.0000000  0  7G02G05G10G29G12G04G25
 -30920645.00448 -24044797.99246  21022533.7584                   21022528.8364
 -11160329.07048  -8645245.91847  20155235.2664                   20155232.8794
 -14785881.86747 -11480229.68745  22123618.0784                   22123616.0274
  28594415.43447  22323055.61345  23319493.4924                   23319492.1334
 -15272438.26248 -11849692.39846  20796954.1804                   20796951.7814
 -37276852.29346 -28992204.62943  24047293.5704                   24047291.4884
   8270356.52048   6492370.41846  21681023.0394                   21681022.8284
 11  7 26  3 26  0.0000000  0  7G02G05G10G29G12G04G25
 -29409552.81248 -22867323.55146  21310085.4064                   21310080.7544
  -9694512.48048  -7503051.14147  20434170.5164                   20434168.2304
 -13222582.36347 -10262074.23045  22421104.3524                   22421103.2544
  29988966.62946                  23409718.95744  23584867.0164   23584866.6054
 -13761549.93748 -10672376.81246  21084465.9384                   21084463.5904
 -35718243.27746 -27777704.11743  24343886.5004                   24343884.9494
   9712819.58648   7616367.60946  21955514.4844                   21955514.3554
 11  7 26  3 26 30.0000000  0  7G02G05G10G29G12G04G25
 -29473750.12548 -22917347.41046  21297868.6024                   21297864.6174
  -9803534.64848  -7588003.46147  20413425.0394                   20413421.9024
 -13234333.60947 -10271231.03145  22418868.4694                   22418866.3794
  29808094.60546  23268779.76244  23550448.3594   23550447.7624
 -13825527.81648 -10722229.70346  21072292.1094                   21072289.0664
 -35735096.27746 -27790836.32843  24340679.1724                   24340677.6804
   9580421.11348   7513199.98046  21930320.1884                   21930319.9144
 11  7 26  3 27  0.0000000  0  7G02G05G10G29G12G04G25
 -29537813.82448 -22967267.15646  21285678.1254                   21285673.2154
  -9911970.68748  -7672499.05147  20392790.0314                   20392787.3874
 -13245716.78947 -10280101.02344  22416702.3364                   22416700.0354
  29627227.78546  23127844.64844  23516030.5634   23516029.7854
 -13888949.69948 -10771649.35246  21060223.3134                   21060220.5634
 -35751989.63746 -27804000.04343  24337463.9694                   24337463.4964
   9448588.08648   7410472.94946  21905232.8754                   21905232.5164
 11  7 26  3 27 30.0000000  0  7G02G05G10G29G12G04G25
 -29601747.51648 -23017085.59846  21273511.5084                   21273507.0124
 -10019823.64148  -7756540.29747  20372266.4304                   20372263.5554
 -13256737.67247 -10288688.72344  22414604.7424                   22414603.2234
  29446364.56646  22986912.35244  23481613.4774   23481613.0594
 -13951819.85548 -10820639.07046  21048259.5634                   21048256.6684
 -35768926.90646 -27817197.91043  24334242.3284                   24334240.7544
   9317318.59848   7308185.04346  21880253.1094                   21880253.3524
 11  7 26  3 28  0.0000000  0  7G02G05G10G29G12G04G25
 -29665550.56248 -23066802.24246  21261370.4614                   21261365.8364
 -10127092.48448  -7840126.39147  20351853.6564                   20351851.1684
 -13267397.60247 -10296995.14845  22412576.3914                   22412574.6414
  29265507.74247  22845985.07444  23447197.2974   23447196.8094
 -14014138.01648 -10869198.67246  21036400.5634                   21036397.4614
 -35785906.61746 -27830428.84843  24331011.3524                   24331009.1954
   9186615.26648   7206338.30146  21855380.8054                   21855381.4344
 11  7 26  3 28 30.0000000  0  7G02G05G10G29G12G04G25
 -29729225.09848 -23116418.75446  21249253.5474                   21249248.6884
 -10233778.71548  -7923258.50047  20331551.9454                   20331549.2544
 -13277700.98847 -10305023.74644  22410616.1094                   22410612.9534
  29084657.03547  22705062.52044  23412783.5004   23412781.0944
 -14075907.57048 -10917330.79346  21024646.1804                   21024643.7344
 -35802931.06246 -27843694.65643  24327770.8204                   24327769.2154
   9056477.61748   7104932.34846  21830616.7034                   21830616.6484
 11  7 26  3 29  0.0000000  0  7G02G05G10G29G12G04G25
 -29792772.48048 -23165936.18446  21237160.8754                   21237156.0904
 -10339883.55948  -8005937.58247  20311360.8914                   20311358.1454
 -13287651.50447 -10312777.39844  22408722.0084                   22408720.5784
  28903812.69546  22564144.97744  23378369.3204   23378367.2344
 -14137130.99247 -10965037.35246  21012995.8984                   21012992.9774
 -35820001.57846 -27856996.38343  24324522.9454                   24324520.8634
   8926905.71948   7003967.25446  21805960.0474                   21805960.1484
 11  7 26  3 29 30.0000000  0  7G02G05G10G29G12G04G25
 -29856190.63748 -23215352.92646  21225093.0164                   21225088.0354
 -10445404.19148  -8088161.42647  20291281.0394                   20291278.4144
 -13297249.10947 -10320256.04745  22406896.6484                   22406894.0514
  28722979.23847  22423235.86744  23343957.8754   23343955.4734
 -14197805.95748 -11012316.54746  21001449.9144                   21001447.1414
 -35837115.22346 -27870331.69142  24321266.6094                   24321264.0594
   8797903.77748   6903446.27746  21781411.8054                   21781411.7664
 11  7 26  3 30  0.0000000  0  8G26G02G05G10G29G12G04G25
  43830113.35556  34191202.80552  24792846.6564                   24792845.8634
 -29919482.59848 -23264671.32846  21213048.7114                   21213043.9924
 -10550343.44148  -8169932.25447  20271311.7974                   20271308.7344
 -13306499.42247 -10327464.06644  22405136.1334                   22405133.1954
  28542155.46547  22282334.34444  23309547.4064   23309545.6644
 -14257937.50448 -11059172.29346  20990007.2424                   20990004.3204
 -35854275.00046 -27883702.93043  24318000.8834                   24317998.7544
   8669470.07448   6803368.08646  21756971.3914                   21756971.6914
